[[{"header":{"parameterUnit":"m.s-1","parameterCategory":1,"la1":30.6,"la2":28.766,"lo1":-90.7593,"lo2":-88.6598,"dy":0.0162,"dx":0.0183,"nx":116,"ny":114,"refTime":"2023-06-15T12:00:00:Z","depth":0,"parameterNumber":2,"parameterNumberName":"U-component_of_WINDS"},"data":[0.0,0.0,0.0,0.0,0.0,0.0,0.0,0.0,0.0,0.0,0.0,0.0,0.0,0.0,0.0,0.0,0.0,0.0,0.0,0.0,0.0,0.0,0.0,0.0,0.0,0.0,0.0,0.0,0.0,0.0,0.0,0.0,0.0,0.0,0.0,0.0,0.0,0.0,0.0,0.0,0.0,0.0,0.0,0.0,0.0,0.0,0.0,0.0,0.0,0.0,0.0,0.0,0.0,0.0,0.0,0.0,0.0,0.0,0.0,0.0,0.0,0.0,0.0,0.0,0.0,0.0,0.0,0.0,0.0,0.0,0.0,0.0,0.0,0.0,0.0,0.0,0.0,0.0,0.0,0.0,0.0,0.0,0.0,0.0,0.0,0.0,0.0,0.0,0.0,0.0,0.0,0.0,0.0,0.0,0.0,0.0,0.0,0.0,0.0,0.0,0.0,0.0,0.0,0.0,0.0,0.0,0.0,0.0,0.0,0.0,0.0,0.0,0.0,0.0,0.0,0.0,0.0,0.0,0.0,0.0,0.0,0.0,0.0,0.0,0.0,0.0,0.0,0.0,0.0,0.0,0.0,0.0,0.0,0.0,0.0,0.0,0.0,0.0,0.0,0.0,0.0,0.0,0.0,0.0,0.0,0.0,0.0,0.0,0.0,0.0,0.0,0.0,0.0,0.0,0.0,0.0,0.0,0.0,0.0,0.0,0.0,0.0,0.0,0.0,0.0,0.0,0.0,0.0,0.0,0.0,0.0,0.0,0.0,0.0,0.0,0.0,0.0,0.0,0.0,0.0,0.0,0.0,0.0,0.0,0.0,0.0,0.0,0.0,0.0,0.0,0.0,0.0,0.0,0.0,0.0,0.0,0.0,0.0,0.0,0.0,0.0,0.0,0.0,0.0,0.0,0.0,0.0,0.0,0.0,0.0,0.0,0.0,0.0,0.0,0.0,0.0,0.0,0.0,0.0,0.0,0.0,0.0,0.0,0.0,0.0,0.0,0.0,0.0,0.0,0.0,0.0,0.0,0.0,0.0,0.0,0.0,0.0,0.0,0.0,0.0,0.0,0.0,0.0,0.0,0.0,0.0,0.0,0.0,0.0,0.0,0.0,0.0,0.0,0.0,0.0,0.0,0.0,0.0,0.0,0.0,0.0,0.0,0.0,0.0,0.0,0.0,0.0,0.0,0.0,0.0,0.0,0.0,0.0,0.0,0.0,0.0,0.0,0.0,0.0,0.0,0.0,0.0,0.0,0.0,0.0,0.0,0.0,0.0,0.0,0.0,0.0,0.0,0.0,0.0,0.0,0.0,0.0,0.0,0.0,0.0,0.0,0.0,0.0,0.0,0.0,0.0,0.0,0.0,0.0,0.0,0.0,0.0,0.0,0.0,0.0,0.0,0.0,0.0,0.0,0.0,0.0,0.0,0.0,0.0,0.0,0.0,0.0,0.0,0.0,0.0,0.0,0.0,0.0,0.0,0.0,0.0,0.0,0.0,0.0,0.0,0.0,0.0,0.0,0.0,0.0,0.0,0.0,0.0,0.0,0.0,0.0,0.0,0.0,0.0,0.0,0.0,0.0,0.0,0.0,0.0,0.0,0.0,0.0,0.0,0.0,0.0,0.0,0.0,0.0,0.0,0.0,0.0,0.0,0.0,0.0,0.0,0.0,0.0,0.0,0.0,0.0,0.0,0.0,0.0,0.0,0.0,0.0,0.0,0.0,0.0,0.0,0.0,0.0,0.0,0.0,0.0,0.0,0.0,0.0,0.0,0.0,0.0,0.0,0.0,0.0,0.0,0.0,0.0,0.0,0.0,0.0,0.0,0.0,0.0,0.0,0.0,0.0,0.0,0.0,0.0,0.0,0.0,0.0,0.0,0.0,0.0,0.0,0.0,0.0,0.0,0.0,0.0,0.0,0.0,0.0,0.0,0.0,0.0,0.0,0.0,0.0,0.0,0.0,0.0,0.0,0.0,0.0,0.0,0.0,0.0,0.0,0.0,0.0,0.0,0.0,0.0,0.0,0.0,0.0,0.0,0.0,0.0,0.0,0.0,0.0,0.0,0.0,0.0,0.0,0.0,0.0,0.0,0.0,0.0,0.0,0.0,0.0,0.0,0.0,0.0,0.0,0.0,0.0,0.0,0.0,0.0,0.0,0.0,0.0,0.0,0.0,0.0,0.0,0.0,0.0,0.0,0.0,0.0,0.0,0.0,0.0,0.0,0.0,0.0,0.0,0.0,0.0,0.0,0.0,0.0,0.0,0.0,0.0,0.0,0.0,0.0,0.0,0.0,0.0,0.0,0.0,0.0,0.0,0.0,0.0,0.0,0.0,0.0,0.0,0.0,0.0,0.0,0.0,0.0,0.0,0.0,0.0,0.0,0.0,0.0,0.0,0.0,0.0,0.0,0.0,0.0,0.0,0.0,0.0,0.0,0.0,0.0,0.0,0.0,0.0,0.0,0.0,0.0,0.0,0.0,0.0,0.0,0.0,0.0,0.0,0.0,0.0,0.0,0.0,0.0,0.0,0.0,0.0,0.0,0.0,0.0,0.0,0.0,0.0,0.0,0.0,0.0,0.0,0.0,0.0,0.0,0.0,0.0,0.0,0.0,0.0,0.0,0.0,0.0,0.0,0.0,0.0,0.0,0.0,0.0,0.0,0.0,0.0,0.0,0.0,0.0,0.0,0.0,0.0,0.0,0.0,0.0,0.0,0.0,0.0,0.0,0.0,0.0,0.0,0.0,0.0,0.0,0.0,0.0,0.0,0.0,0.0,0.0,0.0,0.0,0.0,0.0,0.0,0.0,0.0,0.0,0.0,0.0,0.0,0.0,0.0,0.0,0.0,0.0,0.0,0.0,0.0,0.0,0.0,0.0,0.0,0.0,0.0,0.0,0.0,0.0,0.0,0.0,0.0,0.0,0.0,0.0,0.0,0.0,0.0,0.0,0.0,0.0,0.0,0.0,0.0,0.0,0.0,0.0,0.0,0.0,0.0,0.0,0.0,0.0,0.0,0.0,0.0,0.0,0.0,0.0,0.0,0.0,0.0,0.0,0.0,0.0,0.0,0.0,0.0,0.0,0.0,0.0,0.0,0.0,0.0,0.0,0.0,0.0,0.0,0.0,0.0,0.0,0.0,0.0,0.0,0.0,0.0,0.0,0.0,0.0,0.0,0.0,0.0,0.0,0.0,0.0,0.0,0.0,0.0,0.0,0.0,0.0,0.0,0.0,0.0,0.0,0.0,0.0,0.0,0.0,0.0,0.0,0.0,0.0,0.0,0.0,0.0,0.0,0.0,0.0,0.0,0.0,0.0,0.0,0.0,0.0,0.0,0.0,0.0,0.0,0.0,0.0,0.0,0.0,0.0,0.0,0.0,0.0,0.0,0.0,0.0,0.0,0.0,0.0,0.0,0.0,0.0,0.0,0.0,0.0,0.0,0.0,0.0,0.0,0.0,0.0,0.0,0.0,0.0,0.0,0.0,0.0,0.0,0.0,0.0,0.0,0.0,0.0,0.0,0.0,0.0,0.0,0.0,0.0,0.0,0.0,0.0,0.0,0.0,0.0,0.0,0.0,0.0,0.0,0.0,0.0,0.0,0.0,0.0,0.0,0.0,0.0,0.0,0.0,0.0,0.0,0.0,0.0,0.0,0.0,0.0,0.0,0.0,0.0,0.0,0.0,0.0,0.0,0.0,0.0,0.0,0.0,0.0,0.0,0.0,0.0,0.0,0.0,0.0,0.0,0.0,0.0,0.0,0.0,0.0,0.0,0.0,0.0,0.0,0.0,0.0,0.0,0.0,0.0,0.0,0.0,0.0,0.0,0.0,0.0,0.0,0.0,0.0,0.0,0.0,0.0,0.0,0.0,0.0,0.0,0.0,0.0,0.0,0.0,0.0,0.0,0.0,0.0,0.0,0.0,0.0,0.0,0.0,0.0,0.0,0.0,0.0,0.0,0.0,0.0,0.0,0.0,0.0,0.0,0.0,0.0,0.0,0.0,0.0,0.0,0.0,0.0,0.0,0.0,0.0,0.0,0.0,0.0,0.0,0.0,0.0,0.0,0.0,0.0,0.0,0.0,0.0,0.0,0.0,0.0,0.0,0.0,0.0,0.0,0.0,0.0,0.0,0.0,0.0,0.0,0.0,0.0,0.0,0.0,0.0,0.0,0.0,0.0,0.0,0.0,0.0,0.0,0.0,0.0,0.0,0.0,0.0,0.0,0.0,0.0,0.0,0.0,0.0,0.0,0.0,0.0,0.0,0.0,0.0,0.0,0.0,0.0,0.0,0.0,0.0,0.0,0.0,0.0,0.0,0.0,0.0,0.0,0.0,0.0,0.0,0.0,0.0,0.0,0.0,0.0,0.0,0.0,0.0,0.0,0.0,0.0,0.0,0.0,0.0,0.0,0.0,0.0,0.0,0.0,0.0,0.0,0.0,0.0,0.0,0.0,0.0,0.0,0.0,0.0,0.0,0.0,0.0,0.0,0.0,0.0,0.0,0.0,0.0,0.0,0.0,0.0,0.0,0.0,0.0,0.0,0.0,0.0,0.0,0.0,0.0,0.0,0.0,0.0,0.0,0.0,0.0,0.0,0.0,0.0,0.0,0.0,0.0,0.0,0.0,0.0,0.0,0.0,0.0,0.0,0.0,0.0,0.0,0.0,0.0,0.0,0.0,0.0,0.0,0.0,0.0,0.0,0.0,0.0,0.0,0.0,0.0,0.0,0.0,0.0,0.0,0.0,0.0,0.0,0.0,0.0,0.0,0.0,0.0,0.0,0.0,0.0,0.0,0.0,0.0,0.0,0.0,0.0,0.0,0.0,0.0,0.0,0.0,0.0,0.0,0.0,0.0,0.0,0.0,0.0,0.0,0.0,0.0,0.0,0.0,0.0,0.0,0.0,0.0,0.0,0.0,0.0,0.0,0.0,0.0,0.0,0.0,0.0,0.0,0.0,0.0,0.0,0.0,0.0,0.0,0.0,0.0,0.0,0.0,0.0,0.0,0.0,0.0,0.0,0.0,0.0,0.0,0.0,0.0,0.0,0.0,0.0,0.0,0.0,0.0,0.0,0.0,0.0,0.0,0.0,0.0,0.0,0.0,0.0,0.0,0.0,0.0,0.0,0.0,0.0,0.0,0.0,0.0,0.0,0.0,0.0,0.0,0.0,0.0,0.0,0.0,0.0,0.0,0.0,0.0,0.0,0.0,0.0,0.0,0.0,0.0,0.0,0.0,0.0,0.0,0.0,0.0,0.0,0.0,0.0,0.0,0.0,0.0,0.0,0.0,0.0,0.0,0.0,0.0,0.0,0.0,0.0,0.0,0.0,0.0,0.0,0.0,0.0,0.0,0.0,0.0,0.0,0.0,0.0,0.0,0.0,0.0,0.0,0.0,0.0,0.0,0.0,0.0,0.0,0.0,0.0,0.0,0.0,0.0,0.0,0.0,0.0,0.0,0.0,0.0,0.0,0.0,0.0,0.0,0.0,0.0,0.0,0.0,0.0,0.0,0.0,0.0,0.0,0.0,0.0,0.0,0.0,0.0,0.0,0.0,0.0,0.0,0.0,0.0,0.0,0.0,0.0,0.0,0.0,0.0,0.0,0.0,0.0,0.0,0.0,0.0,0.0,0.0,0.0,0.0,0.0,0.0,0.0,0.0,0.0,0.0,0.0,0.0,0.0,0.0,0.0,0.0,0.0,0.0,0.0,0.0,0.0,0.0,0.0,0.0,0.0,0.0,0.0,0.0,0.0,0.0,0.0,0.0,0.0,0.0,0.0,0.0,0.0,0.0,0.0,0.0,0.0,0.0,0.0,0.0,0.0,0.0,0.0,0.0,0.0,0.0,0.0,0.0,0.0,0.0,0.0,0.0,0.0,0.0,0.0,0.0,0.0,0.0,0.0,0.0,0.0,0.0,0.0,0.0,0.0,0.0,0.0,0.0,0.0,0.0,0.0,0.0,0.0,0.0,0.0,0.0,0.0,0.0,0.0,0.0,0.0,0.0,0.0,0.0,0.0,0.0,0.0,0.0,0.0,0.0,0.0,0.0,0.0,0.0,0.0,0.0,0.0,0.0,0.0,0.0,0.0,0.0,0.0,0.0,0.0,1.133,0.0,0.0,0.0,0.0,0.0,0.0,0.0,0.0,0.0,0.0,0.0,0.0,0.0,0.0,0.0,0.0,0.0,0.0,0.0,0.0,0.0,0.0,0.0,0.0,0.0,0.0,0.0,0.0,0.0,0.0,0.0,0.0,0.0,0.0,0.0,0.0,0.0,0.0,0.0,0.0,0.0,0.0,0.0,0.0,0.0,0.0,0.0,0.0,0.0,0.0,0.0,0.0,0.0,0.0,0.0,0.0,0.0,0.0,0.0,0.0,0.0,0.0,0.0,0.0,0.0,0.0,0.0,0.0,0.0,0.0,0.0,0.0,0.0,0.0,0.0,0.0,0.0,0.0,0.0,0.0,0.0,0.0,0.0,0.0,0.0,0.0,0.0,0.0,0.0,0.0,0.0,0.0,0.0,0.0,0.0,0.0,0.0,0.0,0.0,0.0,0.0,0.0,0.0,0.0,0.0,0.0,0.0,0.0,0.0,0.0,0.0,0.0,0.0,0.0,0.0,0.0,1.2552,0.0,0.0,0.0,0.0,0.0,0.0,0.0,0.0,0.0,0.0,0.0,0.0,0.0,0.0,0.0,0.0,0.0,0.0,0.0,0.0,0.0,0.0,0.0,0.0,0.0,0.0,0.0,0.0,0.0,0.0,0.0,0.0,0.0,0.0,0.0,0.0,0.0,0.0,0.0,0.0,0.0,0.0,0.0,0.0,0.0,0.0,0.0,0.0,0.0,0.0,0.0,0.0,0.0,0.0,0.0,0.0,0.0,0.0,0.0,0.0,0.0,0.0,0.0,0.0,0.0,0.0,0.0,0.0,0.0,0.0,0.0,0.0,0.0,0.0,0.0,0.0,0.0,0.0,0.0,0.0,0.0,0.0,0.0,0.0,0.0,0.0,0.0,0.0,0.0,0.0,0.0,0.0,0.0,0.0,0.0,0.0,0.0,0.0,0.0,0.0,0.0,0.0,0.0,0.0,0.0,0.0,0.0,0.0,0.0,0.0,1.8004,1.826,1.8365,1.8239,1.593,1.4742,1.4384,0.0,0.0,0.0,0.0,0.0,0.0,0.0,0.0,0.0,0.0,0.0,0.0,0.0,0.0,0.0,0.0,0.0,0.0,0.0,0.0,0.0,0.0,0.0,0.0,0.0,0.0,0.0,0.0,0.0,0.0,0.0,0.0,0.0,0.0,0.0,0.0,0.0,0.0,0.0,-0.4967,-0.5076,-0.497,-0.4633,-0.4104,0.0,0.0,0.0,0.0,0.0,0.0,0.0,0.0,0.0,0.0,0.0,0.0,0.0,0.0,0.0,0.0,0.0,0.0,0.0,0.0,0.0,0.0,0.0,0.0,0.0,0.0,0.0,0.0,0.0,0.0,0.0,0.0,0.0,0.0,0.0,0.0,0.0,0.0,0.0,0.0,0.0,0.0,0.0,0.3771,0.418,0.0,0.0,0.0,0.0,0.0,0.0,0.0,0.0,0.0,0.0,0.0,0.0,0.0,0.0,1.5742,1.702,1.7984,1.8585,1.9239,1.9834,2.0296,2.0289,2.0219,2.0017,1.9339,0.0,1.6728,1.5879,0.0,0.0,0.0,0.0,0.0,0.0,0.0,0.0,0.0,0.0,0.0,0.0,0.0,0.0,0.0,0.0,0.0,0.0,0.0,0.0,0.0,0.0,0.0,0.0,0.0,0.0,0.0,0.0,0.0,0.0,0.0,0.0,0.0,0.0,0.0,0.0,-0.4977,-0.5344,-0.5778,-0.5649,-0.5638,-0.5664,-0.5399,-0.4911,-0.4287,-0.4138,0.0,0.0,0.0,0.0,0.0,0.0,0.0,0.0,0.0,0.0,0.0,0.0,0.0,0.0,0.0,0.0,0.0,0.0,0.0,0.0,0.0,0.0,0.0,0.0,0.0,0.0,0.0,0.0,0.0,0.0,0.0,0.0,0.0,0.0,0.0,0.0,0.0,0.0,0.0,0.3243,0.3999,0.4515,0.5149,0.5723,0.0,0.0,0.0,0.0,0.0,0.0,0.0,0.0,0.0,1.4634,1.5842,1.6893,1.7738,1.8848,1.962,2.0038,2.0703,2.1104,2.1308,2.1553,2.1675,2.1558,2.111,2.0459,1.9655,1.7862,1.7018,1.6711,0.0,0.0,0.0,0.0,0.0,1.4218,0.0,0.0,0.0,0.0,0.0,0.0,0.0,0.0,0.0,0.0,0.0,0.0,0.0,0.0,0.0,-0.4963,0.0,0.0,0.0,0.0,0.0,0.0,0.0,0.0,0.0,0.0,0.0,0.0,-0.5662,-0.6007,-0.6493,-0.62,-0.6213,-0.643,-0.6471,-0.5922,-0.4965,-0.4816,-0.4445,0.0,0.0,0.0,0.0,0.0,0.0,0.0,0.0,0.0,0.0,0.0,0.0,0.0,0.0,0.0,0.0,0.0,0.0,0.0,0.0,0.0,0.0,0.0,0.0,0.0,0.0,0.0,0.0,0.0,0.0,0.0,0.0,0.0,0.0,0.0,0.0,0.0,0.0,0.3377,0.4082,0.4838,0.5451,0.6119,0.0,0.0,0.0,0.0,0.0,0.0,1.1812,1.3095,1.4451,1.5806,1.7225,1.8369,1.9224,2.0221,2.0966,2.1387,2.1883,2.2264,2.2446,2.2784,2.2944,2.2904,2.2486,2.2287,2.2088,1.9848,1.8718,1.8489,1.7715,1.7252,0.0,1.656,1.6252,1.6115,0.0,0.0,0.0,0.0,0.0,0.0,0.0,0.0,0.0,0.0,0.0,0.0,0.0,0.0,-0.562,-0.5581,-0.5601,-0.5475,0.0,0.0,0.0,0.0,0.0,0.0,0.0,0.0,0.0,-0.6367,-0.647,-0.6738,-0.7081,-0.6902,-0.6878,-0.6898,-0.7034,-0.6593,-0.5739,-0.5596,-0.514,-0.4405,0.0,0.0,0.0,0.0,0.0,0.0,0.0,0.0,0.0,0.0,0.0,0.0,0.0,0.0,0.0,0.0,0.0,0.0,0.0,0.0,0.0,0.0,0.0,0.0,0.0,0.0,0.0,0.0,0.0,0.0,0.0,0.0,0.0,0.0,0.0,0.0,0.0,0.0,0.0,0.508,0.5795,0.0,0.0,0.0,0.0,0.979,1.0633,1.1765,1.3155,1.4209,1.5277,1.6522,1.7894,1.8956,1.9671,2.0833,2.1946,2.2896,2.3114,2.3596,2.4147,2.4166,2.4166,2.4147,2.3757,2.3582,2.3516,2.171,2.048,1.9824,1.9785,1.9216,1.8432,1.8027,1.7986,1.8024,0.0,0.0,0.0,0.0,0.0,0.0,0.0,0.0,0.0,0.0,0.0,0.0,0.0,-0.5848,-0.6139,-0.6066,-0.6086,-0.5957,-0.5585,0.0,0.0,0.0,0.0,0.0,0.0,0.0,-0.6392,-0.6936,-0.7165,-0.743,-0.751,-0.7467,-0.7444,-0.7366,-0.7414,-0.7204,-0.679,-0.6451,-0.5835,-0.4981,-0.4659,-0.4159,0.0,0.0,0.0,0.0,0.0,0.0,0.0,0.0,0.0,0.0,0.0,0.0,0.0,0.0,0.0,0.0,0.0,0.0,0.0,0.0,0.0,0.0,0.0,0.0,0.0,0.0,0.0,0.0,0.0,0.0,0.0,0.0,0.0,0.0,0.0,0.0,0.0,0.5202,0.5924,0.0,0.0,0.8216,0.903,0.9737,1.0692,1.179,1.3336,1.4329,1.5585,1.7022,1.8179,1.9152,1.9953,2.095,2.1608,2.2125,2.2517,2.2888,2.3093,2.3299,2.3411,2.3392,2.3261,2.3205,2.3149,2.249,2.1883,2.1236,2.0805,2.0353,1.9783,1.9286,1.903,1.8728,0.0,0.0,0.0,0.0,0.0,0.0,0.0,0.0,0.0,0.0,0.0,-0.5231,-0.5891,-0.6342,-0.6648,-0.6632,-0.6652,-0.6431,-0.6029,0.0,0.0,0.0,0.0,0.0,0.0,-0.6384,-0.6928,-0.7407,-0.7698,-0.7842,-0.7938,-0.7887,-0.7858,-0.7672,-0.7726,-0.7665,-0.7502,-0.7204,-0.6536,-0.5632,-0.5328,-0.4843,-0.4196,0.0,0.0,0.0,0.0,0.0,0.0,0.0,0.0,0.0,0.0,0.0,0.0,0.0,0.0,0.0,0.0,0.0,0.0,0.0,0.0,0.0,0.0,0.0,0.0,0.0,0.0,0.0,0.0,0.0,0.0,0.0,0.0,0.0,0.0,0.0,0.4021,0.5104,0.5911,0.6668,0.7386,0.822,0.8999,0.9714,1.071,1.1886,1.3228,1.4272,1.5465,1.7035,1.8021,1.9033,1.9884,2.0797,2.1279,2.1559,2.197,2.2212,2.217,2.2479,2.2672,2.2672,2.2768,2.2768,2.2768,2.2768,2.2514,2.1986,2.1669,2.1328,2.0853,2.0497,2.0044,1.9647,0.0,0.0,0.0,0.0,0.0,0.0,0.0,0.0,0.0,0.0,0.0,-0.5684,-0.6331,-0.6826,-0.7178,-0.7289,-0.732,-0.7031,-0.6284,-0.6201,0.0,0.0,0.0,0.0,-0.6101,-0.6879,-0.7423,-0.7789,-0.8052,-0.822,-0.8132,-0.8167,-0.8118,-0.7828,-0.7977,-0.7963,-0.7828,-0.7828,-0.7315,-0.6389,-0.6066,-0.5532,-0.4931,0.0,0.0,0.0,0.0,0.0,0.0,0.0,0.0,0.0,0.0,0.0,0.0,0.0,0.0,0.0,0.0,0.0,0.0,0.0,0.0,0.0,0.0,0.0,0.0,0.0,0.0,0.0,0.0,0.0,0.0,0.0,0.0,0.0,0.2366,0.3036,0.3743,0.4725,0.5716,0.6666,0.7428,0.8151,0.9046,0.9846,1.0806,1.1822,1.2936,1.3971,1.5143,1.6562,1.7448,1.8471,1.9541,2.0479,2.1018,2.1207,2.1554,2.169,2.1656,2.1962,2.2063,2.2063,2.2367,2.2451,2.2451,2.2451,2.2247,2.1889,2.2267,2.2185,2.1674,2.1405,2.1213,2.0829,0.0,0.0,0.0,0.0,0.0,0.0,0.0,0.0,0.0,0.0,-0.5281,-0.5924,-0.6568,-0.7214,-0.7602,-0.7542,-0.7562,-0.7389,-0.6968,0.0,0.0,0.0,0.0,0.0,-0.692,-0.7374,-0.7854,-0.8349,-0.8657,-0.8761,-0.846,-0.8571,-0.8371,-0.7984,-0.814,-0.818,-0.8153,-0.8255,-0.8052,-0.7523,-0.6599,-0.5918,-0.5518,0.0,0.0,0.0,0.0,0.0,0.0,0.0,0.0,0.0,0.0,0.0,0.0,0.0,0.0,0.0,0.0,0.0,0.0,0.0,0.0,0.0,0.0,0.0,0.0,0.0,0.0,0.0,0.0,0.0,0.0,0.0,0.0,0.1685,0.2217,0.2721,0.3399,0.4124,0.5061,0.592,0.6578,0.7404,0.8302,0.9256,1.0257,1.1263,1.238,1.3542,1.456,1.5574,1.6404,1.7359,1.833,1.8837,1.9386,2.017,2.0401,2.068,2.0803,2.1124,2.1337,2.1337,2.1337,2.1443,2.1443,2.1443,2.138,2.1328,2.1661,2.1451,2.0829,2.0539,2.0055,1.947,0.0,0.0,0.0,0.0,0.0,0.0,0.0,0.0,0.0,0.0,-0.5447,-0.5989,-0.6603,-0.7375,-0.7772,-0.7643,-0.7744,-0.7638,-0.7226,0.0,0.0,0.0,0.0,-0.7149,-0.7326,-0.7837,-0.8251,-0.8568,-0.8999,-0.8973,-0.8594,-0.875,-0.8528,-0.8045,-0.8201,-0.8269,-0.8282,-0.8425,-0.8384,-0.8174,-0.724,-0.6604,-0.6067,-0.5411,-0.5151,-0.492,-0.4686,-0.4442,-0.4235,-0.4235,0.0,0.0,0.0,0.0,0.0,0.0,0.0,0.0,0.0,0.0,0.0,0.0,0.0,0.0,0.0,0.0,0.0,0.0,0.0,0.0,0.0,0.0,0.0,0.0,0.113,0.1673,0.2031,0.2421,0.3063,0.3769,0.455,0.523,0.6088,0.6932,0.7756,0.8759,0.9622,1.061,1.1507,1.2646,1.3655,1.4562,1.5352,1.6194,1.735,1.7793,1.8294,1.8736,1.907,1.9237,1.9442,1.9757,1.999,0.0,2.0208,2.0208,2.0208,2.0208,2.0208,0.0,0.0,0.0,0.0,0.0,1.9623,1.8906,0.0,0.0,0.0,0.0,0.0,0.0,0.0,0.0,0.0,0.0,0.0,-0.5922,-0.6603,-0.7322,-0.7708,-0.7603,-0.7825,-0.7757,0.0,0.0,0.0,-0.6998,-0.7351,-0.7585,-0.7602,-0.8235,-0.8601,-0.8658,-0.9129,-0.918,-0.8624,-0.8758,-0.8528,-0.8045,-0.8214,-0.8296,-0.8303,-0.8465,-0.8526,-0.8486,-0.8004,-0.7349,-0.6673,-0.6122,-0.5769,-0.5382,-0.5159,-0.492,-0.4781,-0.477,0.0,0.0,0.0,0.0,0.0,0.0,0.0,0.0,0.0,0.0,0.0,0.0,0.0,0.0,0.0,0.0,0.0,0.0,0.0,0.0,0.0,0.0,0.0,0.0,0.0719,0.1402,0.1725,0.2124,0.265,0.3327,0.4032,0.4746,0.5748,0.6467,0.7296,0.8113,0.9065,0.9895,0.0,0.0,0.0,0.0,0.0,1.5077,1.6335,1.6914,1.7253,1.7346,1.7563,1.7667,1.7764,1.7987,1.821,1.8557,1.8766,1.8877,1.8877,1.8877,1.8877,1.8974,2.0237,2.0535,2.0208,1.999,1.9382,0.0,0.0,0.0,0.0,0.0,0.0,0.0,0.0,0.0,0.0,-0.4784,-0.5159,-0.5728,-0.6582,-0.7031,-0.7284,-0.748,-0.7593,-0.7663,0.0,0.0,-0.7693,-0.7856,-0.7912,-0.8119,-0.8341,-0.8495,-0.8779,-0.9202,-0.9307,-0.9332,-0.9083,-0.8916,-0.8627,-0.8343,-0.8426,-0.8438,-0.8459,-0.873,-0.8777,-0.8648,-0.8472,-0.7896,-0.7082,-0.6426,-0.5947,-0.5643,-0.5496,-0.529,-0.5072,-0.498,-0.4833,-0.4514,-0.4023,0.0,0.0,0.0,0.0,0.0,0.0,0.0,0.0,0.0,0.0,0.0,0.0,0.0,0.0,0.0,0.0,0.0,0.0,0.0,0.0,-0.0106,0.0112,0.07,0.1698,0.1955,0.2179,0.2472,0.3284,0.3989,0.4467,0.5471,0.635,0.6946,0.8108,0.9054,0.9781,1.0645,0.0,1.2871,1.3243,1.4052,1.5155,1.5387,1.5752,1.634,0.0,0.0,1.6716,1.6832,1.6821,1.6949,1.6949,1.7053,1.7053,1.7053,1.7053,1.7134,1.8624,1.9016,1.8809,1.8464,1.8092,1.7721,0.0,0.0,0.0,0.0,0.0,0.0,0.0,0.0,0.0,0.0,-0.5055,-0.5576,-0.6137,-0.6633,-0.6945,-0.7125,-0.734,0.0,0.0,-0.7815,-0.8022,-0.8228,-0.8286,-0.85,-0.8727,-0.8828,-0.9007,-0.9356,-0.9445,-0.9445,-0.9236,-0.8924,-0.8627,-0.8443,-0.8378,-0.8418,-0.8499,-0.8723,-0.8777,-0.8696,-0.8547,-0.804,-0.7308,-0.687,-0.6386,-0.5893,-0.5768,-0.5572,-0.536,-0.5306,-0.5127,-0.4828,-0.4333,-0.4008,-0.3741,0.0,0.0,0.0,0.0,0.0,0.0,0.0,0.0,0.0,0.0,0.0,0.0,0.0,0.0,-0.1786,0.0,0.0,-0.1288,-0.057,-0.0118,0.0244,0.0755,0.1526,0.2026,0.2105,0.2716,0.3455,0.4069,0.484,0.5481,0.6354,0.7266,0.8073,0.889,0.9651,1.0566,1.1649,1.2028,1.2741,1.4023,1.4023,1.446,1.5206,1.5206,1.5328,1.555,1.555,1.5671,1.5803,1.5803,1.5728,1.5731,1.5612,1.5569,1.5666,1.6345,1.7056,1.7412,1.7285,1.6984,1.6535,0.0,0.0,0.0,0.0,0.0,0.0,0.0,0.0,0.0,0.0,0.0,-0.5312,-0.5567,-0.6159,-0.6585,0.0,0.0,0.0,0.0,-0.7881,-0.8234,-0.8499,-0.8586,-0.8724,-0.9013,-0.9042,-0.9202,-0.9405,-0.9559,-0.9533,-0.9236,-0.9031,-0.8726,-0.8435,-0.8404,-0.844,-0.8452,-0.8601,-0.8669,-0.8655,-0.8499,-0.804,-0.7483,-0.7229,-0.6666,-0.6072,-0.5947,-0.5752,-0.5459,-0.5523,-0.5306,-0.4967,-0.455,-0.4199,-0.389,-0.3393,-0.3226,0.0,0.0,0.0,0.0,0.0,0.0,0.0,0.0,0.0,-0.2409,-0.2194,-0.2067,-0.1949,-0.178,-0.1745,-0.1591,-0.1081,-0.0494,-0.0,-0.0,0.091,0.1693,0.1952,0.233,0.2837,0.3868,0.4251,0.4894,0.5793,0.6434,0.7217,0.7884,0.8648,0.955,1.0472,1.0856,1.1606,1.2843,1.2843,1.3204,1.3806,1.3806,1.3922,1.4163,1.4163,1.4413,1.4673,1.4673,1.4566,1.4382,1.4178,1.4091,1.4091,1.4043,1.4619,1.5558,1.5795,1.5686,1.53,0.0,0.0,0.0,0.0,0.0,0.0,0.0,0.0,0.0,0.0,0.0,0.0,0.0,0.0,0.0,0.0,0.0,0.0,0.0,-0.7957,-0.8356,-0.89,-0.8737,-0.8845,-0.9292,-0.9165,-0.9259,-0.96,-0.9616,-0.9624,-0.9525,-0.9236,-0.9031,-0.8733,-0.87,-0.848,-0.8303,-0.8445,-0.8506,-0.8492,-0.835,-0.8004,-0.7553,-0.7192,-0.6666,-0.6072,-0.5947,-0.5752,-0.5534,-0.5426,-0.529,-0.5068,-0.457,-0.4299,-0.4199,-0.3659,0.0,-0.3332,-0.3388,-0.31,0.0,-0.2596,-0.2649,-0.2752,0.0,0.0,-0.292,-0.2433,-0.2384,-0.2348,-0.1916,-0.187,-0.1924,-0.1842,-0.0765,-0.0,-0.0,0.0133,0.067,0.1876,0.2097,0.2451,0.3097,0.3739,0.4383,0.4772,0.5668,0.6472,0.6945,0.7992,0.8824,0.9726,1.0135,1.0733,1.163,1.163,1.1939,1.2422,1.2422,1.243,1.2422,1.2422,1.2548,1.2548,1.2548,1.254,1.2507,1.2316,1.2242,1.2225,1.1817,1.1752,1.2105,1.3545,1.4004,1.3875,0.0,0.0,0.0,0.0,0.0,0.0,0.0,0.0,0.0,0.0,0.0,0.0,0.0,0.0,0.0,0.0,0.0,0.0,-0.7317,-0.7722,-0.8278,-0.896,-0.8864,-0.8989,-0.9474,-0.93,-0.9299,-0.947,-0.947,-0.9527,-0.9624,-0.9335,-0.9137,-0.9031,-0.8707,-0.8484,-0.848,-0.8433,-0.8357,-0.8343,-0.8194,-0.7846,-0.7388,-0.6982,-0.6465,-0.6054,-0.5822,-0.5648,0.0,0.0,-0.529,-0.5175,-0.4813,-0.4565,-0.4308,-0.3869,-0.3689,0.0,-0.3414,0.0,0.0,0.0,-0.2926,-0.3025,-0.3158,-0.327,-0.3171,-0.2629,-0.2553,-0.2483,-0.1997,-0.1928,-0.1973,0.0,-0.1554,-0.0925,-0.0133,-0.0,0.0269,0.0808,0.1199,0.1851,0.2514,0.3173,0.3833,0.4364,0.502,0.5694,0.6527,0.7057,0.774,0.8717,0.9123,0.9624,1.0353,1.0622,1.0988,1.1315,1.1315,1.1315,1.1315,1.1315,1.1315,1.1308,1.1213,1.117,1.1155,1.0995,1.0796,1.0531,1.0369,1.019,1.0176,1.1542,1.1985,1.1985,0.0,0.0,0.0,0.0,0.0,0.0,0.0,0.0,0.0,0.0,0.0,0.0,0.0,0.0,0.0,0.0,0.0,0.0,0.0,-0.7436,-0.8061,-0.8902,-0.8843,0.0,-0.9366,-0.9195,-0.92,-0.9283,-0.9283,-0.9348,-0.9478,-0.9291,-0.9088,-0.9088,-0.8691,-0.847,-0.8478,-0.8279,-0.8185,-0.8079,-0.7963,-0.7704,-0.7214,-0.6725,-0.6256,-0.5964,-0.5659,-0.5447,0.0,0.0,-0.5137,-0.5045,-0.4846,-0.456,-0.4264,-0.4015,-0.3942,-0.3834,-0.3581,0.0,0.0,-0.3376,-0.3293,-0.3281,-0.3447,-0.3529,-0.3377,-0.2898,-0.2799,-0.2586,-0.2055,-0.1969,0.0,-0.2056,-0.209,-0.1723,-0.0537,-0.0135,-0.0,-0.0,0.0673,0.1346,0.2154,0.2692,0.3365,0.3902,0.444,0.4977,0.5781,0.6321,0.6857,0.7655,0.8056,0.859,0.9117,0.9522,0.9921,1.0319,1.0319,1.0459,1.0459,1.0319,1.0187,1.0047,0.9946,0.9895,0.9882,0.9742,0.9429,0.9032,0.8896,0.8591,0.8455,0.9186,0.9727,1.0058,0.0,0.0,0.0,0.0,0.0,0.0,0.0,0.0,0.0,0.0,0.0,0.0,0.0,0.0,0.0,0.0,0.0,0.0,0.0,-0.7293,-0.7844,-0.8675,-0.8493,-0.864,-0.9157,-0.9007,-0.9016,-0.9104,-0.9104,-0.9104,-0.9112,-0.9112,-0.8917,-0.8722,-0.8722,-0.8449,-0.7893,-0.7893,-0.7806,-0.7617,-0.7617,-0.7434,-0.7068,-0.6612,-0.6195,-0.5683,-0.5325,0.0,0.0,0.0,-0.4768,-0.4686,-0.4582,-0.4392,0.0,-0.4161,-0.4189,-0.4197,0.0,0.0,-0.3774,-0.3858,-0.3656,-0.3518,-0.3643,-0.3717,-0.3661,-0.3,-0.2889,-0.2661,-0.2092,-0.1999,-0.2027,-0.2059,-0.222,-0.1987,-0.1209,-0.0404,-0.0,-0.0,0.0673,0.1346,0.0,0.2559,0.2827,0.3228,0.3902,0.4308,0.4308,0.5781,0.6455,0.6585,0.7125,0.7794,0.8189,0.8456,0.8851,0.9117,0.9522,0.9794,0.9661,0.9383,0.8984,0.8723,0.8717,0.8717,0.8706,0.8448,0.8269,0.7867,0.7369,0.6942,0.6668,0.6324,0.7098,0.8355,0.0,0.0,0.0,0.0,0.0,0.0,0.0,0.0,0.0,0.0,0.0,0.0,0.0,0.0,0.0,0.0,0.0,0.0,0.0,-0.6837,-0.7426,-0.8061,-0.8281,-0.8539,-0.8837,-0.8682,-0.8615,-0.8736,-0.8648,-0.8625,-0.8747,-0.8861,-0.8818,-0.8726,-0.8753,-0.852,-0.8146,-0.7852,-0.7625,-0.7434,-0.7238,-0.7034,-0.6739,-0.6299,-0.5833,-0.5347,0.0,0.0,0.0,0.0,0.0,-0.4567,-0.4694,-0.4458,-0.4227,-0.4159,-0.4251,-0.423,0.0,0.0,-0.3993,-0.4019,-0.383,-0.3698,-0.3779,-0.3845,-0.3641,-0.3017,-0.2893,-0.2648,-0.2038,-0.1958,-0.1994,-0.2004,-0.2064,-0.2113,-0.1857,-0.0803,-0.0,-0.0,0.0269,0.0,0.0,0.0,0.0,0.2827,0.3365,0.3768,0.4308,0.4711,0.5245,0.5785,0.6455,0.6857,0.6987,0.766,0.7922,0.8056,0.8195,0.8195,0.8195,0.7922,0.765,0.7522,0.7254,0.7121,0.7116,0.7084,0.6801,0.6527,0.6043,0.5617,0.5346,0.4884,0.4969,0.5564,0.0,0.0,0.0,0.0,0.0,0.0,0.0,0.0,0.0,0.0,0.0,0.0,0.0,0.0,0.0,0.0,0.0,0.0,0.0,0.0,-0.699,-0.7428,-0.7777,-0.8112,-0.8304,-0.8228,-0.8182,-0.8246,-0.8164,-0.8147,-0.8187,-0.8357,-0.8438,-0.8446,-0.8448,-0.8341,-0.8065,-0.7636,-0.7396,-0.7121,-0.679,-0.6566,-0.6356,-0.5937,-0.5438,0.0,0.0,0.0,0.0,0.0,0.0,-0.4393,-0.4681,-0.4584,-0.4391,-0.4304,-0.4328,-0.4516,-0.4645,-0.4396,-0.4213,-0.4322,-0.4094,-0.3812,-0.385,-0.3891,-0.3778,-0.3118,-0.2975,-0.2723,-0.2122,-0.2028,-0.1939,-0.1971,-0.2033,-0.2084,-0.2238,-0.1334,-0.0539,-0.0,-0.0,0.0,0.0,0.0,0.0,0.2559,0.2827,0.323,0.377,0.4039,0.4577,0.498,0.5781,0.6053,0.6053,0.6585,0.6987,0.7125,0.7125,0.7009,0.6905,0.6766,0.6652,0.6409,0.6107,0.5825,0.5822,0.5658,0.551,0.5104,0.4793,0.451,0.4237,0.3919,0.3769,0.3883,0.0,0.0,0.0,0.0,0.0,0.0,0.0,0.0,0.0,0.0,0.0,0.0,0.0,0.0,0.0,0.0,0.0,0.0,0.0,0.0,0.0,-0.6726,-0.7002,-0.7325,-0.7654,-0.7663,-0.7645,-0.7668,-0.7668,-0.7584,-0.7431,-0.7618,-0.7707,-0.7724,-0.7894,-0.782,-0.7655,-0.7228,-0.6922,-0.6748,-0.6352,-0.6037,-0.5766,-0.5558,0.0,0.0,0.0,0.0,0.0,0.0,0.0,0.0,0.0,-0.4686,-0.4667,-0.4435,-0.4504,-0.4773,-0.5047,-0.4811,-0.4425,-0.4763,-0.434,-0.3861,-0.3861,-0.3856,-0.3834,-0.3418,-0.3014,-0.2649,0.0,0.0,-0.1866,-0.1954,-0.1994,-0.2037,-0.2228,-0.2132,-0.1615,0.0,0.0,0.0,0.0,0.0,0.0,0.2162,0.0,0.2699,0.2699,0.364,0.4176,0.4311,0.498,0.5383,0.5383,0.5647,0.6049,0.6317,0.6321,0.6234,0.5902,0.5906,0.5812,0.5464,0.4977,0.4809,0.4801,0.4465,0.4037,0.3768,0.3768,0.3633,0.3492,0.345,0.3169,0.3157,0.0,0.0,0.0,0.0,0.0,0.0,0.0,0.0,0.0,0.0,0.0,0.0,0.0,0.0,0.0,0.0,0.0,0.0,0.0,0.0,0.0,0.0,0.0,0.0,0.0,0.0,0.0,0.0,0.0,-0.6821,-0.6692,-0.6879,-0.7033,-0.7237,-0.7342,-0.7342,-0.7211,-0.6761,-0.6493,-0.625,0.0,-0.5474,-0.5304,0.0,0.0,0.0,0.0,0.0,0.0,0.0,0.0,0.0,0.0,-0.4542,-0.4706,-0.4614,-0.4643,-0.4875,-0.5218,-0.4942,-0.4491,-0.4777,-0.434,-0.3861,-0.3861,-0.379,-0.3593,-0.3188,-0.2914,-0.2541,0.0,0.0,0.0,-0.1838,-0.1924,0.0,-0.2037,-0.2087,0.0,0.0,0.0,-0.0,-0.0,0.0279,0.0,0.0,0.2222,0.25,0.2776,0.3025,0.3281,0.3552,0.3922,0.4305,0.4577,0.5245,0.5513,0.5651,0.5437,0.5198,0.5218,0.4719,0.4332,0.4345,0.3911,0.3744,0.3981,0.383,0.3668,0.3367,0.3367,0.3367,0.3096,0.1474,0.0803,0.0801,0.0,0.0,0.0,0.0,0.0,0.0,0.0,0.0,0.0,0.0,0.0,0.0,0.0,0.0,0.0,0.0,0.0,0.0,0.0,0.0,0.0,0.0,0.0,0.0,0.0,0.0,0.0,0.0,0.0,0.0,0.0,-0.614,-0.6319,-0.6489,-0.6676,-0.6784,-0.6785,-0.6302,0.0,0.0,0.0,0.0,0.0,0.0,0.0,0.0,0.0,0.0,0.0,0.0,0.0,-0.471,-0.452,-0.4624,-0.4821,-0.4693,0.0,-0.5026,-0.5349,-0.5069,-0.4722,-0.4841,-0.4361,-0.3847,-0.3793,-0.3687,-0.3575,-0.327,-0.287,0.0,0.0,0.0,0.0,0.0,0.0,0.0,-0.2011,-0.2071,-0.1999,0.0,-0.0687,0.0,-0.0,-0.0,0.0284,0.0,0.0,0.2245,0.2524,0.2506,0.2627,0.3025,0.3409,0.3656,0.3768,0.4171,0.444,0.444,0.4229,0.4269,0.4298,0.3797,0.3831,0.3852,0.0,0.3379,0.3494,0.2779,0.22,0.1767,0.1767,0.176,0.1616,0.0404,-0.0404,-0.0941,0.0,0.0,0.0,0.0,0.0,0.0,0.0,0.0,0.0,0.0,0.0,0.0,0.0,0.0,0.0,0.0,0.0,0.0,0.0,0.0,0.0,0.0,0.0,0.0,0.0,0.0,0.0,0.0,0.0,0.0,0.0,0.0,0.0,0.0,0.0,0.0,0.0,0.0,0.0,0.0,0.0,0.0,0.0,0.0,0.0,0.0,0.0,0.0,0.0,0.0,-0.4539,-0.4746,-0.47,-0.4779,-0.5022,-0.4847,-0.4973,-0.5169,-0.5451,-0.5174,-0.4824,-0.4899,-0.437,-0.3923,-0.3681,-0.3548,-0.3417,-0.3308,0.0,-0.2631,-0.2477,0.0,-0.1938,-0.1821,0.0,-0.1899,-0.1989,-0.2057,-0.2123,-0.2192,-0.1102,-0.0279,-0.0143,-0.0144,-0.0144,-0.0,0.1286,0.2117,0.2117,0.2252,0.2374,0.2614,0.3023,0.3139,0.3094,0.3094,0.3232,0.3238,0.3285,0.333,0.3375,0.3278,0.3463,0.3646,0.0,0.0,0.2857,0.1554,0.0558,-0.0138,-0.0276,-0.0273,-0.027,-0.0405,-0.1213,-0.2425,0.0,0.0,0.0,0.0,0.0,0.0,0.0,0.0,0.0,0.0,-0.3684,-0.3643,0.0,0.0,0.0,0.0,0.0,0.0,0.0,0.0,0.0,0.0,0.0,0.0,0.0,0.0,0.0,0.0,0.0,0.0,0.0,0.0,0.0,0.0,0.0,0.0,0.0,0.0,0.0,0.0,0.0,0.0,0.0,0.0,0.0,0.0,0.0,0.0,0.0,0.0,-0.4539,-0.4762,-0.4792,-0.4886,-0.5037,-0.4943,-0.5022,-0.5181,-0.5529,-0.5412,-0.5101,-0.4821,-0.4503,-0.4023,-0.3667,-0.336,0.0,0.0,0.0,-0.2556,-0.2474,-0.2263,0.0,-0.1896,0.0,0.0,0.0,0.0,-0.2075,0.0,0.0,0.0,0.0,0.0,0.0,0.0,0.0,0.0,0.1449,0.2009,0.2258,0.2339,0.2338,0.2322,0.2423,0.2963,0.3251,0.3149,0.3194,0.3239,0.328,0.2747,0.2477,0.2481,0.0,0.0,0.0572,0.0285,-0.0283,-0.0978,-0.1538,-0.1802,-0.1918,-0.2192,-0.2585,-0.2828,0.0,0.0,0.0,0.0,0.0,0.0,0.0,-0.3768,-0.3887,-0.4137,-0.4193,-0.4129,-0.3889,-0.392,-0.3982,0.0,0.0,0.0,0.0,0.0,0.0,0.0,0.0,0.0,0.0,0.0,0.0,0.0,0.0,0.0,0.0,0.0,0.0,0.0,0.0,0.0,0.0,0.0,0.0,0.0,0.0,0.0,0.0,0.0,0.0,0.0,0.0,0.0,0.0,0.0,-0.4485,-0.4767,-0.4811,-0.4952,-0.5133,-0.5082,-0.5071,-0.5235,-0.55,-0.5377,-0.5072,-0.4871,-0.4419,-0.3939,-0.3588,0.0,0.0,0.0,-0.2727,-0.2475,-0.2389,0.0,0.0,0.0,0.0,0.0,0.0,0.0,0.0,0.0,0.0,0.0,0.0,0.0,0.0,0.0,0.0,0.0,0.0,0.1298,0.1708,0.1686,0.1674,0.1663,0.1651,0.1927,0.207,0.2083,0.2113,0.2133,0.2147,0.145,0.1167,0.1022,0.0,0.0,-0.0723,-0.1012,-0.1578,-0.2267,-0.255,-0.2671,-0.2916,-0.3057,-0.3168,-0.3129,0.0,0.0,0.0,0.0,0.0,0.0,0.0,-0.3965,-0.4205,-0.4545,-0.4656,-0.4608,-0.4255,-0.4127,-0.4141,0.0,0.0,0.0,0.0,0.0,0.0,0.0,0.0,0.0,0.0,0.0,0.0,0.0,0.0,0.0,0.0,0.0,0.0,0.0,0.0,0.0,0.0,0.0,0.0,0.0,0.0,0.0,0.0,0.0,0.0,0.0,0.0,0.0,0.0,0.0,-0.4404,-0.4758,-0.4797,-0.5008,-0.526,-0.5065,-0.5071,-0.5255,-0.5431,-0.5319,-0.5148,-0.478,-0.4432,-0.3951,-0.3473,-0.3245,0.0,0.0,-0.2629,-0.2466,-0.2225,0.0,0.0,0.0,0.0,0.0,0.0,0.0,0.0,0.0,0.0,0.0,0.0,0.0,0.0,0.0,0.0,0.0,0.0,0.0434,0.1005,0.1002,0.085,0.0844,0.0842,0.0842,0.0702,0.0423,0.0427,0.043,0.0575,-0.0,-0.0292,-0.0438,0.0,0.0,0.0,-0.2335,-0.29,-0.316,-0.316,-0.3276,-0.352,-0.3661,-0.363,-0.3723,0.0,0.0,0.0,0.0,0.0,0.0,0.0,-0.4233,-0.4557,-0.5067,-0.5152,-0.5084,-0.4911,-0.4581,-0.436,0.0,0.0,0.0,0.0,0.0,0.0,0.0,0.0,0.0,0.0,0.0,0.0,0.0,0.0,0.0,0.0,0.0,0.0,0.0,0.0,0.0,0.0,0.0,0.0,0.0,0.0,0.0,0.0,0.0,0.0,0.0,0.0,0.0,0.0,0.0,0.0,-0.4567,-0.4635,-0.486,-0.5153,-0.5165,0.0,0.0,-0.5345,-0.5455,-0.5386,-0.4972,-0.4611,-0.4103,-0.3625,0.0,0.0,-0.2561,-0.2441,-0.2286,-0.2286,-0.2376,0.0,0.0,0.0,0.0,0.0,0.0,0.0,0.0,0.0,0.0,0.0,0.0,0.0,0.0,0.0,0.0,0.0,0.0,0.0145,0.0143,0.0143,0.0142,0.014,0.014,-0.0564,-0.2001,-0.2003,-0.1584,-0.102,-0.1021,-0.146,-0.2191,0.0,0.0,0.0,-0.3502,-0.3646,-0.3494,-0.3494,-0.3609,-0.3994,-0.4422,-0.467,-0.5026,0.0,0.0,0.0,0.0,0.0,0.0,-0.4067,-0.4269,-0.4545,-0.4922,-0.497,-0.4892,-0.4781,-0.4568,-0.4426,-0.435,0.0,0.0,0.0,0.0,0.0,0.0,0.0,0.0,0.0,0.0,0.0,0.0,0.0,0.0,0.0,0.0,0.0,0.0,0.0,0.0,0.0,0.0,0.0,0.0,0.0,0.0,0.0,0.0,0.0,0.0,0.0,0.0,0.0,0.0,0.0,0.0,-0.4544,-0.4658,0.0,0.0,-0.486,-0.4973,-0.51,-0.5198,-0.5138,-0.4729,-0.4479,-0.41,-0.3509,0.0,0.0,-0.2482,-0.2362,-0.221,-0.221,-0.2319,-0.2326,0.0,0.0,0.0,0.0,0.0,0.0,0.0,0.0,0.0,0.0,0.0,0.0,0.0,0.0,0.0,0.0,0.0,-0.1165,-0.0724,-0.0724,-0.0722,-0.0718,-0.0718,-0.1009,-0.1593,-0.2028,-0.2179,-0.1898,-0.2189,-0.248,-0.2773,0.0,0.0,0.0,-0.3502,-0.3937,-0.4228,-0.4228,-0.4504,-0.506,-0.5204,-0.5447,-0.5524,0.0,0.0,0.0,0.0,0.0,-0.3817,-0.4067,-0.4285,-0.4533,-0.4885,-0.4922,-0.4889,-0.4778,-0.4691,-0.457,-0.4426,-0.435,0.0,0.0,0.0,0.0,0.0,0.0,0.0,0.0,0.0,0.0,-0.3709,0.0,0.0,0.0,0.0,0.0,0.0,0.0,0.0,0.0,0.0,0.0,0.0,0.0,0.0,0.0,0.0,0.0,0.0,0.0,0.0,0.0,0.0,0.0,0.0,0.0,0.0,0.0,0.0,-0.4716,-0.4769,-0.4834,-0.4941,-0.4902,-0.4614,-0.4365,-0.4095,0.0,0.0,0.0,-0.2445,-0.2262,-0.2191,-0.2191,-0.2204,-0.2275,-0.2455,0.0,-0.2497,0.0,0.0,0.0,0.0,0.0,0.0,0.0,0.0,0.0,0.0,0.0,0.0,0.0,0.0,-0.2335,-0.1605,-0.146,-0.146,-0.146,-0.146,-0.1606,-0.1751,-0.2335,-0.2627,-0.2627,-0.3063,-0.3209,0.0,0.0,0.0,0.0,-0.3937,-0.4374,-0.4956,-0.4956,-0.5392,-0.5974,-0.6119,-0.6224,-0.6316,0.0,0.0,0.0,0.0,0.0,0.0,-0.4067,-0.4341,-0.4655,-0.5128,-0.5201,-0.5201,-0.5201,-0.5027,-0.4785,-0.4513,-0.4382,0.0,0.0,0.0,0.0,0.0,0.0,0.0,0.0,0.0,-0.3709,-0.3709,-0.3699,-0.369,0.0,0.0,0.0,0.0,0.0,0.0,0.0,0.0,0.0,0.0,0.0,0.0,0.0,0.0,0.0,0.0,0.0,0.0,0.0,0.0,0.0,0.0,0.0,0.0,0.0,0.0,-0.4648,-0.4577,-0.4577,-0.4704,-0.4818,-0.4732,-0.4383,-0.4002,0.0,0.0,0.0,-0.2467,-0.2241,-0.213,-0.213,-0.218,-0.2213,-0.2392,-0.2575,-0.2777,-0.3016,0.0,0.0,0.0,0.0,0.0,0.0,0.0,0.0,0.0,0.0,0.0,0.0,0.0,-0.3063,-0.2333,-0.2335,-0.2337,-0.2337,-0.2337,-0.2627,-0.3063,-0.3063,-0.3209,-0.35,-0.35,0.0,0.0,0.0,0.0,0.0,-0.5101,-0.5392,-0.5825,-0.5825,-0.5974,-0.6413,-0.6845,-0.7276,-0.7553,0.0,0.0,0.0,0.0,0.0,0.0,0.0,-0.4217,-0.4519,-0.4642,-0.4824,-0.4934,-0.4934,-0.4736,-0.4581,-0.4502,-0.4382,0.0,0.0,0.0,0.0,0.0,0.0,0.0,0.0,0.0,-0.3906,-0.3906,-0.3894,-0.3917,-0.3917,-0.373,-0.3598,0.0,0.0,0.0,0.0,0.0,0.0,0.0,0.0,0.0,0.0,0.0,0.0,0.0,0.0,0.0,0.0,0.0,0.0,0.0,0.0,0.0,0.0,-0.3989,0.0,0.0,-0.4206,-0.4336,-0.4447,-0.4365,-0.4118,-0.3863,-0.3637,0.0,0.0,-0.2437,-0.2268,-0.2139,-0.2119,-0.2144,-0.215,-0.2332,-0.2477,-0.2681,0.0,0.0,0.0,0.0,0.0,0.0,0.0,0.0,0.0,0.0,0.0,0.0,0.0,0.0,0.0,-0.3063,-0.3063,-0.3065,-0.3065,-0.3065,-0.321,-0.3354,-0.3354,-0.3354,-0.35,-0.4083,0.0,0.0,0.0,0.0,0.0,-0.5538,-0.5829,-0.6264,-0.6555,-0.6841,-0.728,-0.757,-0.786,-0.8,0.0,0.0,0.0,0.0,0.0,0.0,0.0,-0.4005,-0.4227,-0.4269,-0.4399,-0.4545,-0.4654,-0.4499,-0.442,-0.4479,-0.4382,0.0,0.0,0.0,0.0,0.0,0.0,0.0,-0.3765,-0.3931,-0.4,-0.4,-0.4054,-0.4108,-0.4108,-0.392,-0.3785,-0.3679,-0.3549,0.0,0.0,0.0,0.0,0.0,0.0,0.0,-0.3398,0.0,0.0,0.0,0.0,0.0,0.0,0.0,0.0,0.0,0.0,0.0,0.0,0.0,-0.3539,0.0,0.0,-0.3985,-0.4083,-0.403,-0.3908,0.0,0.0,0.0,0.0,-0.2553,-0.2407,-0.2296,-0.2148,-0.2197,-0.2225,-0.2338,-0.2488,-0.2689,0.0,0.0,0.0,0.0,0.0,0.0,0.0,0.0,0.0,0.0,0.0,0.0,0.0,0.0,0.0,-0.3937,-0.3646,-0.35,-0.35,-0.35,-0.3646,-0.3791,-0.3937,-0.4083,-0.4228,0.0,0.0,0.0,0.0,0.0,0.0,-0.5974,-0.641,-0.6845,-0.7135,-0.7425,-0.786,-0.815,-0.844,-0.8584,0.0,0.0,0.0,0.0,0.0,0.0,0.0,-0.3728,-0.3793,-0.4055,-0.4039,-0.4095,-0.4363,-0.4258,-0.4244,-0.4445,0.0,0.0,0.0,0.0,0.0,0.0,0.0,0.0,-0.3916,-0.3985,-0.4028,-0.4047,-0.4262,-0.4335,-0.4335,-0.4136,-0.4045,-0.402,-0.3679,-0.3436,0.0,0.0,0.0,0.0,0.0,0.0,0.0,0.0,0.0,0.0,0.0,0.0,0.0,0.0,0.0,0.0,0.0,0.0,0.0,0.0,0.0,0.0,0.0,-0.3654,0.0,0.0,0.0,0.0,0.0,0.0,0.0,0.0,0.0,-0.2468,-0.2287,-0.2335,-0.242,-0.2464,-0.2653,-0.2863,0.0,0.0,0.0,0.0,0.0,0.0,0.0,0.0,0.0,0.0,0.0,0.0,0.0,0.0,0.0,0.0,-0.4083,-0.3646,-0.3646,-0.3646,-0.3791,-0.4226,-0.4662,-0.4956,-0.525,0.0,0.0,0.0,0.0,0.0,0.0,-0.6559,-0.699,-0.7566,-0.7711,-0.7856,-0.815,-0.8584,-0.9018,-0.9446,0.0,0.0,0.0,0.0,0.0,0.0,0.0,0.0,0.0,0.0,-0.3954,-0.4076,-0.4083,-0.3986,-0.398,0.0,0.0,0.0,0.0,0.0,0.0,0.0,0.0,0.0,-0.4142,-0.425,-0.4366,-0.4517,-0.4769,-0.4879,-0.4735,-0.4645,-0.4479,-0.4207,-0.3988,-0.3621,0.0,0.0,0.0,0.0,0.0,0.0,0.0,0.0,0.0,0.0,-0.2954,-0.2909,0.0,0.0,0.0,0.0,0.0,0.0,0.0,0.0,-0.3015,-0.2951,-0.3118,0.0,-0.353,-0.353,-0.3442,-0.3422,0.0,0.0,0.0,0.0,0.0,0.0,0.0,-0.2563,-0.2692,-0.284,-0.3054,-0.3312,0.0,0.0,0.0,0.0,0.0,0.0,0.0,0.0,0.0,0.0,0.0,0.0,0.0,0.0,0.0,0.0,-0.5389,-0.5101,-0.481,-0.5101,-0.5244,-0.5389,-0.5535,-0.5535,-0.5683,0.0,0.0,0.0,0.0,0.0,-0.7276,-0.757,-0.786,-0.8005,-0.8295,-0.844,-0.8584,-0.9302,-0.9735,-0.9879,0.0,0.0,0.0,0.0,0.0,0.0,0.0,0.0,0.0,0.0,0.0,0.0,0.0,0.0,0.0,0.0,0.0,0.0,0.0,0.0,0.0,0.0,0.0,-0.4071,-0.4257,-0.4327,-0.4547,-0.4852,-0.5006,-0.5067,-0.5053,-0.4957,-0.4713,-0.4386,-0.4134,-0.37,0.0,0.0,0.0,0.0,0.0,0.0,0.0,0.0,0.0,0.0,-0.2954,-0.2909,0.0,-0.2909,-0.2908,-0.2963,0.0,0.0,0.0,0.0,-0.283,-0.2815,-0.2801,-0.303,-0.3251,-0.323,-0.3238,-0.325,-0.3291,0.0,0.0,0.0,0.0,0.0,0.0,0.0,0.0,0.0,-0.3398,0.0,0.0,0.0,0.0,0.0,0.0,0.0,0.0,0.0,0.0,0.0,0.0,0.0,0.0,0.0,0.0,0.0,0.0,-0.5829,-0.5538,-0.5683,-0.5825,-0.5825,-0.5974,-0.6119,-0.6406,0.0,0.0,0.0,0.0,0.0,-0.7925,-0.8071,-0.8397,-0.8582,-0.8972,-0.9243,-0.9378,-0.9902,-1.0311,-1.0462,0.0,0.0,0.0,0.0,0.0,0.0,0.0,0.0,0.0,0.0,0.0,0.0,0.0,0.0,0.0,0.0,0.0,0.0,0.0,0.0,0.0,0.0,-0.4155,-0.4155,-0.4342,-0.4451,-0.469,-0.5037,-0.5181,-0.5241,-0.5255,-0.5155,-0.4889,-0.4485,-0.4132,-0.3715,0.0,0.0,0.0,0.0,-0.3082,0.0,0.0,0.0,0.0,0.0,0.0,0.0,0.0,-0.2909,-0.2909,-0.2909,-0.2909,0.0,0.0,0.0,0.0,0.0,-0.2658,-0.2797,-0.3018,-0.3046,-0.3079,-0.3115,-0.3205,0.0,0.0,0.0,0.0,0.0,0.0,0.0,0.0,0.0,0.0,0.0,0.0,0.0,0.0,0.0,0.0,0.0,0.0,0.0,0.0,0.0,0.0,0.0,0.0,0.0,0.0,0.0,0.0,0.0,-0.6116,-0.6116,-0.6116,-0.6116,-0.641,-0.6845,-0.7135,-0.7566,0.0,0.0,0.0,0.0,-0.845,-0.845,-0.881,-0.935,-0.953,-0.9781,-1.0205,-1.0504,-1.075,-1.1044,0.0,0.0,0.0,0.0,0.0,0.0,0.0,0.0,0.0,0.0,0.0,0.0,0.0,0.0,0.0,0.0,0.0,0.0,0.0,0.0,0.0,-0.4318,-0.4379,-0.4449,-0.4563,-0.4892,-0.513,-0.5245,-0.5623,-0.5677,-0.5457,-0.5448,-0.5114,-0.4485,-0.4132,-0.3778,-0.3429,-0.3286,-0.3169,-0.3082,-0.3082,0.0,0.0,0.0,0.0,0.0,0.0,0.0,0.0,-0.2909,-0.2909,-0.2909,-0.2909,0.0,0.0,0.0,0.0,0.0,-0.2746,-0.2863,-0.2981,-0.3013,-0.3034,-0.3115,-0.3205,0.0,0.0,0.0,0.0,0.0,0.0,0.0,0.0,0.0,0.0,0.0,0.0,0.0,0.0,0.0,0.0,0.0,0.0,0.0,0.0,0.0,0.0,0.0,0.0,0.0,0.0,0.0,0.0,0.0,0.0,-0.7276,-0.7276,-0.7276,-0.7715,-0.7865,-0.786,-0.8005,-0.8005,0.0,0.0,-0.8644,-0.8897,-0.9192,-0.9706,-1.0105,-0.9979,-1.0222,-1.0645,-1.0806,-1.09,-1.1044,0.0,0.0,0.0,0.0,0.0,0.0,0.0,0.0,0.0,0.0,0.0,0.0,0.0,0.0,0.0,0.0,0.0,0.0,0.0,0.0,-0.4186,-0.4307,-0.4538,-0.4634,-0.4623,-0.5012,-0.5266,-0.5462,-0.5765,-0.5816,-0.565,-0.5285,-0.494,-0.467,-0.4313,-0.3922,-0.3475,-0.3399,-0.3205,-0.3005,0.0,0.0,0.0,0.0,0.0,0.0,0.0,0.0,0.0,0.0,-0.2854,-0.2909,-0.2909,0.0,0.0,0.0,0.0,0.0,-0.2782,-0.298,-0.315,-0.3179,-0.3159,-0.3189,-0.3279,0.0,0.0,0.0,0.0,0.0,0.0,0.0,0.0,0.0,0.0,0.0,0.0,0.0,0.0,0.0,0.0,0.0,0.0,0.0,0.0,0.0,0.0,0.0,0.0,0.0,0.0,0.0,0.0,0.0,0.0,-0.7944,-0.806,-0.7778,-0.7921,-0.8208,-0.8351,-0.8351,-0.8524,0.0,0.0,-0.9518,-0.9787,-1.015,-1.0404,-1.066,-1.0822,-1.0922,-1.1186,-1.1556,-1.1763,-1.2043,0.0,0.0,0.0,0.0,0.0,0.0,0.0,0.0,0.0,0.0,0.0,0.0,0.0,0.0,0.0,0.0,0.0,0.0,0.0,0.0,-0.4075,-0.4188,-0.4577,-0.4747,-0.4623,-0.507,-0.5421,-0.5613,-0.5859,-0.5908,-0.5782,-0.5132,-0.48,-0.4792,-0.4434,-0.4017,-0.3535,-0.3497,-0.3293,-0.2957,0.0,0.0,0.0,0.0,0.0,0.0,0.0,0.0,0.0,0.0,0.0,0.0,0.0,0.0,0.0,-0.2776,-0.2892,-0.3024,-0.2873,-0.3125,-0.3375,-0.3371,-0.3292,-0.333,-0.3397,-0.3495,0.0,0.0,0.0,0.0,0.0,0.0,0.0,0.0,0.0,0.0,0.0,0.0,0.0,0.0,0.0,0.0,0.0,0.0,0.0,0.0,0.0,0.0,0.0,0.0,0.0,0.0,0.0,0.0,0.0,-0.8459,-0.8419,-0.8135,-0.8252,-0.852,-0.8802,-0.8802,-0.9292,-0.9982,-0.9982,-1.0215,-1.0663,-1.0773,-1.0895,-1.1157,-1.132,-1.1541,-1.1777,-1.2135,-1.2617,-1.2896,0.0,0.0,0.0,0.0,0.0,0.0,0.0,0.0,0.0,0.0,0.0,0.0,0.0,0.0,0.0,0.0,0.0,0.0,0.0,0.0,-0.3968,-0.3919,-0.4492,-0.4747,-0.4623,-0.5365,-0.5722,-0.5613,-0.601,-0.6055,-0.5782,-0.5132,-0.48,-0.4792,-0.4434,-0.4081,-0.3686,-0.3542,-0.3352,-0.3093,-0.2964,0.0,0.0,0.0,0.0,0.0,0.0,0.0,0.0,0.0,0.0,0.0,0.0,0.0,-0.2909,-0.2865,-0.3034,-0.3168,-0.3024,-0.3294,-0.3655,-0.358,-0.3558,0.0,-0.3548,-0.3679,0.0,-0.3859,0.0,0.0,0.0,0.0,0.0,0.0,0.0,0.0,0.0,0.0,0.0,0.0,0.0,0.0,0.0,0.0,0.0,0.0,0.0,0.0,0.0,0.0,0.0,0.0,0.0,0.0,0.0,-0.885,-0.8844,-0.8414,-0.9154,-0.9382,-0.9382,-0.9793,-1.0004,-1.0137,-1.0137,-1.0275,-1.0657,-1.0669,-1.0903,-1.1463,-1.161,-1.2198,-1.2639,-1.276,-1.3039,-1.3325,0.0,0.0,0.0,0.0,0.0,0.0,0.0,0.0,0.0,0.0,0.0,0.0,0.0,0.0,0.0,0.0,0.0,0.0,0.0,-0.3659,-0.3832,-0.3898,-0.4412,-0.4661,-0.4585,-0.5395,-0.5751,-0.5613,-0.5818,-0.5909,-0.5782,-0.5132,-0.48,-0.4792,-0.4434,-0.4089,-0.3708,-0.355,-0.3308,-0.2978,-0.2829,-0.2801,0.0,0.0,0.0,0.0,0.0,0.0,0.0,0.0,-0.264,-0.2691,0.0,-0.2849,-0.2909,-0.2909,-0.3034,-0.3184,-0.3265,-0.3519,-0.3815,-0.3946,-0.4067,0.0,0.0,-0.3951,-0.4042,-0.4128,-0.4246,0.0,0.0,0.0,0.0,0.0,0.0,0.0,0.0,0.0,0.0,0.0,0.0,0.0,0.0,0.0,0.0,0.0,0.0,0.0,0.0,0.0,0.0,0.0,0.0,0.0,0.0,-0.9221,-0.9319,-0.9314,-0.9406,-0.9519,-0.9656,-0.9793,-1.0141,-1.0417,-1.0505,-1.0889,-1.1429,-1.161,-1.201,-1.2353,-1.2443,-1.2757,-1.3039,-1.3039,-1.3325,-1.3753,0.0,0.0,0.0,0.0,0.0,0.0,0.0,0.0,0.0,0.0,0.0,0.0,0.0,0.0,0.0,0.0,0.0,0.0,-0.3301,-0.3549,-0.3728,-0.3808,-0.4264,-0.4553,-0.4613,-0.5223,-0.5567,-0.5613,-0.5712,-0.5764,-0.5694,-0.5107,-0.4775,-0.471,-0.441,-0.4121,-0.3833,-0.3625,-0.3344,-0.3001,-0.285,-0.2727,0.0,0.0,0.0,0.0,0.0,0.0,0.0,0.0,0.0,0.0,0.0,0.0,0.0,0.0,-0.3034,-0.3246,-0.3365,-0.3691,-0.4014,-0.4304,0.0,0.0,-0.4551,-0.4418,-0.4335,-0.4361,-0.4479,0.0,0.0,0.0,0.0,0.0,0.0,0.0,0.0,0.0,0.0,0.0,0.0,0.0,0.0,0.0,0.0,0.0,0.0,0.0,0.0,0.0,0.0,0.0,0.0,0.0,0.0,-0.949,-0.9561,-0.9924,-0.9654,-0.9654,-0.9924,-1.0194,-1.0541,-1.0967,-1.1067,-1.158,-1.2114,-1.233,-1.2735,-1.3069,-1.3069,-1.329,-1.3611,-1.3611,-1.3896,-1.4332,0.0,0.0,0.0,0.0,0.0,0.0,0.0,0.0,0.0,0.0,0.0,0.0,0.0,0.0,0.0,0.0,0.0,0.0,-0.3111,-0.3472,-0.3666,-0.3612,-0.4038,-0.4402,-0.4575,-0.4856,-0.5188,-0.5613,-0.5703,-0.5685,-0.5492,-0.504,-0.471,-0.4493,-0.4353,-0.4236,-0.4096,-0.3833,-0.3537,-0.3267,-0.3001,-0.2815,-0.2712,0.0,0.0,0.0,0.0,0.0,0.0,0.0,-0.2609,0.0,0.0,0.0,0.0,0.0,-0.3034,-0.3246,-0.3371,-0.3751,0.0,0.0,0.0,0.0,0.0,-0.5018,-0.4718,-0.4635,0.0,0.0,0.0,0.0,0.0,0.0,0.0,0.0,0.0,0.0,0.0,0.0,0.0,0.0,0.0,0.0,0.0,0.0,0.0,0.0,0.0,0.0,0.0,0.0,0.0,0.0,0.0,-0.985,-0.9918,-1.0193,-1.0193,-1.0193,-1.0193,-1.085,-1.1333,-1.1489,-1.1895,-1.2216,-1.2514,-1.2514,-1.2894,-1.3317,-1.3325,-1.3753,-1.4474,-1.4474,-1.4768,-1.5052,0.0,0.0,0.0,0.0,0.0,0.0,0.0,0.0,0.0,0.0,0.0,0.0,0.0,0.0,0.0,0.0,0.0,0.0,-0.3046,-0.3312,-0.3498,-0.3542,-0.3884,-0.4162,-0.4392,-0.4779,-0.5143,-0.5457,-0.5384,-0.5301,-0.514,-0.4759,-0.455,-0.4493,-0.4353,-0.4236,-0.4089,-0.3711,-0.3442,-0.326,-0.2919,-0.272,-0.2712,0.0,0.0,0.0,0.0,0.0,0.0,0.0,0.0,0.0,0.0,0.0,0.0,-0.309,-0.3222,-0.3363,-0.363,0.0,0.0,0.0,0.0,0.0,0.0,-0.5276,0.0,0.0,0.0,0.0,0.0,0.0,0.0,0.0,0.0,0.0,0.0,0.0,0.0,0.0,0.0,0.0,0.0,0.0,0.0,0.0,0.0,0.0,0.0,0.0,0.0,0.0,0.0,0.0,0.0,0.0,-1.0365,-1.085,-1.085,-1.085,-1.085,-1.1115,-1.1408,-1.1725,-1.1978,-1.2218,-1.2581,-1.3255,-1.362,-1.3816,-1.4081,-1.4412,-1.4719,-1.4858,-1.491,-1.5052,0.0,0.0,0.0,0.0,0.0,0.0,0.0,0.0,0.0,0.0,-0.3429,-0.3366,0.0,0.0,0.0,0.0,0.0,0.0,0.0,-0.3267,-0.3456,-0.3532,-0.373,-0.3948,-0.4186,-0.4577,-0.4772,-0.4835,-0.5061,-0.5127,-0.4895,-0.4644,-0.4461,-0.4434,-0.4321,-0.4272,-0.4176,-0.3767,-0.3496,-0.3337,-0.294,-0.2734,-0.2712,0.0,0.0,0.0,0.0,0.0,0.0,0.0,0.0,0.0,0.0,0.0,0.0,-0.3098,-0.3274,-0.3532,0.0,0.0,0.0,0.0,0.0,0.0,0.0,0.0,0.0,0.0,0.0,0.0,0.0,0.0,0.0,0.0,0.0,0.0,0.0,0.0,0.0,0.0,0.0,0.0,0.0,0.0,0.0,0.0,0.0,0.0,0.0,0.0,0.0,0.0,0.0,0.0,0.0,0.0,0.0,-1.1247,-1.138,-1.1512,-1.1644,-1.1644,-1.1776,-1.2056,-1.2492,-1.2831,-1.3243,-1.384,-1.4062,-1.407,-1.4457,-1.4639,-1.4787,-1.4911,-1.514,-1.5352,0.0,0.0,0.0,0.0,0.0,0.0,0.0,0.0,0.0,0.0,-0.3464,-0.3387,0.0,0.0,0.0,0.0,0.0,0.0,0.0,0.0,-0.3411,-0.3542,-0.3586,-0.3695,-0.3934,-0.4215,-0.4252,-0.3978,-0.4726,-0.4996,-0.4721,-0.4562,-0.4434,-0.4316,-0.4316,-0.4308,-0.4239,-0.3852,-0.3603,-0.3444,-0.306,-0.2808,-0.2712,-0.2712,0.0,0.0,0.0,0.0,0.0,0.0,0.0,0.0,0.0,0.0,0.0,-0.3023,-0.3312,-0.3634,0.0,0.0,0.0,0.0,0.0,0.0,0.0,0.0,0.0,0.0,0.0,0.0,0.0,0.0,0.0,0.0,0.0,0.0,0.0,0.0,0.0,0.0,0.0,0.0,0.0,0.0,0.0,0.0,0.0,0.0,0.0,0.0,0.0,0.0,0.0,0.0,0.0,0.0,0.0,0.0,-1.1644,-1.2048,-1.2305,-1.2312,-1.2305,-1.2452,-1.3269,-1.388,-1.4165,-1.4341,-1.442,-1.442,-1.4437,-1.471,-1.5119,-1.5137,-1.5531,-1.5967,0.0,0.0,0.0,0.0,0.0,0.0,0.0,0.0,0.0,0.0,0.0,0.0,0.0,0.0,0.0,0.0,0.0,0.0,0.0,0.0,-0.3152,-0.3276,-0.3476,-0.3589,-0.3513,-0.3878,-0.3967,-0.375,-0.4256,-0.438,-0.4176,-0.4272,-0.4313,-0.4316,-0.4316,-0.4199,-0.4061,-0.3683,-0.3437,-0.3227,-0.2891,-0.2713,-0.2712,-0.2712,-0.2712,0.0,0.0,0.0,0.0,0.0,0.0,0.0,-0.2827,-0.2931,-0.3076,-0.3181,-0.3488,0.0,0.0,0.0,0.0,0.0,0.0,0.0,0.0,0.0,0.0,0.0,0.0,0.0,0.0,0.0,0.0,0.0,0.0,0.0,0.0,0.0,0.0,0.0,0.0,0.0,0.0,0.0,0.0,0.0,0.0,0.0,0.0,0.0,0.0,0.0,0.0,0.0,-1.1115,-1.1512,-1.1776,0.0,-1.2173,-1.2312,-1.27,-1.2444,-1.2576,-1.3235,-1.3664,-1.3936,-1.3945,-1.4253,-1.4403,-1.4422,-1.5243,-1.5577,-1.573,-1.6165,-1.64,-1.646,0.0,0.0,0.0,0.0,0.0,0.0,0.0,0.0,0.0,0.0,0.0,0.0,0.0,0.0,0.0,0.0,0.0,0.0,0.0,0.0,-0.3006,-0.3104,-0.3289,-0.3355,-0.327,-0.355,-0.3644,-0.3456,-0.3838,-0.3999,-0.402,-0.4109,-0.4191,-0.4316,-0.4316,-0.4174,-0.3963,-0.3629,-0.3384,-0.3175,-0.2842,-0.2712,-0.2712,-0.2712,-0.2712,-0.2712,-0.2712,0.0,0.0,0.0,0.0,0.0,0.0,0.0,-0.3095,-0.3175,-0.3519,0.0,0.0,0.0,0.0,0.0,0.0,0.0,0.0,0.0,0.0,0.0,0.0,0.0,0.0,0.0,0.0,0.0,0.0,0.0,0.0,0.0,0.0,0.0,0.0,0.0,0.0,0.0,0.0,0.0,0.0,0.0,0.0,0.0,0.0,0.0,0.0,0.0,-1.1512,-1.1909,-1.2173,-1.2305,-1.2708,-1.2923,-1.3232,-1.2832,-1.2921,-1.3611,-1.3731,-1.4042,-1.4512,-1.4651,-1.4966,-1.5202,-1.5702,-1.5883,-1.5903,-1.6277,-1.6388,-1.652,0.0,0.0,0.0,0.0,0.0,0.0,0.0,0.0,0.0,0.0,0.0,0.0,0.0,0.0,0.0,0.0,0.0,0.0,0.0,0.0,0.0,-0.2956,-0.3067,-0.3106,-0.3062,-0.3232,-0.3294,-0.319,-0.3473,-0.3729,-0.3931,-0.4004,-0.4109,-0.4316,-0.4316,-0.4174,-0.3963,-0.3629,-0.3384,-0.3175,-0.2842,-0.2712,-0.2712,-0.2712,-0.2712,-0.2712,-0.2712,-0.2712,-0.2712,-0.2712,0.0,0.0,0.0,0.0,-0.3086,-0.3075,-0.3514,-0.3966,0.0,0.0,0.0,0.0,0.0,0.0,0.0,0.0,0.0,0.0,0.0,0.0,0.0,0.0,0.0,0.0,0.0,0.0,0.0,0.0,0.0,0.0,0.0,0.0,0.0,0.0,0.0,0.0,0.0,0.0,0.0,0.0,0.0,0.0,0.0,-1.1512,-1.1909,-1.218,-1.2444,-1.2444,-1.3235,-1.3509,-1.3678,-1.3413,-1.3453,-1.3931,-1.3931,-1.4402,-1.5072,-1.5072,-1.5455,-1.5913,-1.6043,-1.6063,-1.6104,-1.6104,-1.6226,-1.642,0.0,0.0,0.0,0.0,0.0,0.0,0.0,0.0,0.0,0.0,0.0,0.0,0.0,0.0,0.0,0.0,0.0,0.0,0.0,0.0,0.0,-0.2743,-0.2874,-0.2909,-0.2835,-0.299,-0.3099,-0.319,-0.3173,-0.3374,-0.3738,-0.3899,-0.4109,-0.4316,-0.4316,-0.4174,-0.3963,-0.3629,-0.3384,-0.3175,-0.2842,-0.2712,-0.2712,-0.2712,-0.2712,-0.2712,-0.2712,-0.2712,-0.2712,-0.2712,-0.2712,0.0,0.0,0.0,-0.2964,-0.3048,-0.3364,0.0,0.0,0.0,0.0,0.0,0.0,0.0,0.0,0.0,0.0,0.0,0.0,0.0,0.0,0.0,0.0,0.0,0.0,0.0,0.0,0.0,0.0,0.0,0.0,0.0,0.0,0.0,0.0,0.0,0.0,0.0,0.0,0.0,-1.1247,-1.1652,-1.2041,0.0,-1.2173,-1.2576,-1.2972,-1.3235,-1.3621,-1.382,-1.3717,-1.3978,-1.421,-1.4307,-1.4567,-1.4952,-1.5222,-1.5222,-1.5479,-1.5691,-1.5936,-1.6188,-1.6494,-1.6753,-1.6893,-1.6957,0.0,0.0,0.0,0.0,0.0,0.0,0.0,0.0,0.0,0.0,0.0,0.0,0.0,0.0,0.0,0.0,0.0,0.0,0.0,0.0,0.0,-0.2702,-0.2683,-0.265,-0.2627,-0.2761,-0.2883,-0.2985,-0.3069,-0.3315,0.0,-0.3786,-0.4012,-0.4316,-0.4316,-0.4174,-0.3963,-0.366,-0.3414,-0.3183,-0.2968,-0.2836,-0.2815,-0.2896,-0.293,-0.293,-0.293,-0.293,-0.2917,-0.2835,-0.2808,-0.2795,-0.274,0.0,0.0,0.0,-0.3276,0.0,0.0,0.0,0.0,0.0,0.0,0.0,0.0,0.0,0.0,0.0,0.0,0.0,0.0,0.0,0.0,0.0,0.0,0.0,0.0,0.0,0.0,0.0,0.0,0.0,0.0,0.0,0.0,0.0,0.0,0.0,0.0,-1.125,-1.1548,-1.2041,-1.218,0.0,-1.2568,-1.2972,-1.3367,-1.4015,-1.4038,-1.4089,-1.4307,-1.4433,-1.4317,-1.4211,-1.4577,-1.5013,-1.5371,-1.5371,-1.5701,-1.6276,-1.6646,-1.6797,-1.7141,-1.7389,-1.7518,-1.7562,0.0,0.0,0.0,0.0,0.0,0.0,0.0,0.0,0.0,0.0,0.0,0.0,0.0,0.0,0.0,0.0,0.0,0.0,0.0,0.0,0.0,-0.2702,-0.2572,-0.2495,-0.2495,-0.2553,-0.267,-0.28,-0.2917,-0.3216,-0.3641,-0.3681,-0.3866,-0.4207,-0.4299,-0.4199,-0.4069,-0.3802,-0.3536,-0.3309,-0.3155,-0.3031,-0.2978,-0.3088,-0.3181,-0.3181,-0.3142,-0.3142,-0.3115,-0.3012,-0.2964,-0.2937,-0.2815,-0.285,0.0,0.0,0.0,0.0,0.0,0.0,0.0,0.0,0.0,0.0,0.0,0.0,0.0,0.0,0.0,0.0,0.0,0.0,0.0,0.0,0.0,0.0,0.0,0.0,0.0,0.0,0.0,0.0,0.0,0.0,0.0,0.0,0.0,0.0,-1.1351,-1.1509,-1.1804,-1.2497,-1.2505,-1.2652,-1.3095,-1.3498,-1.3866,-1.4326,-1.4309,-1.4487,-1.4729,-1.4686,-1.461,-1.4411,-1.465,-1.498,-1.5508,-1.5629,-1.5996,-1.661,-1.7041,-1.7345,-1.7569,-1.7882,-1.8033,-1.8068,0.0,0.0,0.0,0.0,0.0,0.0,0.0,0.0,0.0,0.0,0.0,0.0,-0.3311,-0.329,-0.3281,-0.3208,-0.3068,-0.2939,-0.281,-0.2745,-0.2702,-0.2702,-0.2572,0.0,-0.2495,-0.2386,-0.2481,-0.28,-0.2735,0.0,-0.35,-0.3625,-0.3802,-0.4036,-0.4199,-0.4316,-0.4248,-0.3993,-0.3783,-0.3637,-0.3403,-0.319,-0.3088,-0.3236,-0.3337,-0.3379,-0.3296,-0.3296,-0.3276,-0.3122,-0.3068,-0.3086,-0.3003,-0.2997,-0.3004,0.0,0.0,0.0,0.0,0.0,0.0,0.0,0.0,0.0,0.0,0.0,0.0,0.0,0.0,0.0,0.0,0.0,0.0,0.0,0.0,0.0,0.0,0.0,0.0,0.0,0.0,0.0,0.0,0.0,0.0,0.0,0.0,0.0,-1.1425,-1.1721,-1.2147,-1.3088,-1.3096,-1.331,-1.3875,-1.4146,-1.4317,-1.4134,-1.4757,-1.4905,-1.4504,-1.5105,-1.5214,-1.4997,-1.5116,-1.5245,-1.5623,-1.5979,-1.6253,-1.6497,-1.71,-1.7474,-1.7587,-1.7953,-1.8033,-1.8033,0.0,0.0,0.0,0.0,0.0,0.0,0.0,0.0,0.0,0.0,0.0,0.0,0.0,-0.3726,-0.3566,-0.3405,-0.3129,-0.2875,-0.2745,-0.2724,-0.2681,-0.2647,-0.256,-0.2495,-0.2495,-0.2376,-0.242,-0.2681,-0.2704,-0.2899,-0.3314,-0.3492,-0.3671,-0.381,-0.4142,-0.4316,-0.4308,-0.4043,-0.3847,0.0,-0.3692,-0.3581,-0.3439,-0.3683,-0.3778,0.0,0.0,0.0,0.0,-0.3602,-0.353,-0.3462,-0.3356,-0.3248,-0.3147,-0.319,-0.328,-0.3414,0.0,0.0,0.0,0.0,0.0,0.0,0.0,0.0,0.0,0.0,0.0,0.0,0.0,0.0,0.0,0.0,0.0,0.0,0.0,0.0,0.0,0.0,0.0,0.0,0.0,0.0,0.0,0.0,0.0,0.0,-1.2151,-1.2217,-1.2582,-1.3274,-1.3274,-1.3436,-1.3888,-1.4143,-1.437,-1.4556,-1.4913,-1.5012,-1.5095,-1.5183,-1.5438,-1.572,-1.572,-1.5839,-1.5957,-1.6087,-1.6339,-1.6793,-1.7138,-1.7672,-1.8046,-1.8277,-1.8546,-1.8688,0.0,0.0,0.0,0.0,0.0,0.0,0.0,0.0,-0.4718,-0.4567,0.0,0.0,0.0,0.0,-0.3817,-0.3489,-0.3209,-0.294,-0.2702,-0.2702,-0.2659,-0.2604,-0.2538,-0.2495,-0.2495,-0.2376,-0.2408,-0.261,-0.2604,-0.2769,-0.3119,-0.3305,-0.3484,-0.3633,-0.3923,-0.4126,0.0,0.0,0.0,-0.3771,0.0,-0.3865,-0.3758,-0.4056,0.0,0.0,0.0,0.0,0.0,0.0,-0.4017,-0.3937,-0.3767,-0.3503,-0.3297,-0.3262,-0.3226,-0.3272,-0.3529,0.0,0.0,0.0,0.0,0.0,0.0,0.0,0.0,0.0,0.0,0.0,0.0,0.0,0.0,0.0,0.0,0.0,0.0,0.0,0.0,0.0,0.0,0.0,0.0,0.0,0.0,0.0,0.0,0.0,-1.242,-1.2551,-1.2759,-1.3323,-1.3644,-1.3931,-1.4182,-1.4433,-1.4644,-1.4834,-1.5054,-1.5186,-1.5345,-1.5428,-1.572,-1.6087,-1.6194,-1.6194,-1.6194,-1.6324,-1.6651,-1.704,-1.7361,-1.7789,-1.8304,-1.8524,-1.8855,-1.9072,0.0,0.0,0.0,0.0,0.0,0.0,0.0,0.0,-0.5012,-0.4676,0.0,0.0,0.0,0.0,0.0,-0.3451,-0.3355,-0.3148,-0.2723,-0.2713,-0.2669,-0.2604,-0.2538,-0.2495,-0.2495,-0.2376,-0.2399,-0.2601,-0.2453,-0.2575,-0.2894,-0.3111,-0.3289,-0.3476,-0.3572,-0.3747,-0.3971,0.0,-0.4008,-0.3891,0.0,-0.399,-0.4056,0.0,0.0,0.0,-0.4701,-0.4701,0.0,-0.4584,0.0,-0.4481,-0.4176,-0.385,-0.3509,-0.3349,-0.3305,-0.3307,0.0,0.0,0.0,0.0,0.0,0.0,0.0,0.0,0.0,0.0,0.0,0.0,0.0,0.0,0.0,0.0,0.0,0.0,0.0,0.0,0.0,0.0,0.0,0.0,0.0,0.0,0.0,0.0,0.0,-1.2225,-1.2225,-1.2595,-1.2933,-1.3496,-1.4318,-1.4798,-1.4798,-1.5162,-1.5175,-1.4973,-1.5338,-1.5335,-1.5116,-1.5839,-1.6087,-1.6087,-1.6419,-1.6537,-1.6537,-1.6903,-1.702,-1.7044,-1.7649,-1.8034,-1.8312,-1.8577,-1.8843,-1.906,0.0,0.0,0.0,0.0,0.0,-0.5751,-0.5616,-0.5465,-0.5345,0.0,0.0,0.0,-0.4794,-0.4441,-0.4069,-0.3715,-0.3535,-0.3298,-0.2946,-0.2902,-0.2808,-0.2548,-0.2517,-0.2495,-0.2495,-0.2376,-0.2337,-0.239,-0.2387,-0.2453,-0.255,-0.2737,-0.2894,-0.3007,-0.3172,-0.331,-0.3422,-0.3704,0.0,0.0,-0.4001,-0.425,0.0,0.0,0.0,0.0,0.0,-0.5199,-0.5185,0.0,-0.5078,-0.4839,-0.4391,-0.4174,-0.4004,-0.3706,-0.3596,-0.3589,-0.369,0.0,0.0,0.0,0.0,0.0,0.0,0.0,0.0,0.0,0.0,0.0,0.0,0.0,0.0,0.0,0.0,0.0,0.0,0.0,0.0,0.0,0.0,0.0,0.0,0.0,0.0,0.0,0.0,-1.2285,-1.264,-1.337,-1.3842,-1.4019,-1.4439,-1.4721,-1.4721,-1.4952,-1.5152,-1.509,-1.534,-1.5666,-1.5839,-1.5968,-1.6324,-1.6785,-1.6785,-1.702,-1.7244,-1.702,-1.7138,-1.7373,-1.7563,-1.7756,-1.8022,-1.83,-1.8565,-1.8819,0.0,0.0,0.0,0.0,0.0,-0.6029,-0.6075,-0.5989,-0.5888,0.0,0.0,0.0,-0.5401,-0.4961,-0.4529,-0.4159,-0.3961,-0.3647,-0.3154,-0.3134,-0.2984,-0.2627,-0.2618,-0.258,-0.2451,-0.2355,-0.2289,-0.2259,-0.2265,-0.2307,-0.2404,-0.2484,-0.2601,-0.2726,0.0,0.0,0.0,0.0,0.0,0.0,-0.4036,0.0,0.0,-0.5086,-0.5498,0.0,0.0,0.0,-0.5807,-0.5807,-0.5594,0.0,0.0,-0.4572,-0.4329,-0.4045,-0.3874,-0.3834,-0.3857,-0.3888,-0.3909,-0.4137,0.0,0.0,0.0,0.0,0.0,0.0,0.0,0.0,0.0,0.0,0.0,0.0,0.0,0.0,0.0,0.0,0.0,0.0,0.0,0.0,0.0,0.0,0.0,0.0,-1.209,-1.2588,-1.3255,-1.3849,-1.4311,-1.4411,-1.465,-1.4769,-1.4769,-1.5116,-1.5353,-1.5483,-1.572,-1.5957,-1.6312,-1.6431,-1.6667,-1.702,-1.7138,-1.7373,-1.7726,-1.7491,-1.7491,-1.7726,-1.7726,-1.7885,-1.8261,-1.8666,-1.8951,-1.9099,0.0,0.0,-0.6135,-0.6372,-0.636,-0.6389,-0.6571,-0.6541,-0.6453,0.0,-0.6223,-0.6125,-0.5976,-0.5601,-0.5189,-0.4771,-0.4504,-0.4092,-0.3455,-0.3397,-0.3205,-0.286,-0.2826,-0.2717,-0.2471,-0.2377,-0.2293,-0.2227,-0.2152,-0.2202,-0.2371,-0.2298,-0.2367,-0.2547,0.0,0.0,0.0,0.0,0.0,-0.3559,-0.4036,-0.4421,0.0,0.0,-0.5924,0.0,-0.6422,-0.6474,-0.6444,-0.6379,-0.6101,0.0,0.0,0.0,0.0,-0.4418,-0.4239,-0.4101,-0.4101,-0.4093,-0.4109,-0.4264,-0.4335,0.0,-0.47,-0.4877,0.0,0.0,0.0,0.0,0.0,0.0,0.0,0.0,0.0,0.0,0.0,0.0,0.0,0.0,0.0,0.0,0.0,0.0,0.0,-1.1801,-1.2334,-1.3002,-1.3907,-1.4159,-1.4366,-1.4569,-1.4945,-1.5192,-1.5192,-1.5461,-1.5839,-1.6087,-1.6087,-1.6312,-1.6537,-1.6903,-1.702,-1.702,-1.7373,-1.7726,-1.7972,-1.8089,-1.8089,-1.8089,-1.8089,-1.8345,-1.8822,-1.9102,-1.9394,-1.9687,0.0,-0.6243,-0.639,-0.6316,-0.6482,-0.6601,-0.6527,-0.649,-0.6417,-0.6233,-0.6245,-0.6272,-0.6233,-0.5879,-0.5595,-0.5502,-0.5119,-0.463,-0.4061,-0.3925,-0.365,-0.3132,-0.3079,-0.298,-0.2882,-0.2652,-0.25,-0.2452,-0.2209,-0.2116,-0.2148,-0.2148,-0.2149,-0.219,-0.2314,0.0,0.0,0.0,0.0,-0.3608,-0.4036,0.0,-0.5324,-0.5693,-0.6133,-0.6572,-0.6734,-0.6795,-0.6726,0.0,-0.631,-0.618,0.0,0.0,0.0,-0.4978,-0.4792,-0.4654,-0.4654,-0.4501,-0.4405,-0.4437,-0.4469,0.0,-0.4542,-0.4916,0.0,0.0,0.0,0.0,0.0,0.0,0.0,0.0,0.0,0.0,0.0,0.0,0.0,0.0,0.0,0.0,0.0,0.0,-1.1221,-1.1711,-1.2597,-1.335,-1.3919,-1.4167,-1.4417,-1.4458,-1.5214,-1.5533,-1.5533,-1.6082,-1.6301,-1.6419,-1.6419,-1.6549,-1.6903,-1.702,-1.7138,-1.7361,-1.7726,-1.7972,-1.7972,-1.8194,-1.8311,-1.8311,-1.8311,-1.8336,-1.8529,-1.8809,-1.9089,-1.9381,-0.6029,-0.6271,-0.6477,-0.6517,-0.6738,-0.6962,-0.6926,-0.6955,-0.6932,-0.6868,-0.6898,-0.6906,-0.6906,-0.6555,-0.6287,-0.6062,-0.5696,-0.5247,-0.474,-0.4459,-0.4125,-0.358,-0.3451,-0.3268,-0.3009,-0.2847,-0.2672,-0.2503,-0.2338,-0.2202,-0.21,-0.21,-0.2149,-0.2214,-0.2351,0.0,0.0,0.0,-0.3589,-0.4002,-0.4286,0.0,-0.5436,-0.5927,-0.6427,-0.6841,-0.7104,-0.7199,-0.7143,-0.6865,-0.67,0.0,0.0,-0.5831,-0.5588,0.0,-0.5214,-0.506,0.0,-0.4808,-0.463,-0.463,0.0,0.0,0.0,-0.4839,0.0,0.0,0.0,0.0,0.0,0.0,0.0,0.0,0.0,0.0,0.0,0.0,0.0,0.0,0.0,0.0,0.0,0.0,-1.1241,-1.1859,-1.2802,-1.3406,-1.375,-1.4207,-1.4547,-1.4891,-1.5227,-1.5521,-1.5749,-1.6113,-1.6355,-1.6576,-1.6715,-1.6903,-1.7256,-1.7373,-1.7608,-1.7726,-1.8077,-1.8311,-1.8428,-1.8532,-1.8765,-1.8894,-1.8765,-1.8765,-1.8933,-1.9207,-1.9494,-1.9781,-0.6029,-0.6317,-0.6612,-0.6687,-0.703,-0.7324,-0.7377,-0.7419,-0.7487,-0.7567,-0.7633,-0.7645,-0.7645,-0.7401,-0.7107,-0.6693,-0.6316,-0.5903,-0.5461,-0.5064,-0.4648,-0.4127,-0.3942,-0.3644,-0.3183,-0.308,-0.2881,-0.2612,-0.2461,-0.2307,-0.2148,-0.2148,-0.2196,-0.2288,-0.25,0.0,0.0,0.0,0.0,-0.4424,0.0,-0.5061,-0.5557,-0.6205,-0.6676,-0.7073,-0.7358,-0.748,-0.7456,-0.7285,0.0,-0.6765,-0.6578,-0.6302,0.0,0.0,0.0,0.0,0.0,0.0,0.0,0.0,0.0,-0.4849,0.0,0.0,0.0,0.0,0.0,0.0,0.0,0.0,0.0,0.0,0.0,0.0,0.0,0.0,0.0,0.0,0.0,0.0,0.0,0.0,-1.1435,-1.2191,-1.2925,-1.3372,-1.3719,-1.4158,-1.4713,-1.5122,-1.5333,-1.5502,-1.5726,-1.6092,-1.6344,-1.6736,-1.6961,-1.7325,-1.7608,-1.796,-1.8089,-1.8077,-1.8428,-1.8648,-1.8881,-1.8997,-1.9127,-1.9372,-1.9113,-1.9127,-1.9399,-1.9626,-1.9933,-2.0267,-0.6029,-0.6499,-0.6882,-0.6731,-0.7219,-0.7585,-0.7419,-0.7601,-0.7805,-0.7842,-0.8049,-0.8214,-0.8214,-0.8118,-0.7976,-0.772,-0.7182,-0.6712,-0.6288,-0.5702,-0.5261,-0.4883,-0.4567,-0.4213,-0.3812,-0.3554,-0.3304,-0.3031,-0.2611,-0.2363,-0.2274,-0.2274,-0.2257,-0.2236,-0.2713,0.0,0.0,0.0,-0.4166,0.0,-0.4988,-0.5466,0.0,-0.6457,-0.6781,-0.7073,-0.7358,-0.748,-0.7456,0.0,-0.7196,-0.7131,0.0,-0.6749,-0.6554,-0.6375,0.0,0.0,0.0,0.0,0.0,0.0,-0.5165,0.0,0.0,0.0,0.0,0.0,0.0,0.0,0.0,0.0,0.0,0.0,0.0,0.0,0.0,0.0,0.0,0.0,0.0,0.0,0.0,0.0,0.0,-1.2314,-1.2673,-1.3105,-1.3854,-1.4201,-1.4451,-1.4684,-1.5453,-1.5794,-1.5904,-1.6386,-1.675,-1.7092,-1.7346,-1.7724,-1.7972,-1.8194,-1.8298,-1.8428,-1.8648,-1.8881,-1.8881,-1.9243,-1.9372,-1.9372,-1.9372,-1.9372,-1.9372,-1.9399,-1.976,-2.0241,-0.6137,-0.6544,-0.6928,-0.6746,-0.7248,-0.7628,-0.7419,-0.7664,-0.8004,-0.8377,-0.8527,-0.8737,-0.901,-0.8844,-0.8741,-0.8714,0.0,-0.7633,0.0,0.0,-0.6039,-0.5762,-0.5184,-0.4783,-0.45,-0.3984,-0.3608,-0.3348,-0.298,-0.2719,-0.2532,-0.2532,-0.2561,-0.2617,-0.2967,0.0,-0.3627,0.0,0.0,0.0,0.0,0.0,0.0,-0.6562,-0.6928,-0.7277,-0.7431,-0.748,-0.7472,0.0,-0.7309,0.0,0.0,0.0,0.0,0.0,0.0,0.0,0.0,0.0,0.0,0.0,0.0,0.0,-0.5288,0.0,-0.5447,0.0,0.0,0.0,0.0,0.0,0.0,0.0,0.0,0.0,0.0,0.0,0.0,0.0,0.0,0.0,0.0,0.0,0.0,0.0,0.0,-1.2758,-1.3435,-1.3791,-1.4253,-1.4862,-1.5294,-1.5589,-1.5947,-1.6442,-1.6735,-1.6857,-1.7503,-1.7842,-1.7968,-1.8455,-1.8648,-1.8765,-1.8997,-1.9243,-1.9243,-1.9359,-1.9372,-1.9372,-1.9372,-1.9372,-1.9372,-1.9372,-1.9733,-2.0227,-0.6461,-0.6777,-0.7063,-0.6878,-0.7306,-0.7686,-0.7644,-0.7975,-0.835,-0.8858,-0.9032,-0.9284,-0.9642,-0.9568,0.0,0.0,-0.9005,-0.8627,0.0,0.0,-0.6892,-0.668,-0.5912,-0.541,-0.5191,-0.4478,-0.3994,-0.3698,-0.3351,-0.3044,-0.281,-0.2781,-0.2843,-0.299,0.0,-0.363,-0.4101,0.0,0.0,-0.5329,-0.5701,-0.6156,-0.6652,-0.6781,-0.7098,-0.7488,-0.7537,-0.7561,-0.7569,-0.761,-0.7545,0.0,-0.7439,0.0,0.0,0.0,0.0,0.0,-0.6871,0.0,0.0,0.0,0.0,0.0,0.0,0.0,0.0,0.0,0.0,0.0,0.0,0.0,-0.6228,-0.5954,0.0,0.0,0.0,0.0,0.0,0.0,0.0,0.0,0.0,0.0,0.0,0.0,-1.1706,0.0,-1.3104,-1.3528,-1.4202,-1.495,-1.5207,-1.5479,-1.5895,-1.6473,-1.6767,-1.6842,-1.7576,-1.7968,-1.8122,-1.8672,-1.8918,-1.8997,-1.9243,-1.9372,-1.9372,-1.9475,-1.9475,-1.9475,-1.9591,-1.9591,-1.9475,-1.9488,-1.9679,-2.012,-0.7185,-0.7333,-0.7408,-0.7214,0.0,-0.7831,-0.8222,-0.8641,0.0,0.0,0.0,0.0,0.0,0.0,0.0,0.0,0.0,-0.9487,-0.9164,0.0,-0.7929,0.0,0.0,-0.6137,-0.5868,-0.516,-0.4578,-0.4186,-0.3655,-0.327,-0.3082,-0.2954,-0.299,-0.3216,0.0,-0.3923,-0.434,-0.4832,-0.5173,-0.5361,-0.6116,-0.6717,-0.7204,0.0,-0.7326,-0.7504,-0.7691,0.0,0.0,-0.7943,-0.7992,0.0,0.0,0.0,0.0,0.0,0.0,0.0,0.0,0.0,0.0,-0.6749,0.0,0.0,0.0,0.0,-0.6564,0.0,0.0,0.0,0.0,-0.6454,-0.6388,-0.5972,-0.5916,0.0,0.0,0.0,0.0,0.0,0.0,0.0,0.0,0.0,0.0,0.0,-1.1216,0.0,-1.3041,-1.3566,-1.4169,-1.4739,-1.545,-1.5927,-1.594,-1.6398,-1.6782,-1.706,-1.7399,-1.7916,-1.8438,-1.8691,-1.9092,-1.9359,-1.9372,-1.9372,-1.9372,-1.9707,-1.9822,-1.9809,-2.0155,-2.004,-1.9822,-1.9475,-1.9559,-1.9853,-0.7913,-0.8008,-0.7976,0.0,0.0,0.0,0.0,-0.8982,0.0,0.0,0.0,0.0,0.0,0.0,-1.107,0.0,0.0,-1.0545,-1.0153,-0.9456,0.0,0.0,0.0,-0.6987,0.0,-0.5928,-0.5233,-0.4596,-0.4157,-0.3788,-0.3491,-0.3273,-0.3249,-0.3411,0.0,-0.4075,0.0,0.0,0.0,0.0,0.0,-0.7131,-0.7382,0.0,0.0,-0.7675,-0.774,-0.7829,0.0,-0.7992,-0.8016,-0.8016,-0.8016,-0.8016,-0.8,-0.7943,-0.7927,0.0,0.0,0.0,-0.7545,-0.7423,0.0,0.0,0.0,0.0,0.0,0.0,0.0,0.0,0.0,-0.6832,-0.6548,-0.619,-0.5887,-0.5642,0.0,0.0,0.0,0.0,0.0,0.0,0.0,0.0,0.0,-1.0014,-1.0667,-1.1387,0.0,-1.2963,-1.3809,-1.4715,-1.5357,-1.5831,-1.611,-1.6714,-1.7119,-1.7222,-1.762,-1.7925,-1.8123,-1.8632,-1.9085,-1.9421,-1.9625,-1.9822,-2.0053,-2.004,-2.0155,-2.0155,-2.027,-2.027,-2.004,-1.9822,-1.978,-1.9867,-0.87,0.0,0.0,0.0,0.0,0.0,0.0,0.0,0.0,0.0,-1.085,0.0,-1.1938,0.0,-1.1772,0.0,-1.169,-1.1366,-1.0958,-1.0404,0.0,-0.939,-0.8569,0.0,0.0,-0.6693,-0.5888,-0.5198,-0.4656,-0.4202,-0.3761,-0.3603,-0.3575,-0.3672,0.0,0.0,0.0,0.0,-0.5935,0.0,0.0,-0.7499,0.0,0.0,-0.765,-0.7862,0.0,-0.8016,-0.8122,-0.8187,-0.8211,-0.8211,-0.8211,-0.8211,-0.8219,-0.8284,-0.83,-0.83,-0.83,-0.8219,0.0,-0.8065,-0.8114,0.0,-0.8182,0.0,0.0,0.0,0.0,0.0,0.0,-0.7324,-0.6993,-0.637,-0.6048,-0.5848,0.0,-0.581,0.0,0.0,0.0,0.0,0.0,0.0,-0.8646,-0.9524,-1.0184,-1.0924,0.0,0.0,-1.3517,-1.4527,-1.5168,-1.5782,-1.6279,-1.6873,-1.7279,-1.7384,-1.7796,-1.805,-1.8158,-1.8658,-1.9166,-1.9597,-1.9676,-1.9943,-2.027,-2.0385,-2.05,-2.05,-2.0615,-2.05,-2.0385,-1.9924,-1.978,-1.9867,0.0,0.0,0.0,0.0,-0.9141,0.0,0.0,0.0,-1.1072,0.0,-1.1726,-1.214,-1.2542,-1.2438,-1.2388,-1.2413,-1.216,0.0,-1.1641,-1.118,0.0,0.0,-0.9507,-0.8827,-0.8364,0.0,-0.6539,-0.5947,-0.5216,-0.4532,-0.3958,-0.3943,-0.3906,-0.3931,-0.4346,0.0,-0.5353,-0.5858,-0.6502,-0.7056,-0.7599,-0.793,-0.8116,-0.8041,0.0,-0.8073,-0.8235,-0.83,-0.8341,-0.8519,-0.8584,-0.8593,-0.8593,-0.8593,-0.8625,-0.8787,-0.8836,-0.8836,-0.8836,-0.8836,-0.8812,-0.8649,0.0,0.0,0.0,0.0,-0.9331,0.0,0.0,0.0,0.0,0.0,-0.7541,-0.6719,-0.649,-0.6325,-0.5982,-0.5923,-0.592,0.0,0.0,0.0,0.0,-0.7396,-0.7971,-0.9127,-0.9781,0.0,0.0,0.0,0.0,-1.4309,-1.5094,-1.5725,-1.6299,-1.6879,-1.7378,-1.7555,-1.7884,-1.8153,-1.8454,-1.8777,-1.9206,-1.9766,-1.9794,-1.9976,-2.0371,-2.0601,-2.0716,-2.0716,-2.1089,-2.096,-2.0601,-2.004,-1.978,-1.984,-1.0234,-1.0305,-1.0461,0.0,-1.0043,-0.9882,0.0,0.0,0.0,0.0,-1.2432,-1.2842,-1.3326,-1.322,-1.3184,-1.3436,-1.3197,0.0,0.0,0.0,0.0,-1.0874,-1.0068,-0.952,-0.915,-0.8275,-0.7401,-0.6559,-0.5777,-0.5116,-0.4569,-0.4283,-0.4169,-0.4288,0.0,0.0,-0.5475,-0.6072,-0.6792,-0.7627,-0.8043,-0.8354,0.0,0.0,-0.8467,-0.8584,-0.8365,-0.8463,-0.869,-0.8739,-0.8844,-0.8958,-0.8958,-0.8958,-0.8966,-0.9015,-0.9023,-0.9023,-0.9023,-0.912,-0.9304,-0.9443,-0.9725,-1.0105,0.0,0.0,0.0,0.0,0.0,0.0,0.0,0.0,-0.8141,-0.7673,-0.7111,-0.6701,-0.6449,-0.6406,0.0,-0.639,0.0,0.0,0.0,-0.7286,-0.7835,-0.8229,-0.9284,0.0,0.0,0.0,0.0,-1.4179,-1.5073,-1.5717,-1.6281,-1.6887,-1.7286,-1.7585,-1.7881,-1.8151,-1.8443,-1.8786,-1.909,-1.9491,-1.996,-2.0329,-2.0641,-2.0987,-2.1089,-2.1089,-2.1203,-2.096,-2.0601,-2.004,-2.0014,-2.0169,-1.0969,0.0,0.0,-1.1875,0.0,0.0,-1.1739,0.0,0.0,-1.3051,-1.3365,0.0,-1.4031,-1.3944,-1.3975,-1.4025,-1.3791,0.0,-1.2909,0.0,0.0,-1.1638,-1.1006,-1.0361,-0.9659,-0.8922,0.0,-0.707,0.0,-0.5529,-0.4893,-0.461,-0.4437,-0.445,0.0,-0.5354,0.0,-0.6857,-0.7642,-0.8196,-0.8604,0.0,0.0,-0.9009,-0.9135,-0.9283,-0.9072,-0.8951,-0.8942,-0.8942,-0.9007,-0.9096,-0.9096,-0.9096,-0.9112,-0.9185,-0.9267,-0.9348,-0.9614,-0.9763,-1.0004,-1.0302,-1.058,-1.0869,-1.107,-1.1086,-1.1094,0.0,0.0,0.0,0.0,0.0,0.0,-0.8304,-0.7756,-0.7302,-0.7125,0.0,0.0,0.0,-0.6904,0.0,0.0,0.0,-0.7518,0.0,0.0,0.0,0.0,0.0,0.0,-1.3952,-1.4668,-1.5431,-1.6072,-1.6674,-1.7073,-1.7374,-1.7918,-1.8263,-1.8447,-1.8864,-1.9198,-1.957,-1.9932,-2.0361,-2.0735,-2.0925,-2.1086,-2.1203,-2.1203,-2.1089,-2.0845,-2.0385,-2.015,-2.0096,0.0,0.0,0.0,0.0,0.0,0.0,0.0,-1.3201,0.0,-1.3859,0.0,-1.4552,-1.4603,-1.4678,-1.4566,-1.4423,0.0,-1.3878,-1.3659,-1.3385,-1.2991,-1.2423,-1.1888,-1.1189,-1.0121,-0.9437,-0.8602,0.0,-0.6739,-0.5907,-0.5148,-0.4958,-0.4794,0.0,0.0,0.0,0.0,-0.7747,-0.8533,0.0,-0.9193,-0.9465,-0.9666,-0.9687,-0.9793,-0.997,-0.997,-0.9597,-0.9222,-0.9222,-0.9255,-0.9296,-0.9296,-0.9218,-0.9267,-0.9509,-0.9674,-0.9829,-1.0281,-1.057,-1.0724,-1.1063,-1.1299,-1.1526,-1.1659,-1.1726,-1.185,-1.1671,-1.1425,-1.1066,0.0,0.0,-0.95,-0.8915,-0.8394,0.0,0.0,0.0,0.0,0.0,0.0,0.0,0.0,0.0,0.0,0.0,0.0,0.0,0.0,0.0,0.0,0.0,-1.4236,0.0,-1.5765,0.0,-1.6869,-1.7158,-1.798,-1.8455,-1.8513,-1.9022,-1.9433,-1.9696,-1.974,-2.0106,-2.0662,-2.0706,-2.0911,-2.1203,-2.1203,-2.1203,-2.1203,-2.0845,-2.0385,-1.9965,0.0,0.0,0.0,0.0,0.0,-1.4743,-1.5063,-1.47,-1.4408,-1.4531,-1.4847,0.0,-1.5217,-1.5101,-1.5034,-1.5269,-1.4823,0.0,0.0,0.0,0.0,-1.3027,-1.197,-1.1401,-1.1416,-1.0162,-0.9238,-0.8696,-0.7501,-0.6638,-0.5987,-0.5443,-0.5216,0.0,0.0,0.0,-0.7059,-0.8004,0.0,-0.9025,-0.9649,-0.9851,-0.9885,-0.9985,-1.0081,-1.0061,-1.0061,-0.9966,-0.9966,-0.9966,-0.9998,-1.0062,-1.0062,-1.0062,-1.0084,-1.0322,-1.045,-1.0484,-1.0828,-1.0985,-1.1274,-1.1756,-1.2028,-1.2312,-1.2693,-1.2578,-1.2323,-1.2285,-1.1841,-1.1468,-1.1376,0.0,0.0,0.0,0.0,0.0,0.0,0.0,0.0,0.0,0.0,0.0,0.0,0.0,0.0,0.0,0.0,0.0,0.0,0.0,0.0,0.0,0.0,0.0,0.0,0.0,0.0,-1.7329,-1.8036,-1.8425,-1.8702,-1.9125,-1.9301,-1.9374,-1.9652,-1.9974,-2.034,-2.0618,-2.0911,-2.1203,-2.1203,-2.1203,-2.1203,-2.1089,-2.0845,-2.05,0.0,0.0,0.0,0.0,0.0,0.0,0.0,-1.5989,0.0,-1.5303,-1.552,-1.5595,-1.5378,-1.5431,-1.5483,-1.5534,-1.5178,-1.4841,-1.4502,-1.4111,-1.3802,-1.3761,-1.2825,0.0,-1.178,-1.073,-0.9787,-0.9006,-0.8004,-0.7206,-0.6428,-0.5997,-0.5693,0.0,0.0,-0.6766,0.0,0.0,0.0,-0.9545,-0.9951,-1.022,-1.0436,-1.0631,-1.0738,-1.0824,-1.0924,-1.0961,-1.0952,-1.0555,-1.0515,-1.0656,-1.0656,-1.0613,-1.0681,-1.0785,-1.0854,-1.1045,-1.1247,-1.1576,-1.1937,-1.2367,-1.2543,-1.2833,-1.3041,-1.3022,-1.2952,-1.2836,-1.2598,-1.2358,-1.1885,-1.1436,0.0,0.0,0.0,0.0,0.0,0.0,0.0,0.0,0.0,0.0,0.0,0.0,0.0,0.0,0.0,0.0,0.0,0.0,0.0,0.0,0.0,0.0,0.0,0.0,0.0,-1.7452,-1.8047,-1.8467,-1.8803,-1.9125,-1.9272,-1.9286,-1.9447,-1.9696,-2.0033,-2.0516,-2.0911,-2.1203,-2.1203,-2.1203,-2.1203,-2.1203,-2.1089,-2.096,0.0,-1.5647,0.0,0.0,-1.6511,0.0,0.0,-1.7116,-1.6897,-1.5998,-1.6029,-1.604,-1.5577,-1.5698,-1.5737,-1.5547,-1.5465,-1.5178,-1.4783,-1.4484,-1.4315,-1.4333,-1.3567,-1.2848,-1.2209,-1.1277,-1.0336,0.0,-0.8599,-0.7777,-0.6966,-0.6592,-0.6285,0.0,0.0,0.0,0.0,0.0,-0.9469,-1.0067,-1.0329,-1.0669,-1.0981,-1.1236,-1.1435,-1.1605,-1.1756,-1.185,-1.1756,-1.1196,-1.1034,-1.1159,-1.1159,-1.1185,-1.1116,-1.1221,-1.1327,-1.1576,-1.1836,-1.2183,-1.2562,-1.2871,-1.3127,-1.326,-1.3423,-1.3509,-1.364,-1.3423,-1.3357,-1.3138,-1.2425,-1.2107,0.0,0.0,0.0,0.0,0.0,0.0,0.0,0.0,0.0,0.0,0.0,0.0,0.0,0.0,0.0,-0.8685,-0.9633,-1.0461,0.0,0.0,0.0,-1.4778,-1.5473,0.0,-1.7137,0.0,-1.8047,-1.8467,-1.8803,-1.9125,-1.9376,-1.9376,-1.9376,-1.9567,-1.992,-2.0457,-2.0867,-2.1115,-2.1174,-2.1203,-2.1203,-2.1203,-2.1203,-2.1203,0.0,0.0,0.0,0.0,0.0,0.0,0.0,-1.8213,-1.803,-1.6578,-1.6536,-1.6452,-1.6183,-1.5913,-1.5832,-1.5737,-1.5547,-1.5248,-1.4867,-1.4472,-1.4268,-1.4268,-1.3637,-1.3182,-1.3085,-1.2122,-1.1239,0.0,0.0,-0.8554,-0.787,-0.7312,0.0,0.0,0.0,0.0,0.0,-0.9242,-0.9724,-1.0105,-1.0801,-1.1132,-1.1208,-1.1605,-1.1775,-1.1794,-1.1813,-1.1945,-1.2106,-1.1981,-1.1778,-1.1584,-1.1584,-1.1594,-1.162,-1.1837,-1.1964,-1.2019,-1.2543,-1.2739,-1.2964,-1.3567,-1.38,-1.3986,-1.4301,-1.431,-1.4215,-1.4002,-1.3665,-1.3404,-1.332,-1.3127,-1.2931,0.0,0.0,0.0,0.0,0.0,0.0,0.0,0.0,0.0,0.0,0.0,0.0,0.0,0.0,-0.8751,-0.9633,-1.0335,-1.1276,-1.2686,0.0,-1.4949,-1.5931,-1.6664,0.0,-1.7727,-1.8145,-1.8467,-1.8803,-1.9125,-1.948,-1.9687,-1.9687,-1.9867,-2.0225,-2.0567,-2.0735,-2.0794,-2.1101,-2.1203,-2.1203,-2.1203,-2.1203,-2.1203,0.0,0.0,0.0,0.0,0.0,0.0,0.0,-1.8716,-1.8453,-1.7683,-1.7452,-1.7175,-1.6512,-1.6498,-1.6334,-1.5845,-1.575,-1.556,-1.5248,-1.4867,-1.458,-1.4496,-1.4005,-1.3543,-1.3483,-1.2606,-1.1787,0.0,0.0,-0.9417,-0.8708,-0.8226,0.0,0.0,0.0,-0.8748,-0.9426,-0.9857,-1.0372,-1.1017,-1.1394,-1.1764,-1.2112,-1.2408,-1.2526,-1.2546,-1.2674,-1.2782,-1.2861,-1.2861,-1.2538,-1.2107,-1.2107,-1.2246,-1.2303,-1.2413,-1.2608,-1.2721,-1.3144,-1.3383,-1.3519,-1.4033,-1.4172,-1.442,-1.451,-1.4697,-1.4682,-1.4582,-1.4319,-1.3943,-1.3657,-1.3559,-1.3561,0.0,0.0,0.0,0.0,0.0,0.0,0.0,0.0,-1.1353,0.0,0.0,0.0,0.0,0.0,0.0,-0.9547,-1.0444,-1.1501,-1.2792,0.0,-1.522,-1.602,-1.6929,-1.7698,-1.8116,-1.8438,-1.876,-1.9081,-1.942,-1.9687,-1.9983,-1.9983,-2.0076,-2.0195,-2.0357,-2.0479,-2.0735,-2.0867,-2.1042,-2.1203,-2.1203,-2.1203,-2.1203,-1.969,0.0,-1.9491,0.0,-1.9494,-1.9443,-1.9413,-1.9223,-1.8985,-1.8784,-1.8498,-1.7939,-1.705,-1.7023,-1.669,-1.5883,-1.5761,-1.5734,-1.5439,-1.507,-1.4796,-1.4688,-1.4304,0.0,-1.3731,-1.3088,-1.2468,-1.1793,-1.1032,0.0,-0.9688,0.0,0.0,0.0,-0.9205,-0.9637,-1.0287,-1.07,-1.1169,-1.1717,-1.2062,-1.2402,-1.2779,-1.3062,-1.3173,-1.3194,-1.3426,-1.3517,-1.3517,-1.3517,-1.3177,-1.2836,-1.2659,-1.2745,-1.2888,-1.2945,-1.3183,-1.3422,-1.3719,-1.3838,-1.4093,-1.4504,-1.4646,-1.4769,-1.4888,-1.5126,-1.515,-1.4856,-1.4703,-1.4417,-1.4008,-1.4028,-1.4057,-1.4023,0.0,0.0,0.0,0.0,0.0,0.0,-1.2649,-1.2238,-1.1489,0.0,0.0,0.0,0.0,0.0,-0.9951,-1.0793,0.0,0.0,0.0,0.0,0.0,-1.7246,-1.7984,-1.8306,-1.8628,-1.9067,-1.948,-1.9791,-1.9983,-2.0189,-2.0189,-2.0223,-2.0257,-2.0242,-2.0342,-2.0567,-2.0647,-2.0867,-2.1086,-2.1174,-2.1203,-2.1203,-2.0749,-2.0459,-2.0168,-1.9957,-2.0146,-2.0285,-2.0,-2.0061,-1.9968,-1.9776,-1.9465,-1.8803,-1.7668,-1.72,-1.6666,-1.5856,-1.5817,-1.5616,-1.5343,-1.5166,-1.4987,0.0,0.0,-1.4171,-1.3918,-1.3719,-1.3365,-1.2756,0.0,0.0,-1.0939,0.0,-0.9865,-1.0314,-1.0367,-1.0641,-1.102,-1.1687,-1.197,-1.2041,-1.2698,-1.2961,-1.3012,-1.3467,-1.3639,-1.378,-1.3901,-1.3982,-1.3982,-1.3982,-1.3982,-1.3942,-1.3374,-1.3184,-1.3233,-1.3458,-1.3754,-1.4033,-1.4245,-1.4306,-1.4473,-1.4935,-1.5105,-1.5235,-1.5483,-1.5601,-1.5461,-1.4988,-1.4697,-1.446,-1.4234,-1.4396,-1.4522,-1.4289,0.0,0.0,0.0,0.0,0.0,0.0,-1.3287,-1.2812,-1.2144,0.0,0.0,0.0,0.0,0.0,0.0,0.0,0.0,-1.3629,-1.4588,0.0,-1.636,-1.7326,-1.7984,-1.8306,-1.8628,-1.9154,-1.9687,-2.0205,-2.0514,-2.0514,-2.0514,-2.0529,-2.0457,-2.0257,-2.0181,-2.0255,-2.0582,-2.072,-2.0764,-2.1086,-2.1203,-2.1203,-2.2551,-2.2225,-2.1849,-2.1296,-2.1139,-2.0933,-2.0389,-2.0231,-1.9983,-1.9776,-1.948,-1.9095,-1.848,-1.8178,-1.7622,0.0,-1.6553,-1.6414,0.0,-1.6038,-1.5853,-1.5543,-1.506,-1.4728,-1.4461,-1.4004,-1.3635,-1.3389,0.0,0.0,0.0,-1.1215,-1.1142,-1.1283,-1.1097,-1.1382,-1.1972,-1.216,-1.2486,-1.3008,-1.3547,-1.3873,-1.4014,-1.4431,-1.4547,-1.4558,-1.4632,-1.4664,-1.4664,-1.4664,-1.4437,-1.4334,-1.4302,-1.4093,-1.3989,-1.4069,-1.4199,-1.4457,-1.4754,-1.4883,-1.4903,-1.5332,-1.5472,-1.5483,-1.5601,-1.5601,-1.5515,-1.5203,-1.5058,-1.4931,-1.4812,-1.4831,-1.4911,-1.5045,-1.5094,0.0,0.0,0.0,0.0,0.0,-1.3935,-1.3722,0.0,-1.2897,0.0,0.0,0.0,0.0,0.0,0.0,0.0,0.0,-1.5063,0.0,-1.636,-1.7545,-1.8203,-1.8306,-1.9051,-1.9686,-2.0205,-2.0411,-2.0617,-2.0822,-2.0822,-2.0617,-2.0529,-2.0208,-2.0181,-2.0225,-2.0332,-2.053,-2.0764,-2.1086,-2.1203,-2.1203,-2.3347,-2.3028,-2.2626,-2.2201,-2.1739,-2.1265,-2.0851,-2.0488,-2.0189,-1.9879,-1.9583,-1.9376,-1.9078,-1.8815,0.0,-1.7319,-1.7089,-1.6935,-1.6714,-1.6413,-1.6225,-1.601,-1.5532,-1.5146,-1.4959,0.0,0.0,-1.4159,-1.359,-1.2881,-1.2147,-1.2037,-1.2048,-1.2102,-1.201,-1.2257,-1.2851,-1.2882,-1.3143,-1.3541,-1.4014,-1.4314,-1.4568,-1.4902,-1.5134,-1.5259,-1.5347,-1.538,-1.5495,-1.5495,-1.5264,-1.5066,-1.5216,-1.5024,-1.479,-1.4672,-1.4775,-1.5007,-1.5235,-1.5235,-1.5353,-1.5601,-1.5601,-1.5601,-1.572,-1.5839,-1.588,-1.5649,-1.551,-1.5378,-1.5243,-1.5212,-1.5256,-1.5482,-1.5435,-1.5338,-1.5294,0.0,0.0,0.0,0.0,0.0,0.0,-1.3891,0.0,0.0,0.0,0.0,0.0,0.0,0.0,-1.4501,-1.554,0.0,-1.655,-1.7802,-1.8489,-1.8503,-1.946,-2.0205,-2.0514,-2.0617,-2.0719,-2.0925,-2.0925,-2.0822,-2.0617,-2.0395,-2.0208,-2.0121,-2.0145,-2.0361,-2.0574,-2.0911,-2.1101,-2.1233,-2.3432,-2.3095,0.0,0.0,-2.1948,0.0,-2.1449,-2.0867,-2.0442,-2.0189,-1.9879,-1.9583,-1.9376,-1.9316,-1.8887,-1.7736,0.0,0.0,0.0,-1.6579,-1.6377,-1.6377,-1.5847,-1.5518,-1.5518,-1.5316,-1.5113,-1.5113,-1.4398,-1.3708,-1.2883,-1.2687,-1.2653,-1.291,-1.2813,-1.3071,-1.3513,-1.3728,-1.3825,-1.389,-1.4363,-1.4557,-1.4611,-1.5095,-1.55,-1.5754,-1.5998,-1.6312,-1.6537,-1.6537,-1.6312,-1.6087,-1.6087,-1.5957,-1.5601,-1.5235,-1.5353,-1.5601,-1.572,-1.572,-1.572,-1.572,-1.572,-1.572,-1.6087,-1.6312,-1.6469,-1.6252,-1.5989,-1.5726,-1.5475,-1.5453,-1.5505,-1.5482,-1.5791,-1.5801,-1.5535,0.0,0.0,0.0,0.0,0.0,0.0,-1.4878,-1.4943,0.0,0.0,0.0,0.0,0.0,-1.494,-1.5452,-1.6067,-1.6654,-1.6978,-1.8111,-1.8799,-1.8859,-1.9999,-2.0514,-2.0514,-2.0822,-2.0925,-2.0925,-2.0925,-2.0925,-2.0925,-2.0617,-2.0308,-2.0117,-2.0152,-2.0267,-2.0267,-2.0603,-2.0925,-2.1262,0.0,0.0,-2.3794,-2.3293,-2.2836,-2.2269,-2.1528,-2.1055,-2.0794,-2.0442,-1.9983,-1.9672,-1.9569,-1.939,-1.9049,-1.8532,-1.7893,-1.7644,-1.7707,-1.7486,-1.7173,-1.6977,-1.6665,-1.624,-1.5828,-1.5503,-1.5303,-1.5113,-1.4959,-1.4628,-1.4231,-1.4016,-1.3788,-1.3601,-1.3409,-1.347,-1.3739,-1.3793,-1.3933,-1.4148,-1.4611,-1.4805,-1.4848,-1.5576,-1.5998,-1.5998,-1.629,-1.6419,-1.6537,-1.6537,-1.6419,-1.6419,-1.6419,-1.6301,-1.6183,-1.5957,-1.5968,-1.6076,-1.6183,-1.6301,-1.6301,-1.6301,-1.6301,-1.6301,-1.6419,-1.6419,-1.6526,-1.6469,-1.6472,-1.6331,-1.6074,-1.6038,-1.6018,-1.5827,-1.6004,-1.6119,-1.586,-1.6019,0.0,0.0,-1.6056,-1.6072,-1.5896,-1.6089,-1.6209,0.0,0.0,0.0,0.0,-1.6974,-1.6652,-1.5833,-1.6595,-1.7175,-1.7609,-1.8535,-1.9353,-2.0076,-2.0333,-2.0617,-2.0822,-2.0925,-2.0925,-2.0925,-2.0925,-2.0925,-2.0925,-2.0617,-2.0411,-2.0442,-2.0468,-2.0482,-2.0595,-2.0922,-2.1038,-2.1262,-2.5069,-2.4709,-2.4317,-2.3878,-2.3365,-2.2683,-2.2188,-2.1534,-2.1055,-2.0763,-2.0297,-1.9998,-1.9672,-1.9465,-1.9242,-1.8959,-1.8646,-1.8227,-1.7884,-1.7793,-1.7701,-1.7384,-1.7134,-1.6847,-1.6533,-1.6056,-1.5712,-1.5282,-1.5299,-1.5035,-1.4695,-1.4511,-1.4378,-1.4252,-1.416,-1.4085,-1.4188,-1.4188,-1.4169,-1.4234,-1.4697,-1.4993,-1.5172,-1.5898,-1.6324,-1.6549,-1.6667,-1.6773,-1.7009,-1.7009,-1.6891,-1.6773,-1.6773,-1.6655,-1.6537,-1.6549,-1.6431,-1.6312,-1.6419,-1.6537,-1.6537,-1.6537,-1.6655,-1.6773,-1.6773,-1.6891,-1.7009,-1.7009,-1.6913,-1.6767,-1.6618,-1.6575,-1.6417,-1.6242,-1.6418,-1.6474,-1.6336,-1.652,0.0,-1.6547,-1.6727,-1.6905,-1.6914,-1.7209,-1.751,-1.764,0.0,0.0,-1.8218,-1.8394,-1.7969,-1.6813,-1.7531,-1.7983,-1.8177,-1.9063,-1.9884,-2.0719,-2.0719,-2.0719,-2.0925,-2.0925,-2.0925,-2.0925,-2.0925,-2.0925,-2.0925,-2.0719,-2.0617,-2.0545,-2.0662,-2.0788,-2.0922,-2.1254,-2.1579,-2.1829,-2.5491,-2.5008,-2.4563,-2.4384,-2.3657,-2.3096,-2.3047,-2.2156,-2.1391,-2.1118,-2.0716,-2.0308,-1.9894,-1.9539,-1.9332,-1.9257,-1.9301,-1.8883,-1.7884,-1.7898,-1.7911,-1.7687,-1.7384,-1.7279,-1.7173,-1.6643,-1.6107,-1.5664,-1.5559,-1.5335,-1.4915,-1.4812,-1.4826,-1.4838,-1.4733,-1.4741,-1.4708,-1.4708,-1.4526,-1.4397,-1.482,-1.5252,-1.5568,-1.6026,-1.656,-1.702,-1.702,-1.7256,-1.7479,-1.7479,-1.7256,-1.702,-1.702,-1.6903,-1.6773,-1.702,-1.6903,-1.6773,-1.6609,-1.6598,-1.6727,-1.6762,-1.702,-1.7256,-1.7256,-1.7491,-1.7596,-1.7596,-1.7426,-1.7297,-1.7241,-1.6968,-1.6804,-1.6731,-1.6762,-1.6736,-1.6736,0.0,-1.7252,-1.7003,-1.7437,-1.7833,-1.7901,-1.8304,-1.8773,-1.8984,-1.9313,-1.9418,0.0,-1.9418,-1.9038,-1.8302,-1.8602,-1.8859,-1.8958,-1.9691,-2.042,-2.0925,-2.0925,-2.0925,-2.0925,-2.0925,-2.0925,-2.0925,-2.0925,-2.0925,-2.0925,-2.0925,-2.0751,-2.0623,-2.0903,-2.1139,-2.1309,-2.1616,-2.204,-2.2549,-2.59,-2.5552,-2.5076,-2.4547,-2.4223,-2.3961,-2.3409,-2.2673,-2.2086,-2.1812,-2.1043,-2.0514,-2.0411,-1.9746,-1.9317,-1.9317,-1.9257,-1.9197,-1.9017,-1.8359,-1.8016,-1.7911,-1.7687,-1.7477,-1.7173,-1.6643,-1.6299,-1.6156,-1.5943,-1.5813,-1.5659,-1.5459,-1.5388,-1.5316,-1.5091,-1.5007,-1.4934,-1.4934,-1.5047,-1.5263,-1.5546,-1.5796,-1.6149,-1.668,-1.6903,-1.702,-1.7373,-1.7479,-1.7479,-1.7479,-1.7479,-1.7361,-1.7361,-1.7361,-1.7361,-1.7738,-1.7855,-1.7677,-1.7098,-1.7256,-1.7547,-1.8015,-1.8181,-1.8181,-1.8181,-1.8181,-1.8298,-1.8298,-1.8273,-1.8159,-1.7881,-1.7603,-1.7436,-1.713,-1.7116,-1.7067,-1.7067,0.0,-1.7943,-1.8224,-1.8483,-1.8755,-1.9041,-1.9396,-1.9628,-1.9628,-1.986,-2.0091,-2.0091,-2.0091,-2.0126,-2.03,-1.9743,-1.9722,-2.0106,-2.0569,-2.0775,-2.0925,-2.0925,-2.0925,-2.0925,-2.0925,-2.0925,-2.0925,-2.0925,-2.0925,-2.0925,-2.0925,-2.0996,-2.1265,-2.1328,-2.1509,-2.1852,-2.1914,-2.2251,-2.2665,-2.6591,-2.5881,-2.5309,-2.5025,-2.4614,-2.4317,-2.4038,-2.336,-2.2765,-2.2193,-2.1643,-2.1043,-2.0545,-2.0308,-1.9983,-1.9317,-1.9569,-1.9613,-1.9301,-1.8898,-1.8464,-1.8016,-1.7911,-1.7595,-1.7173,-1.6961,-1.6643,-1.6324,-1.6217,-1.5992,-1.5885,-1.5791,-1.5684,-1.5684,-1.5577,-1.5433,-1.5464,-1.5464,-1.5493,-1.5635,-1.5886,-1.6184,-1.6541,-1.6809,-1.7138,-1.7256,-1.7608,-1.7726,-1.7843,-1.7948,-1.7948,-1.7948,-1.7948,-1.7948,-1.8064,-1.8194,-1.8194,-1.8169,-1.7915,-1.7877,-1.8134,-1.8389,-1.8415,-1.8415,-1.8415,-1.8415,-1.8415,-1.8415,-1.8415,-1.8326,-1.8275,-1.812,-1.8052,-1.7877,-1.7952,0.0,0.0,-1.8292,-1.8591,-1.8932,-1.9195,-1.9487,-1.9821,-2.0344,-2.0658,-2.0786,-2.1074,-2.1291,-2.1291,-2.1506,-2.1645,-2.1707,-2.1048,-2.0747,-2.0972,-2.1131,-2.1115,-2.0925,-2.0925,-2.0925,-2.0925,-2.0925,-2.0925,-2.0925,-2.0925,-2.0925,-2.0941,-2.1131,-2.1306,-2.1481,-2.1862,-2.2087,-2.2308,-2.2686,-2.3027,-2.3426,-2.7234,-2.6308,-2.5577,-2.5378,-2.4845,-2.4479,-2.4479,-2.3938,-2.3227,-2.265,-2.2201,-2.1635,-2.0751,-2.0751,-2.0545,-1.9761,-1.9791,-1.9806,-1.9494,-1.942,-1.9002,-1.8345,-1.8135,-1.7806,-1.7279,-1.7279,-1.6961,-1.6537,-1.6324,-1.6217,-1.6004,-1.5885,-1.5885,-1.5897,-1.5958,-1.5994,-1.5979,-1.6038,-1.6092,-1.6113,-1.6321,-1.6668,-1.697,-1.7184,-1.7373,-1.7713,-1.796,-1.8077,-1.8077,-1.8298,-1.8415,-1.8415,-1.8415,-1.8415,-1.8415,-1.8532,-1.8532,-1.8648,-1.8532,-1.8493,-1.8455,-1.8635,-1.8661,-1.8661,-1.8661,-1.8661,-1.8661,-1.8661,-1.8661,-1.87,-1.8709,-1.8717,-1.8712,-1.8847,0.0,0.0,0.0,-1.9085,-1.9237,-1.9569,-1.9907,-2.0246,-2.06,-2.1104,-2.1553,-2.1803,-2.2037,-2.2184,-2.2184,-2.2528,-2.2749,-2.2859,-2.2196,-2.1711,-2.1576,-2.1497,-2.1306,-2.1052,-2.0956,-2.0925,-2.0925,-2.0925,-2.0925,-2.0925,-2.0925,-2.0972,-2.1171,-2.1442,-2.165,-2.1964,-2.2493,-2.2766,-2.291,-2.3536,-2.3869,-2.4268,-2.7623,-2.6865,-2.6117,-2.5543,-2.5069,-2.4812,-2.4812,-2.4158,-2.3661,-2.3291,-2.2518,-2.1739,-2.1264,-2.0822,-2.0648,-2.0782,-1.9879,-1.9554,-2.0043,-1.9613,-1.9301,-1.924,-1.8464,-1.7911,-1.7582,-1.7279,-1.7173,-1.7173,-1.6537,-1.6324,-1.6217,-1.6004,-1.5885,-1.5897,-1.6139,-1.626,-1.6296,-1.6561,-1.6827,-1.7068,-1.708,-1.7365,-1.7935,-1.796,-1.8077,-1.8298,-1.8298,-1.8415,-1.8415,-1.8415,-1.8415,-1.8415,-1.8415,-1.8415,-1.8415,-1.8765,-1.9127,-1.9243,-1.8997,-1.8685,-1.8669,-1.9176,-1.9372,-1.9372,-1.9372,-1.9372,-1.9372,-1.9372,-1.9475,-1.9693,-1.9666,-1.9663,-1.9682,-1.9668,0.0,0.0,-1.936,-1.9598,-1.9893,-2.0215,-2.0759,-2.1248,-2.1511,-2.1935,-2.2154,-2.214,-2.2169,-2.2184,-2.2184,-2.2528,-2.2974,-2.3535,-2.2765,-2.2275,-2.1926,-2.1608,-2.1433,-2.1401,-2.1084,-2.0925,-2.0925,-2.0925,-2.0925,-2.0925,-2.0925,-2.1219,-2.1836,-2.1869,-2.2364,-2.3293,-2.3343,-2.3574,-2.3809,-2.43,-2.4449,-2.4622,-2.8199,-2.7176,-2.6336,-2.6082,-2.5336,-2.4812,-2.4812,-2.4582,-2.4149,-2.3432,-2.3017,-2.2386,-2.1383,-2.113,-2.0925,-2.0648,-2.0426,-2.0101,-1.9672,-1.945,-1.9272,-1.9345,-1.8464,-1.7911,-1.7806,-1.7595,-1.7384,-1.7173,-1.6961,-1.6749,-1.6549,-1.6418,-1.653,-1.673,-1.6792,-1.7017,-1.7353,-1.7466,-1.7765,-1.8177,-1.8177,-1.8458,-1.8829,-1.8829,-1.8715,-1.8682,-1.8906,-1.879,-1.8765,-1.8894,-1.901,-1.901,-1.901,-1.9127,-1.9345,-1.9693,-1.9809,-1.9938,-1.9809,-1.9496,-1.9442,-1.9897,-1.9938,-1.9938,-1.9938,-1.9938,-1.9938,-1.9938,-2.004,-2.0155,-2.0155,-2.0057,-2.0088,-2.0088,0.0,-2.0033,-2.0146,-2.053,-2.0845,-2.109,-2.1598,-2.1875,-2.1993,-2.2271,-2.2462,-2.2462,-2.2637,-2.2877,-2.3,-2.3612,-2.3991,-2.4269,-2.3991,-2.3403,-2.2625,-2.2275,-2.1989,-2.1767,-2.1624,-2.1666,-2.1877,-2.1877,-2.1982,-2.2087,-2.2087,-2.2274,-2.2527,-2.2757,-2.302,-2.3393,-2.3624,-2.3921,-2.4284,-2.4647,-2.5027,-2.537,-2.8517,-2.7516,-2.6619,-2.6388,-2.5535,-2.4923,-2.4812,-2.4812,-2.448,-2.3708,-2.3516,-2.3034,-2.1886,-2.1599,-2.1242,-2.0838,-2.0751,-2.0545,-1.9879,-1.9539,-1.9361,-1.9107,-1.8555,-1.8227,-1.8016,-1.7806,-1.7582,-1.7279,-1.7279,-1.708,-1.6868,-1.6825,-1.7003,-1.7245,-1.7372,-1.7639,-1.8021,-1.8199,-1.8491,-1.8967,-1.8936,-1.921,-1.9511,-1.9511,-1.9382,-1.9335,-1.9681,-1.9615,-1.9362,-1.9726,-1.9788,-1.9707,-1.9707,-1.9822,-2.004,-2.027,-2.027,-2.027,-2.0385,-2.034,-2.028,-2.0298,-2.027,-2.027,-2.027,-2.027,-2.027,-2.027,-2.0385,-2.0385,-2.0385,-2.05,-2.063,-2.063,-2.0701,-2.0772,-2.0989,-2.1262,-2.1597,-2.1847,-2.2125,-2.2315,-2.2436,-2.2715,-2.2907,-2.3015,-2.3237,-2.3604,-2.3852,-2.4363,-2.4624,-2.4754,-2.4642,-2.4229,-2.3514,-2.2942,-2.2576,-2.2225,-2.222,-2.228,-2.2601,-2.2601,-2.2708,-2.2921,-2.2921,-2.2988,-2.3228,-2.3478,-2.3661,-2.3904,-2.4044,-2.4474,-2.4842,-2.521,-2.5477,-2.584,-2.8636,-2.7885,-2.7079,-2.6504,-2.5743,-2.5128,-2.4812,-2.4812,-2.4675,-2.4282,-2.4013,-2.3527,-2.2787,-2.2182,-2.1739,-2.1366,-2.0822,-2.0648,-2.0885,-2.0235,-1.948,-1.875,-1.8869,-1.866,-1.8016,-1.8016,-1.7911,-1.7582,-1.7384,-1.7173,-1.7186,-1.7244,-1.7194,-1.727,-1.7779,-1.8008,-1.8046,-1.8606,-1.8967,-1.8992,-1.9153,-1.9511,-1.9768,-1.9768,-2.0011,-2.0241,-2.0591,-2.052,-2.0392,-2.0746,-2.0536,-2.0284,-2.027,-2.027,-2.027,-2.027,-2.027,-2.0385,-2.0601,-2.0959,-2.1117,-2.047,-2.0284,-2.0284,-2.0284,-2.0284,-2.0284,-2.0284,-2.05,-2.0716,-2.0716,-2.0974,-2.1218,-2.1218,-2.1481,-2.1701,-2.1701,-2.1979,-2.2184,-2.2184,-2.2447,-2.2745,-2.311,-2.3409,-2.3728,-2.41,-2.4115,-2.4239,-2.461,-2.461,-2.4734,-2.5103,-2.477,-2.4579,-2.4579,-2.3546,-2.2959,-2.2921,-2.2565,-2.2617,-2.2938,-2.2938,-2.2938,-2.2938,-2.2938,-2.3245,-2.3813,-2.3813,-2.4251,-2.483,-2.483,-2.5052,-2.5412,-2.5806,-2.5948,-2.6201,-2.9213,-2.8217,-2.7211,-2.7097,-2.5969,-2.5221,-2.5128,-2.4923,-2.4675,-2.4282,-2.4122,-2.3827,-2.3246,-2.254,-2.2045,-2.1723,-2.1171,-2.0719,-2.0632,-2.0101,-1.9583,-1.9361,-1.9078,-1.8869,-1.866,-1.8227,-1.7911,-1.7911,-1.7595,-1.7596,-1.7809,-1.778,-1.7934,-1.8354,-1.8512,-1.8915,-1.9311,-1.9483,-1.98,-2.0169,-2.0262,-2.042,-2.073,-2.073,-2.0846,-2.0903,-2.1026,-2.0956,-2.0934,-2.1054,-2.0998,-2.0872,-2.0897,-2.0943,-2.09,-2.0917,-2.1249,-2.1656,-2.1772,-2.2126,-2.2408,-2.1861,-2.1818,-2.2098,-2.2333,-2.2333,-2.2273,-2.1933,-2.2004,-2.1989,-2.1989,-2.212,-2.2311,-2.2538,-2.2659,-2.2734,-2.2734,-2.3006,-2.3218,-2.3218,-2.3505,-2.3716,-2.384,-2.3931,-2.3976,-2.41,-2.4363,-2.4487,-2.461,-2.4857,-2.498,-2.5103,-2.5253,-2.5198,-2.4956,-2.4392,-2.4153,-2.4055,-2.3909,-2.4066,-2.429,-2.4038,-2.4031,-2.4251,-2.4251,-2.4429,-2.4734,-2.4734,-2.5023,-2.5494,-2.5758,-2.6109,-2.6496,-2.6667,-2.6796,-2.7125,-2.9568,-2.8566,-2.7555,-2.7326,-2.6323,-2.5459,-2.5221,-2.5017,-2.4837,-2.4487,-2.447,-2.4207,-2.3708,-2.3168,-2.2756,-2.229,-2.1547,-2.0964,-2.0529,-2.0205,-1.9894,-1.9687,-1.9376,-1.9078,-1.8869,-1.8555,-1.8401,-1.8406,-1.8088,-1.8104,-1.836,-1.8536,-1.8736,-1.9065,-1.9428,-1.9815,-2.0169,-2.04,-2.0713,-2.1053,-2.1175,-2.1325,-2.1488,-2.1488,-2.1491,-2.159,-2.1714,-2.1642,-2.1619,-2.1726,-2.1655,-2.1646,-2.1802,-2.1744,-2.1818,-2.1978,-2.2315,-2.2583,-2.2583,-2.2944,-2.3261,-2.3062,-2.2944,-2.2989,-2.3108,-2.3227,-2.3165,-2.2849,-2.2818,-2.2818,-2.2818,-2.2818,-2.2879,-2.3196,-2.3334,-2.3306,-2.3306,-2.3596,-2.3795,-2.3795,-2.3978,-2.4115,-2.4239,-2.4363,-2.4363,-2.461,-2.4857,-2.5103,-2.5226,-2.5477,-2.5681,-2.5681,-2.6075,-2.6183,-2.5954,-2.5715,-2.5423,-2.4994,-2.4895,-2.5009,-2.5239,-2.5133,-2.5031,-2.5258,-2.5371,-2.5466,-2.5674,-2.5804,-2.6028,-2.6175,-2.6406,-2.6743,-2.7115,-2.7229,-2.7445,-2.7764,-2.9686,-2.8816,-2.8048,-2.7441,-2.6695,-2.5934,-2.5348,-2.5221,-2.5128,-2.4923,-2.4812,-2.4675,-2.4333,-2.3921,-2.3553,-2.2988,-2.2006,-2.1265,-2.0638,-2.0607,-2.04,-1.9866,-1.9866,-1.9568,-1.906,-1.8926,-1.895,-1.9006,-1.8711,-1.8713,-1.9002,-1.9319,-1.9549,-1.9564,-2.0386,-2.0788,-2.0977,-2.1418,-2.167,-2.1726,-2.2006,-2.2104,-2.2104,-2.2104,-2.2104,-2.223,-2.248,-2.242,-2.2299,-2.2544,-2.2491,-2.2377,-2.2692,-2.2796,-2.2781,-2.3123,-2.3242,-2.3273,-2.3273,-2.3518,-2.3885,-2.4264,-2.3909,-2.3438,-2.3438,-2.3438,-2.3422,-2.3392,-2.3392,-2.3392,-2.3392,-2.3392,-2.3407,-2.3422,-2.3685,-2.3764,-2.3764,-2.404,-2.4224,-2.4224,-2.4224,-2.4363,-2.4734,-2.4734,-2.498,-2.561,-2.5643,-2.5766,-2.6116,-2.648,-2.6678,-2.6678,-2.7008,-2.7189,-2.7189,-2.7219,-2.6655,-2.5629,-2.5562,-2.5761,-2.5994,-2.596,-2.5943,-2.5925,-2.6273,-2.6388,-2.6504,-2.6849,-2.6982,-2.6982,-2.7018,-2.7249,-2.7552,-2.7587,-2.7837,-2.8126,-3.0274,-2.9389,-2.8477,-2.8048,-2.7249,-2.6367,-2.5952,-2.5679,-2.5459,-2.5128,-2.5128,-2.4982,-2.4693,-2.42,-2.3762,-2.357,-2.2699,-2.2028,-2.1735,-2.1522,-2.1308,-2.1201,-2.0987,-2.0665,-2.0357,-1.957,-1.9391,-1.9721,-1.9382,-1.9292,-1.9556,-1.9904,-2.0211,-2.0517,-2.0956,-2.1222,-2.146,-2.16,-2.1796,-2.202,-2.209,-2.2104,-2.2104,-2.2104,-2.223,-2.248,-2.2606,-2.2688,-2.2879,-2.3251,-2.3331,-2.3365,-2.3339,-2.3369,-2.3323,-2.3184,-2.353,-2.3987,-2.4228,-2.4722,-2.5237,-2.5587,-2.5538,-2.5351,-2.5124,-2.5246,-2.5391,-2.5131,-2.5082,-2.5082,-2.5082,-2.5082,-2.5163,-2.5424,-2.5538,-2.5587,-2.5587,-2.5652,-2.57,-2.57,-2.57,-2.57,-2.5823,-2.5823,-2.5839,-2.5961,-2.6224,-2.6389,-2.6496,-2.6859,-2.7057,-2.7057,-2.7394,-2.7554,-2.7554,-2.7849,-2.7543,-2.6772,-2.6423,-2.6371,-2.6354,-2.6062,-2.6041,-2.6273,-2.6388,-2.6619,-2.7079,-2.7211,-2.7326,-2.7687,-2.79,-2.8082,-2.8191,-2.8264,-2.8325,-2.8505,-3.0392,-2.9813,-2.9049,-2.8294,-2.7641,-2.6902,-2.619,-2.6008,-2.5789,-2.5459,-2.5331,-2.511,-2.5017,-2.4514,-2.4107,-2.3813,-2.3069,-2.2457,-2.2188,-2.1957,-2.1742,-2.165,-2.1434,-2.1341,-2.1263,-2.0674,-2.0347,-2.0267,-1.9957,-2.0033,-2.0472,-2.0642,-2.0897,-2.1208,-2.1626,-2.199,-2.2148,-2.2305,-2.2462,-2.2606,-2.2606,-2.2606,-2.2606,-2.2606,-2.2731,-2.2856,-2.2856,-2.3106,-2.3355,-2.3728,-2.3852,-2.3822,-2.4024,-2.4085,-2.4055,-2.4248,-2.4569,-2.4833,-2.5182,-2.557,-2.5839,-2.6083,-2.6327,-2.6449,-2.5961,-2.5961,-2.6017,-2.5836,-2.5803,-2.5852,-2.6034,-2.6067,-2.6182,-2.6546,-2.6595,-2.6595,-2.6595,-2.6595,-2.6595,-2.6595,-2.672,-2.6968,-2.7092,-2.7216,-2.7092,-2.7092,-2.7277,-2.7395,-2.7395,-2.7765,-2.7966,-2.7966,-2.8246,-2.8459,-2.8459,-2.8845,-2.8887,-2.8426,-2.7655,-2.7417,-2.7522,-2.7332,-2.7366,-2.7727,-2.7966,-2.8206,-2.8444,-2.8582,-2.8692,-2.8645,-2.8865,-2.8847,-2.8718,-2.8883,-2.9283,-2.9665,-3.0509,-3.0103,-2.9604,-2.854,-2.8033,-2.7419,-2.6409,-2.6227,-2.6118,-2.5789,-2.5569,-2.5331,-2.5221,-2.4923,-2.4582,-2.393,-2.3459,-2.2999,-2.2689,-2.2457,-2.2148,-2.1931,-2.1822,-2.1853,-2.19,-2.185,-2.1541,-2.0935,-2.0754,-2.0845,-2.1392,-2.145,-2.1608,-2.1881,-2.2442,-2.271,-2.2848,-2.3113,-2.323,-2.323,-2.323,-2.323,-2.323,-2.323,-2.323,-2.323,-2.323,-2.3479,-2.3743,-2.41,-2.4239,-2.4239,-2.461,-2.4734,-2.4857,-2.5472,-2.5733,-2.5733,-2.6083,-2.6205,-2.6311,-2.6311,-2.6813,-2.7073,-2.6571,-2.6432,-2.6432,-2.6432,-2.6482,-2.6616,-2.6934,-2.7052,-2.7186,-2.752,-2.7571,-2.7571,-2.7571,-2.7571,-2.7571,-2.7571,-2.7807,-2.8043,-2.842,-2.842,-2.8438,-2.8312,-2.8381,-2.8415,-2.8415,-2.8793,-2.9163,-2.9232,-2.9509,-2.9567,-2.9636,-3.0031,-3.0162,-3.0162,-2.9258,-2.8893,-2.899,-2.899,-2.9133,-2.9511,-2.969,-2.9779,-2.9904,-3.0098,-3.0002,-2.9672,-2.9672,-2.947,-2.9232,-2.9683,-3.0272,-3.0917,-3.0879,-3.0587,-3.0045,-2.9163,-2.8728,-2.8201,-2.6992,-2.6881,-2.6663,-2.6118,-2.6008,-2.5789,-2.5221,-2.4923,-2.4684,-2.43,-2.4189,-2.4044,-2.3772,-2.3438,-2.3326,-2.3215,-2.2991,-2.2654,-2.2445,-2.2772,-2.2605,-2.2146,-2.1915,-2.1979,-2.2125,-2.2253,-2.2399,-2.2457,-2.2901,-2.3171,-2.342,-2.3464,-2.3728,-2.3976,-2.3976,-2.3976,-2.3976,-2.3976,-2.3976,-2.3976,-2.3976,-2.3976,-2.4115,-2.4363,-2.4487,-2.461,-2.5242,-2.5488,-2.5488,-2.5961,-2.6083,-2.6083,-2.6449,-2.6692,-2.7056,-2.728,-2.7642,-2.79,-2.7779,-2.7779,-2.7779,-2.7779,-2.8043,-2.8289,-2.8342,-2.8623,-2.8887,-2.894,-2.894,-2.894,-2.894,-2.894,-2.894,-2.894,-2.894,-2.9065,-2.9065,-2.9065,-2.9065,-2.9065,-2.9383,-2.9559,-2.9559,-2.9948,-3.0319,-3.0654,-3.0707,-3.0901,-3.1255,-3.1389,-3.1389,-3.1389,-3.1149,-3.0857,-3.0183,-3.0183,-3.0312,-3.0699,-3.0356,-3.0339,-3.0681,-3.0332,-3.0167,-3.0112,-3.0112,-3.0094,-3.0039,-3.0464,-3.0885,-3.1276,-3.1112,-3.0879,-3.0374,-2.9276,-2.901,-2.8499,-2.7446,-2.7098,-2.6881,-2.6663,-2.6336,-2.6008,-2.5789,-2.5348,-2.5017,-2.4906,-2.459,-2.4384,-2.4144,-2.3921,-2.3697,-2.3697,-2.3667,-2.3552,-2.3438,-2.3541,-2.3513,-2.3355,-2.2925,-2.2825,-2.3037,-2.3051,-2.3215,-2.3394,-2.3544,-2.3728,-2.3852,-2.3852,-2.3976,-2.4115,-2.4115,-2.4115,-2.4115,-2.4115,-2.4115,-2.4115,-2.4363,-2.4363,-2.4487,-2.498,-2.5119,-2.5226,-2.5717,-2.5839,-2.5961,-2.6327,-2.6449,-2.6692,-2.7056,-2.7297,-2.7659,-2.7779,-2.802,-2.8277,-2.8277,-2.8618,-2.8737,-2.814,-2.8321,-2.8658,-2.8889,-2.9243,-2.958,-2.9811,-2.9846,-2.9846,-2.9846,-2.9974,-3.0356,-3.0719,-3.092,-3.1066,-3.1066,-3.1267,-3.1283,-3.0894,-3.0924,-3.1014,-3.0768,-3.0928,-3.1105,-3.1283,-3.1283,-3.1371,-3.1549,-3.2033,-3.2384,-3.2618,-3.2972,-3.2521,-3.1396,-3.1396,-3.1529,-3.1793,-3.1611,-3.1669,-3.1781,-3.1616,-3.1414,-3.1212,-3.1212,-3.1193,-3.1225,-3.1233,-3.1527,-3.1922]},{"header":{"parameterUnit":"m.s-1","parameterCategory":1,"la1":30.6,"la2":28.766,"lo1":-90.7593,"lo2":-88.6598,"dy":0.0162,"dx":0.0183,"nx":116,"ny":114,"refTime":"2023-06-15T12:00:00:Z","depth":0,"parameterNumber":3,"parameterNumberName":"V-component_of_WINDS"},"data":[0.0,0.0,0.0,0.0,0.0,0.0,0.0,0.0,0.0,0.0,0.0,0.0,0.0,0.0,0.0,0.0,0.0,0.0,0.0,0.0,0.0,0.0,0.0,0.0,0.0,0.0,0.0,0.0,0.0,0.0,0.0,0.0,0.0,0.0,0.0,0.0,0.0,0.0,0.0,0.0,0.0,0.0,0.0,0.0,0.0,0.0,0.0,0.0,0.0,0.0,0.0,0.0,0.0,0.0,0.0,0.0,0.0,0.0,0.0,0.0,0.0,0.0,0.0,0.0,0.0,0.0,0.0,0.0,0.0,0.0,0.0,0.0,0.0,0.0,0.0,0.0,0.0,0.0,0.0,0.0,0.0,0.0,0.0,0.0,0.0,0.0,0.0,0.0,0.0,0.0,0.0,0.0,0.0,0.0,0.0,0.0,0.0,0.0,0.0,0.0,0.0,0.0,0.0,0.0,0.0,0.0,0.0,0.0,0.0,0.0,0.0,0.0,0.0,0.0,0.0,0.0,0.0,0.0,0.0,0.0,0.0,0.0,0.0,0.0,0.0,0.0,0.0,0.0,0.0,0.0,0.0,0.0,0.0,0.0,0.0,0.0,0.0,0.0,0.0,0.0,0.0,0.0,0.0,0.0,0.0,0.0,0.0,0.0,0.0,0.0,0.0,0.0,0.0,0.0,0.0,0.0,0.0,0.0,0.0,0.0,0.0,0.0,0.0,0.0,0.0,0.0,0.0,0.0,0.0,0.0,0.0,0.0,0.0,0.0,0.0,0.0,0.0,0.0,0.0,0.0,0.0,0.0,0.0,0.0,0.0,0.0,0.0,0.0,0.0,0.0,0.0,0.0,0.0,0.0,0.0,0.0,0.0,0.0,0.0,0.0,0.0,0.0,0.0,0.0,0.0,0.0,0.0,0.0,0.0,0.0,0.0,0.0,0.0,0.0,0.0,0.0,0.0,0.0,0.0,0.0,0.0,0.0,0.0,0.0,0.0,0.0,0.0,0.0,0.0,0.0,0.0,0.0,0.0,0.0,0.0,0.0,0.0,0.0,0.0,0.0,0.0,0.0,0.0,0.0,0.0,0.0,0.0,0.0,0.0,0.0,0.0,0.0,0.0,0.0,0.0,0.0,0.0,0.0,0.0,0.0,0.0,0.0,0.0,0.0,0.0,0.0,0.0,0.0,0.0,0.0,0.0,0.0,0.0,0.0,0.0,0.0,0.0,0.0,0.0,0.0,0.0,0.0,0.0,0.0,0.0,0.0,0.0,0.0,0.0,0.0,0.0,0.0,0.0,0.0,0.0,0.0,0.0,0.0,0.0,0.0,0.0,0.0,0.0,0.0,0.0,0.0,0.0,0.0,0.0,0.0,0.0,0.0,0.0,0.0,0.0,0.0,0.0,0.0,0.0,0.0,0.0,0.0,0.0,0.0,0.0,0.0,0.0,0.0,0.0,0.0,0.0,0.0,0.0,0.0,0.0,0.0,0.0,0.0,0.0,0.0,0.0,0.0,0.0,0.0,0.0,0.0,0.0,0.0,0.0,0.0,0.0,0.0,0.0,0.0,0.0,0.0,0.0,0.0,0.0,0.0,0.0,0.0,0.0,0.0,0.0,0.0,0.0,0.0,0.0,0.0,0.0,0.0,0.0,0.0,0.0,0.0,0.0,0.0,0.0,0.0,0.0,0.0,0.0,0.0,0.0,0.0,0.0,0.0,0.0,0.0,0.0,0.0,0.0,0.0,0.0,0.0,0.0,0.0,0.0,0.0,0.0,0.0,0.0,0.0,0.0,0.0,0.0,0.0,0.0,0.0,0.0,0.0,0.0,0.0,0.0,0.0,0.0,0.0,0.0,0.0,0.0,0.0,0.0,0.0,0.0,0.0,0.0,0.0,0.0,0.0,0.0,0.0,0.0,0.0,0.0,0.0,0.0,0.0,0.0,0.0,0.0,0.0,0.0,0.0,0.0,0.0,0.0,0.0,0.0,0.0,0.0,0.0,0.0,0.0,0.0,0.0,0.0,0.0,0.0,0.0,0.0,0.0,0.0,0.0,0.0,0.0,0.0,0.0,0.0,0.0,0.0,0.0,0.0,0.0,0.0,0.0,0.0,0.0,0.0,0.0,0.0,0.0,0.0,0.0,0.0,0.0,0.0,0.0,0.0,0.0,0.0,0.0,0.0,0.0,0.0,0.0,0.0,0.0,0.0,0.0,0.0,0.0,0.0,0.0,0.0,0.0,0.0,0.0,0.0,0.0,0.0,0.0,0.0,0.0,0.0,0.0,0.0,0.0,0.0,0.0,0.0,0.0,0.0,0.0,0.0,0.0,0.0,0.0,0.0,0.0,0.0,0.0,0.0,0.0,0.0,0.0,0.0,0.0,0.0,0.0,0.0,0.0,0.0,0.0,0.0,0.0,0.0,0.0,0.0,0.0,0.0,0.0,0.0,0.0,0.0,0.0,0.0,0.0,0.0,0.0,0.0,0.0,0.0,0.0,0.0,0.0,0.0,0.0,0.0,0.0,0.0,0.0,0.0,0.0,0.0,0.0,0.0,0.0,0.0,0.0,0.0,0.0,0.0,0.0,0.0,0.0,0.0,0.0,0.0,0.0,0.0,0.0,0.0,0.0,0.0,0.0,0.0,0.0,0.0,0.0,0.0,0.0,0.0,0.0,0.0,0.0,0.0,0.0,0.0,0.0,0.0,0.0,0.0,0.0,0.0,0.0,0.0,0.0,0.0,0.0,0.0,0.0,0.0,0.0,0.0,0.0,0.0,0.0,0.0,0.0,0.0,0.0,0.0,0.0,0.0,0.0,0.0,0.0,0.0,0.0,0.0,0.0,0.0,0.0,0.0,0.0,0.0,0.0,0.0,0.0,0.0,0.0,0.0,0.0,0.0,0.0,0.0,0.0,0.0,0.0,0.0,0.0,0.0,0.0,0.0,0.0,0.0,0.0,0.0,0.0,0.0,0.0,0.0,0.0,0.0,0.0,0.0,0.0,0.0,0.0,0.0,0.0,0.0,0.0,0.0,0.0,0.0,0.0,0.0,0.0,0.0,0.0,0.0,0.0,0.0,0.0,0.0,0.0,0.0,0.0,0.0,0.0,0.0,0.0,0.0,0.0,0.0,0.0,0.0,0.0,0.0,0.0,0.0,0.0,0.0,0.0,0.0,0.0,0.0,0.0,0.0,0.0,0.0,0.0,0.0,0.0,0.0,0.0,0.0,0.0,0.0,0.0,0.0,0.0,0.0,0.0,0.0,0.0,0.0,0.0,0.0,0.0,0.0,0.0,0.0,0.0,0.0,0.0,0.0,0.0,0.0,0.0,0.0,0.0,0.0,0.0,0.0,0.0,0.0,0.0,0.0,0.0,0.0,0.0,0.0,0.0,0.0,0.0,0.0,0.0,0.0,0.0,0.0,0.0,0.0,0.0,0.0,0.0,0.0,0.0,0.0,0.0,0.0,0.0,0.0,0.0,0.0,0.0,0.0,0.0,0.0,0.0,0.0,0.0,0.0,0.0,0.0,0.0,0.0,0.0,0.0,0.0,0.0,0.0,0.0,0.0,0.0,0.0,0.0,0.0,0.0,0.0,0.0,0.0,0.0,0.0,0.0,0.0,0.0,0.0,0.0,0.0,0.0,0.0,0.0,0.0,0.0,0.0,0.0,0.0,0.0,0.0,0.0,0.0,0.0,0.0,0.0,0.0,0.0,0.0,0.0,0.0,0.0,0.0,0.0,0.0,0.0,0.0,0.0,0.0,0.0,0.0,0.0,0.0,0.0,0.0,0.0,0.0,0.0,0.0,0.0,0.0,0.0,0.0,0.0,0.0,0.0,0.0,0.0,0.0,0.0,0.0,0.0,0.0,0.0,0.0,0.0,0.0,0.0,0.0,0.0,0.0,0.0,0.0,0.0,0.0,0.0,0.0,0.0,0.0,0.0,0.0,0.0,0.0,0.0,0.0,0.0,0.0,0.0,0.0,0.0,0.0,0.0,0.0,0.0,0.0,0.0,0.0,0.0,0.0,0.0,0.0,0.0,0.0,0.0,0.0,0.0,0.0,0.0,0.0,0.0,0.0,0.0,0.0,0.0,0.0,0.0,0.0,0.0,0.0,0.0,0.0,0.0,0.0,0.0,0.0,0.0,0.0,0.0,0.0,0.0,0.0,0.0,0.0,0.0,0.0,0.0,0.0,0.0,0.0,0.0,0.0,0.0,0.0,0.0,0.0,0.0,0.0,0.0,0.0,0.0,0.0,0.0,0.0,0.0,0.0,0.0,0.0,0.0,0.0,0.0,0.0,0.0,0.0,0.0,0.0,0.0,0.0,0.0,0.0,0.0,0.0,0.0,0.0,0.0,0.0,0.0,0.0,0.0,0.0,0.0,0.0,0.0,0.0,0.0,0.0,0.0,0.0,0.0,0.0,0.0,0.0,0.0,0.0,0.0,0.0,0.0,0.0,0.0,0.0,0.0,0.0,0.0,0.0,0.0,0.0,0.0,0.0,0.0,0.0,0.0,0.0,0.0,0.0,0.0,0.0,0.0,0.0,0.0,0.0,0.0,0.0,0.0,0.0,0.0,0.0,0.0,0.0,0.0,0.0,0.0,0.0,0.0,0.0,0.0,0.0,0.0,0.0,0.0,0.0,0.0,0.0,0.0,0.0,0.0,0.0,0.0,0.0,0.0,0.0,0.0,0.0,0.0,0.0,0.0,0.0,0.0,0.0,0.0,0.0,0.0,0.0,0.0,0.0,0.0,0.0,0.0,0.0,0.0,0.0,0.0,0.0,0.0,0.0,0.0,0.0,0.0,0.0,0.0,0.0,0.0,0.0,0.0,0.0,0.0,0.0,0.0,0.0,0.0,0.0,0.0,0.0,0.0,0.0,0.0,0.0,0.0,0.0,0.0,0.0,0.0,0.0,0.0,0.0,0.0,0.0,0.0,0.0,0.0,0.0,0.0,0.0,0.0,0.0,0.0,0.0,0.0,0.0,0.0,0.0,0.0,0.0,0.0,0.0,0.0,0.0,0.0,0.0,0.0,0.0,0.0,0.0,0.0,0.0,0.0,0.0,0.0,0.0,0.0,0.0,0.0,0.0,0.0,0.0,0.0,0.0,0.0,0.0,0.0,0.0,0.0,0.0,0.0,0.0,0.0,0.0,0.0,0.0,0.0,0.0,0.0,0.0,0.0,0.0,0.0,0.0,0.0,0.0,0.0,0.0,0.0,0.0,0.0,0.0,0.0,0.0,0.0,0.0,0.0,0.0,0.0,0.0,0.0,0.0,0.0,0.0,0.0,0.0,0.0,0.0,0.0,0.0,0.0,0.0,0.0,0.0,0.0,0.0,0.0,0.0,0.0,0.0,0.0,0.0,0.0,0.0,0.0,0.0,0.0,0.0,0.0,0.0,0.0,0.0,0.0,0.0,0.0,0.0,0.0,0.0,0.0,0.0,0.0,0.0,0.0,0.0,0.0,0.0,0.0,0.0,0.0,0.0,0.0,0.0,0.0,0.0,0.0,0.0,0.0,0.0,0.0,0.0,0.0,0.0,0.0,0.0,0.0,0.0,0.0,0.0,0.0,0.0,0.0,0.0,0.0,0.0,0.0,0.0,0.0,0.0,0.0,0.0,0.0,0.0,0.0,0.0,0.0,0.0,0.0,0.0,0.0,0.0,0.0,0.0,0.0,0.0,0.0,0.0,0.0,0.0,0.0,0.0,0.0,0.0,0.0,0.0,0.0,0.0,0.0,0.0,0.0,0.0,0.0,0.0,0.0,0.0,0.0,0.0,0.0,0.0,0.0,0.0,0.0,0.0,0.0,0.0,0.0,0.0,0.0,0.0,0.0,0.0,0.0,0.0,0.0,0.0,0.0,0.0,0.0,0.0,0.0,0.0,0.0,0.0,0.0,0.0,0.0,0.0,0.0,0.0,0.0,0.0,0.0,0.0,0.0,0.0,0.0,0.0,0.0,0.0,0.0,0.0,0.0,0.0,0.0,0.0,0.0,0.0,0.0,0.0,0.0,0.0,0.0,0.0,0.0,0.0,0.0,0.0,0.0,0.0,0.0,0.0,0.0,0.0,0.0,0.0,0.0,0.0,0.0,0.0,-1.7281,0.0,0.0,0.0,0.0,0.0,0.0,0.0,0.0,0.0,0.0,0.0,0.0,0.0,0.0,0.0,0.0,0.0,0.0,0.0,0.0,0.0,0.0,0.0,0.0,0.0,0.0,0.0,0.0,0.0,0.0,0.0,0.0,0.0,0.0,0.0,0.0,0.0,0.0,0.0,0.0,0.0,0.0,0.0,0.0,0.0,0.0,0.0,0.0,0.0,0.0,0.0,0.0,0.0,0.0,0.0,0.0,0.0,0.0,0.0,0.0,0.0,0.0,0.0,0.0,0.0,0.0,0.0,0.0,0.0,0.0,0.0,0.0,0.0,0.0,0.0,0.0,0.0,0.0,0.0,0.0,0.0,0.0,0.0,0.0,0.0,0.0,0.0,0.0,0.0,0.0,0.0,0.0,0.0,0.0,0.0,0.0,0.0,0.0,0.0,0.0,0.0,0.0,0.0,0.0,0.0,0.0,0.0,0.0,0.0,0.0,0.0,0.0,0.0,0.0,0.0,0.0,-1.9329,0.0,0.0,0.0,0.0,0.0,0.0,0.0,0.0,0.0,0.0,0.0,0.0,0.0,0.0,0.0,0.0,0.0,0.0,0.0,0.0,0.0,0.0,0.0,0.0,0.0,0.0,0.0,0.0,0.0,0.0,0.0,0.0,0.0,0.0,0.0,0.0,0.0,0.0,0.0,0.0,0.0,0.0,0.0,0.0,0.0,0.0,0.0,0.0,0.0,0.0,0.0,0.0,0.0,0.0,0.0,0.0,0.0,0.0,0.0,0.0,0.0,0.0,0.0,0.0,0.0,0.0,0.0,0.0,0.0,0.0,0.0,0.0,0.0,0.0,0.0,0.0,0.0,0.0,0.0,0.0,0.0,0.0,0.0,0.0,0.0,0.0,0.0,0.0,0.0,0.0,0.0,0.0,0.0,0.0,0.0,0.0,0.0,0.0,0.0,0.0,0.0,0.0,0.0,0.0,0.0,0.0,0.0,0.0,0.0,0.0,-2.7991,-2.8662,-2.8966,-2.8768,-2.5005,-2.3029,-2.247,0.0,0.0,0.0,0.0,0.0,0.0,0.0,0.0,0.0,0.0,0.0,0.0,0.0,0.0,0.0,0.0,0.0,0.0,0.0,0.0,0.0,0.0,0.0,0.0,0.0,0.0,0.0,0.0,0.0,0.0,0.0,0.0,0.0,0.0,0.0,0.0,0.0,0.0,0.0,-2.5855,-2.7385,-2.7484,-2.6274,-2.3274,0.0,0.0,0.0,0.0,0.0,0.0,0.0,0.0,0.0,0.0,0.0,0.0,0.0,0.0,0.0,0.0,0.0,0.0,0.0,0.0,0.0,0.0,0.0,0.0,0.0,0.0,0.0,0.0,0.0,0.0,0.0,0.0,0.0,0.0,0.0,0.0,0.0,0.0,0.0,0.0,0.0,0.0,0.0,-2.0595,-1.9878,0.0,0.0,0.0,0.0,0.0,0.0,0.0,0.0,0.0,0.0,0.0,0.0,0.0,0.0,-2.7266,-2.8327,-2.9204,-2.9888,-3.0492,-3.1133,-3.1858,-3.2001,-3.2045,-3.2034,-3.0799,0.0,-2.6257,-2.4806,0.0,0.0,0.0,0.0,0.0,0.0,0.0,0.0,0.0,0.0,0.0,0.0,0.0,0.0,0.0,0.0,0.0,0.0,0.0,0.0,0.0,0.0,0.0,0.0,0.0,0.0,0.0,0.0,0.0,0.0,0.0,0.0,0.0,0.0,0.0,0.0,-2.4739,-2.7493,-3.0075,-3.0854,-3.1571,-3.2122,-3.0621,-2.7852,-2.4312,-2.3466,0.0,0.0,0.0,0.0,0.0,0.0,0.0,0.0,0.0,0.0,0.0,0.0,0.0,0.0,0.0,0.0,0.0,0.0,0.0,0.0,0.0,0.0,0.0,0.0,0.0,0.0,0.0,0.0,0.0,0.0,0.0,0.0,0.0,0.0,0.0,0.0,0.0,0.0,0.0,-2.2028,-2.2975,-2.2959,-2.3225,-2.3171,0.0,0.0,0.0,0.0,0.0,0.0,0.0,0.0,0.0,-2.9674,-3.0595,-3.1276,-3.1837,-3.2645,-3.3143,-3.3349,-3.3951,-3.4439,-3.4772,-3.5171,-3.5371,-3.5352,-3.4618,-3.3551,-3.2074,-2.8865,-2.7367,-2.7005,0.0,0.0,0.0,0.0,0.0,-2.7168,0.0,0.0,0.0,0.0,0.0,0.0,0.0,0.0,0.0,0.0,0.0,0.0,0.0,0.0,0.0,-1.8203,0.0,0.0,0.0,0.0,0.0,0.0,0.0,0.0,0.0,0.0,0.0,0.0,-2.8466,-3.0906,-3.3796,-3.4288,-3.5238,-3.6469,-3.6699,-3.3583,-2.8159,-2.7313,-2.5871,0.0,0.0,0.0,0.0,0.0,0.0,0.0,0.0,0.0,0.0,0.0,0.0,0.0,0.0,0.0,0.0,0.0,0.0,0.0,0.0,0.0,0.0,0.0,0.0,0.0,0.0,0.0,0.0,0.0,0.0,0.0,0.0,0.0,0.0,0.0,0.0,0.0,0.0,-2.481,-2.5772,-2.6754,-2.6795,-2.677,0.0,0.0,0.0,0.0,0.0,0.0,-3.0571,-3.1614,-3.2648,-3.3704,-3.4929,-3.5665,-3.5966,-3.6669,-3.7058,-3.7043,-3.7523,-3.7797,-3.7917,-3.8488,-3.8757,-3.869,-3.7984,-3.7648,-3.7312,-3.2871,-3.0998,-3.0771,-2.9777,-2.9732,0.0,-2.9721,-3.0246,-3.1289,0.0,0.0,0.0,0.0,0.0,0.0,0.0,0.0,0.0,0.0,0.0,0.0,0.0,0.0,-1.9926,-2.0828,-2.0903,-2.0613,0.0,0.0,0.0,0.0,0.0,0.0,0.0,0.0,0.0,-2.9956,-3.2527,-3.4664,-3.6427,-3.817,-3.9008,-3.9123,-3.9892,-3.7392,-3.2545,-3.1737,-2.9913,-2.7422,0.0,0.0,0.0,0.0,0.0,0.0,0.0,0.0,0.0,0.0,0.0,0.0,0.0,0.0,0.0,0.0,0.0,0.0,0.0,0.0,0.0,0.0,0.0,0.0,0.0,0.0,0.0,0.0,0.0,0.0,0.0,0.0,0.0,0.0,0.0,0.0,0.0,0.0,0.0,-3.1191,-3.1264,0.0,0.0,0.0,0.0,-3.2788,-3.3469,-3.4412,-3.5659,-3.6303,-3.6883,-3.7327,-3.8593,-3.9083,-3.8816,-4.0019,-4.0844,-4.1305,-4.1273,-4.1494,-4.2035,-4.2068,-4.2068,-4.2035,-4.1357,-4.1052,-4.073,-3.6673,-3.4768,-3.4336,-3.4269,-3.3964,-3.3596,-3.3727,-3.4367,-3.5183,0.0,0.0,0.0,0.0,0.0,0.0,0.0,0.0,0.0,0.0,0.0,0.0,0.0,-2.0226,-2.1768,-2.2639,-2.2714,-2.2627,-2.24,0.0,0.0,0.0,0.0,0.0,0.0,0.0,-3.007,-3.263,-3.5216,-3.7354,-3.909,-4.029,-4.1168,-4.1777,-4.2047,-4.0854,-3.8507,-3.6584,-3.3955,-3.1009,-2.9003,-2.7421,0.0,0.0,0.0,0.0,0.0,0.0,0.0,0.0,0.0,0.0,0.0,0.0,0.0,0.0,0.0,0.0,0.0,0.0,0.0,0.0,0.0,0.0,0.0,0.0,0.0,0.0,0.0,0.0,0.0,0.0,0.0,0.0,0.0,0.0,0.0,0.0,0.0,-3.4809,-3.4931,0.0,0.0,-3.6309,-3.6557,-3.6659,-3.7286,-3.8264,-3.9571,-3.9638,-4.0336,-4.1867,-4.206,-4.227,-4.2546,-4.2717,-4.287,-4.2957,-4.2797,-4.2821,-4.2978,-4.2911,-4.2894,-4.286,-4.262,-4.2517,-4.2414,-4.0994,-3.9276,-3.7534,-3.7149,-3.6908,-3.6818,-3.6464,-3.695,-3.7977,0.0,0.0,0.0,0.0,0.0,0.0,0.0,0.0,0.0,0.0,0.0,-1.7802,-2.0376,-2.2116,-2.3573,-2.4752,-2.4827,-2.4643,-2.4182,0.0,0.0,0.0,0.0,0.0,0.0,-3.0032,-3.2592,-3.4846,-3.7419,-3.9423,-4.0837,-4.204,-4.2919,-4.3508,-4.3816,-4.347,-4.2547,-4.0854,-3.8036,-3.4583,-3.3169,-3.1465,-2.9389,0.0,0.0,0.0,0.0,0.0,0.0,0.0,0.0,0.0,0.0,0.0,0.0,0.0,0.0,0.0,0.0,0.0,0.0,0.0,0.0,0.0,0.0,0.0,0.0,0.0,0.0,0.0,0.0,0.0,0.0,0.0,0.0,0.0,0.0,0.0,-3.5987,-3.8767,-3.8968,-3.9321,-4.0345,-4.0861,-4.1016,-4.0853,-4.1411,-4.2145,-4.293,-4.2965,-4.3671,-4.526,-4.5171,-4.5389,-4.6004,-4.5899,-4.5634,-4.52,-4.5045,-4.4795,-4.4467,-4.4356,-4.4257,-4.4257,-4.4208,-4.4208,-4.4208,-4.4208,-4.3019,-4.1133,-4.0328,-4.0112,-4.0273,-3.9797,-4.0202,-4.0961,0.0,0.0,0.0,0.0,0.0,0.0,0.0,0.0,0.0,0.0,0.0,-1.9501,-2.2079,-2.3806,-2.5452,-2.7204,-2.7318,-2.6707,-2.5205,-2.5105,0.0,0.0,0.0,0.0,-2.9014,-3.2363,-3.4923,-3.6642,-3.9141,-4.0861,-4.1834,-4.3537,-4.4341,-4.4393,-4.524,-4.5163,-4.4393,-4.4393,-4.2024,-3.818,-3.7244,-3.543,-3.2993,0.0,0.0,0.0,0.0,0.0,0.0,0.0,0.0,0.0,0.0,0.0,0.0,0.0,0.0,0.0,0.0,0.0,0.0,0.0,0.0,0.0,0.0,0.0,0.0,0.0,0.0,0.0,0.0,0.0,0.0,0.0,0.0,0.0,-3.6094,-3.7534,-3.9785,-4.314,-4.3414,-4.395,-4.561,-4.5645,-4.5476,-4.535,-4.5893,-4.6126,-4.5867,-4.642,-4.6954,-4.7426,-4.7939,-4.8433,-4.898,-4.9442,-4.9216,-4.8197,-4.8128,-4.7595,-4.6708,-4.6565,-4.6517,-4.6517,-4.6372,-4.6288,-4.6288,-4.6288,-4.5866,-4.5128,-4.3938,-4.3541,-4.371,-4.3886,-4.3979,-4.4163,0.0,0.0,0.0,0.0,0.0,0.0,0.0,0.0,0.0,0.0,-1.7828,-2.0326,-2.2905,-2.5158,-2.6956,-2.8148,-2.8223,-2.8067,-2.7691,0.0,0.0,0.0,0.0,0.0,-3.2554,-3.4694,-3.6948,-3.9279,-4.117,-4.2585,-4.3521,-4.4614,-4.5168,-4.5278,-4.6163,-4.6394,-4.624,-4.6817,-4.5663,-4.3217,-3.9967,-3.79,-3.6381,0.0,0.0,0.0,0.0,0.0,0.0,0.0,0.0,0.0,0.0,0.0,0.0,0.0,0.0,0.0,0.0,0.0,0.0,0.0,0.0,0.0,0.0,0.0,0.0,0.0,0.0,0.0,0.0,0.0,0.0,0.0,0.0,-4.0629,-4.0604,-4.1512,-4.3187,-4.5987,-4.6208,-4.6539,-4.7555,-4.8105,-4.8315,-4.8181,-4.8777,-4.9276,-4.9652,-4.9671,-4.9952,-5.0546,-5.0488,-5.0415,-5.0362,-5.0383,-5.0174,-4.9611,-4.9559,-4.9316,-4.901,-4.8872,-4.878,-4.878,-4.878,-4.8733,-4.8733,-4.8733,-4.859,-4.8186,-4.567,-4.4472,-4.4163,-4.4298,-4.452,-4.4778,0.0,0.0,0.0,0.0,0.0,0.0,0.0,0.0,0.0,0.0,-1.839,-2.0714,-2.322,-2.5721,-2.7558,-2.8525,-2.8902,-2.9011,-2.8714,0.0,0.0,0.0,0.0,-3.2584,-3.4464,-3.6871,-3.882,-4.031,-4.2335,-4.3618,-4.4211,-4.5017,-4.5457,-4.5624,-4.6509,-4.6894,-4.6971,-4.7778,-4.7548,-4.6355,-4.3265,-4.1114,-3.9419,-3.6752,-3.5527,-3.5007,-3.3344,-3.1603,-3.0133,-3.0133,0.0,0.0,0.0,0.0,0.0,0.0,0.0,0.0,0.0,0.0,0.0,0.0,0.0,0.0,0.0,0.0,0.0,0.0,0.0,0.0,0.0,0.0,0.0,0.0,-4.3149,-4.5086,-4.6518,-4.6187,-4.6736,-4.927,-4.9518,-4.9765,-5.0494,-5.0937,-5.1134,-5.0972,-5.1293,-5.1576,-5.1904,-5.1678,-5.1865,-5.251,-5.2244,-5.2153,-5.2233,-5.2042,-5.1661,-5.1128,-5.1005,-5.0775,-5.032,-5.0155,-5.0105,0.0,-5.0017,-5.0017,-5.0017,-5.0017,-5.0017,0.0,0.0,0.0,0.0,0.0,-4.6794,-4.6794,0.0,0.0,0.0,0.0,0.0,0.0,0.0,0.0,0.0,0.0,0.0,-2.0652,-2.322,-2.5533,-2.7332,-2.8374,-2.9204,-2.9465,0.0,0.0,0.0,-3.0617,-3.282,-3.4568,-3.5763,-3.8744,-4.0463,-4.0731,-4.2947,-4.4133,-4.4365,-4.5055,-4.5457,-4.5624,-4.6586,-4.7048,-4.7086,-4.8009,-4.8355,-4.8125,-4.6583,-4.4514,-4.2131,-4.0359,-3.9187,-3.8295,-3.6709,-3.5007,-3.3488,-3.3411,0.0,0.0,0.0,0.0,0.0,0.0,0.0,0.0,0.0,0.0,0.0,0.0,0.0,0.0,0.0,0.0,0.0,0.0,0.0,0.0,0.0,0.0,0.0,0.0,-4.7104,-4.9433,-5.2706,-5.1206,-5.0555,-5.2512,-5.2697,-5.2912,-5.356,-5.3635,-5.3607,-5.349,-5.3455,-5.3388,0.0,0.0,0.0,0.0,0.0,-5.3908,-5.4275,-5.4056,-5.3497,-5.2604,-5.2491,-5.2044,-5.1226,-5.1148,-5.1069,-5.0986,-5.0867,-5.0826,-5.0826,-5.0826,-5.0826,-5.0748,-5.009,-4.9884,-5.0017,-5.0105,-4.984,0.0,0.0,0.0,0.0,0.0,0.0,0.0,0.0,0.0,0.0,-1.5897,-1.7701,-1.9976,-2.3145,-2.452,-2.5828,-2.7436,-2.8336,-2.9368,0.0,0.0,-3.1737,-3.4027,-3.4615,-3.625,-3.924,-3.9966,-4.1304,-4.3291,-4.3787,-4.4381,-4.515,-4.5342,-4.5438,-4.5571,-4.7183,-4.7855,-4.7971,-4.951,-4.9779,-4.9048,-4.8048,-4.6562,-4.4716,-4.2367,-4.1016,-4.0152,-3.9108,-3.7638,-3.6091,-3.5433,-3.4389,-3.3171,-3.162,0.0,0.0,0.0,0.0,0.0,0.0,0.0,0.0,0.0,0.0,0.0,0.0,0.0,0.0,0.0,0.0,0.0,0.0,0.0,0.0,-4.8633,-5.1172,-5.3472,-5.556,-5.5981,-5.5465,-5.3928,-5.3689,-5.368,-5.376,-5.4334,-5.4671,-5.4599,-5.507,-5.5596,-5.6186,-5.6069,0.0,-5.6882,-5.6797,-5.636,-5.5588,-5.5484,-5.4934,-5.3865,0.0,0.0,-5.3422,-5.3386,-5.3348,-5.3349,-5.3349,-5.3275,-5.3275,-5.3275,-5.3275,-5.3126,-5.1169,-5.0524,-5.0643,-5.0729,-5.0738,-5.0745,0.0,0.0,0.0,0.0,0.0,0.0,0.0,0.0,0.0,0.0,-1.7202,-1.9288,-2.1403,-2.313,-2.4625,-2.5913,-2.7635,0.0,0.0,-3.1345,-3.2783,-3.4943,-3.5892,-3.7566,-4.0196,-4.1094,-4.2374,-4.4017,-4.4437,-4.4916,-4.5398,-4.5381,-4.5438,-4.5552,-4.6914,-4.774,-4.8202,-4.9471,-4.9779,-4.9317,-4.8471,-4.7409,-4.6143,-4.3998,-4.2728,-4.1932,-4.1042,-3.9649,-3.8141,-3.7754,-3.6477,-3.4902,-3.4061,-3.2645,-3.1025,0.0,0.0,0.0,0.0,0.0,0.0,0.0,0.0,0.0,0.0,0.0,0.0,0.0,0.0,-4.0898,0.0,0.0,-4.9202,-5.2223,-5.4179,-5.5898,-5.7651,-5.8261,-5.8011,-5.6719,-5.6536,-5.6496,-5.6416,-5.6747,-5.6924,-5.6873,-5.7118,-5.7443,-5.7757,-5.7674,-5.7712,-5.7902,-5.7825,-5.7472,-5.677,-5.677,-5.6419,-5.5777,-5.5777,-5.5743,-5.5601,-5.5601,-5.5567,-5.557,-5.557,-5.5307,-5.4859,-5.4446,-5.4296,-5.4187,-5.3047,-5.2494,-5.2418,-5.2419,-5.2271,-5.2046,0.0,0.0,0.0,0.0,0.0,0.0,0.0,0.0,0.0,0.0,0.0,-1.8226,-1.9413,-2.1478,-2.3347,0.0,0.0,0.0,0.0,-3.161,-3.3334,-3.54,-3.6825,-3.8556,-4.0653,-4.2086,-4.3291,-4.4246,-4.4972,-4.5337,-4.5398,-4.54,-4.5419,-4.5514,-4.6473,-4.726,-4.7932,-4.8779,-4.9163,-4.9086,-4.8202,-4.7409,-4.659,-4.5009,-4.395,-4.3208,-4.2318,-4.0926,-3.9468,-3.9301,-3.7754,-3.5908,-3.5766,-3.4196,-3.2266,-3.1615,-3.069,0.0,0.0,0.0,0.0,0.0,0.0,0.0,0.0,0.0,-3.9379,-4.1857,-4.3036,-4.4645,-4.7975,-4.9969,-5.2085,-5.5067,-5.656,-5.7812,-5.9258,-5.9563,-5.9663,-5.9616,-5.929,-5.9072,-5.9014,-5.8948,-5.8898,-5.8817,-5.875,-5.8777,-5.8889,-5.8742,-5.8641,-5.8642,-5.8573,-5.8349,-5.7929,-5.7929,-5.7768,-5.7506,-5.7506,-5.7438,-5.7339,-5.7339,-5.7277,-5.7251,-5.7251,-5.6835,-5.6116,-5.5321,-5.4981,-5.4981,-5.4791,-5.456,-5.4259,-5.419,-5.3815,-5.3357,0.0,0.0,0.0,0.0,0.0,0.0,0.0,0.0,0.0,0.0,0.0,0.0,0.0,0.0,0.0,0.0,0.0,0.0,0.0,-3.1914,-3.3827,-3.7072,-3.7471,-3.909,-4.2352,-4.2659,-4.3558,-4.5163,-4.5239,-4.5277,-4.5298,-4.5398,-4.54,-4.5458,-4.6378,-4.6896,-4.7086,-4.7894,-4.824,-4.8163,-4.7355,-4.6583,-4.5748,-4.4778,-4.395,-4.3208,-4.2318,-4.0926,-3.9379,-3.8605,-3.7638,-3.6643,-3.5921,-3.501,-3.4196,-3.4101,0.0,-3.17,-3.1576,-3.2195,0.0,-3.6,-3.7876,-3.9357,0.0,0.0,-4.4553,-4.6421,-4.7479,-4.8889,-5.1644,-5.3561,-5.5083,-5.6259,-5.8432,-6.0039,-6.0234,-6.0937,-6.1402,-6.1417,-6.0041,-5.909,-5.9098,-5.9022,-5.8978,-5.8987,-5.8868,-5.91,-5.9793,-5.9702,-5.994,-6.0552,-6.0564,-6.0104,-5.9141,-5.9141,-5.8681,-5.7821,-5.7821,-5.7859,-5.7821,-5.7821,-5.7794,-5.7794,-5.7794,-5.7756,-5.7603,-5.6725,-5.6382,-5.6305,-5.5594,-5.5288,-5.5172,-5.4836,-5.464,-5.4633,0.0,0.0,0.0,0.0,0.0,0.0,0.0,0.0,0.0,0.0,0.0,0.0,0.0,0.0,0.0,0.0,0.0,0.0,-2.8812,-3.0684,-3.3202,-3.6615,-3.7281,-3.8937,-4.1871,-4.195,-4.283,-4.4551,-4.4551,-4.4819,-4.5277,-4.5378,-4.5418,-4.54,-4.586,-4.6339,-4.6896,-4.7222,-4.7394,-4.7317,-4.6471,-4.5659,-4.4746,-4.2873,-4.2005,-4.1751,-4.1429,-4.0191,0.0,0.0,-3.7638,-3.6826,-3.6559,-3.5883,-3.5088,-3.4628,-3.4373,0.0,-3.5461,0.0,0.0,0.0,-4.1851,-4.3254,-4.5163,-4.6761,-4.8373,-5.0165,-5.0834,-5.1698,-5.383,-5.5201,-5.6489,0.0,-5.9355,-6.0579,-6.1093,-6.1484,-6.1718,-6.1713,-6.1043,-6.0597,-6.0612,-6.0542,-6.0504,-6.0507,-6.0417,-6.0514,-6.0823,-6.0763,-6.0838,-6.106,-6.1041,-6.0766,-6.025,-6.0242,-6.0018,-5.9599,-5.9599,-5.9599,-5.9599,-5.9599,-5.9599,-5.9561,-5.9062,-5.8832,-5.8755,-5.7911,-5.7551,-5.752,-5.6637,-5.6352,-5.6275,-5.5492,-5.5198,-5.5198,0.0,0.0,0.0,0.0,0.0,0.0,0.0,0.0,0.0,0.0,0.0,0.0,0.0,0.0,0.0,0.0,0.0,0.0,0.0,-2.9547,-3.233,-3.5704,-3.6483,0.0,-4.0974,-4.1053,-4.1932,-4.3673,-4.3673,-4.3978,-4.459,-4.4669,-4.4671,-4.4671,-4.471,-4.515,-4.5744,-4.5781,-4.5837,-4.5817,-4.5163,-4.4256,-4.3111,-4.1292,-4.0061,-3.9316,-3.9637,-3.876,0.0,0.0,-3.6555,-3.5897,-3.62,-3.5844,-3.5369,-3.5241,-3.5996,-3.7264,-3.8976,0.0,0.0,-4.4129,-4.5663,-4.6917,-4.9294,-5.0463,-5.153,-5.3085,-5.3403,-5.3844,-5.5391,-5.6372,0.0,-5.887,-5.9846,-6.0718,-6.156,-6.1718,-6.1719,-6.1719,-6.1715,-6.1704,-6.1681,-6.166,-6.1627,-6.1595,-6.1559,-6.1518,-6.1447,-6.1433,-6.1376,-6.1242,-6.1191,-6.1118,-6.1002,-6.098,-6.0916,-6.085,-6.085,-6.0866,-6.0866,-6.085,-6.0872,-6.0856,-6.0239,-5.9931,-5.9854,-5.9006,-5.8701,-5.8684,-5.7796,-5.7486,-5.7428,-5.6405,-5.5878,-5.5621,0.0,0.0,0.0,0.0,0.0,0.0,0.0,0.0,0.0,0.0,0.0,0.0,0.0,0.0,0.0,0.0,0.0,0.0,0.0,-2.8979,-3.1459,-3.4794,-3.504,-3.6692,-4.006,-4.0214,-4.1093,-4.2832,-4.2832,-4.2832,-4.287,-4.287,-4.2871,-4.2872,-4.2872,-4.2966,-4.3111,-4.3111,-4.3167,-4.3201,-4.3201,-4.2162,-4.06,-4.0598,-3.8568,-3.5881,-3.6725,0.0,0.0,0.0,-3.3924,-3.3344,-3.4226,-3.4526,0.0,-3.6521,-3.8248,-3.9936,0.0,0.0,-4.4253,-4.7696,-4.92,-5.0307,-5.2099,-5.3151,-5.4056,-5.4957,-5.512,-5.5405,-5.6367,-5.7231,-5.805,-5.8948,-5.9841,-6.071,-6.159,-6.1717,-6.1719,-6.1719,-6.1715,-6.1704,0.0,-6.1705,-6.1654,-6.1595,-6.1595,-6.1607,-6.1607,-6.1447,-6.1419,-6.1366,-6.1345,-6.1264,-6.1173,-6.1137,-6.1041,-6.1002,-6.098,-6.0976,-6.0997,-6.0962,-6.1022,-6.1099,-6.106,-6.106,-6.0983,-6.0112,-5.9782,-5.9758,-5.8955,-5.8653,-5.8527,-5.7741,-5.6785,-5.5902,0.0,0.0,0.0,0.0,0.0,0.0,0.0,0.0,0.0,0.0,0.0,0.0,0.0,0.0,0.0,0.0,0.0,0.0,0.0,-2.6677,-2.951,-3.233,-3.3524,-3.523,-3.7528,-3.7605,-3.8461,-4.0234,-4.0253,-4.0578,-4.1151,-4.1686,-4.1934,-4.1954,-4.2546,-4.2833,-4.2905,-4.2364,-4.2168,-4.2162,-4.1046,-3.9892,-3.8715,-3.7641,-3.5817,-3.3759,0.0,0.0,0.0,0.0,0.0,-3.2493,-3.3935,-3.4439,-3.5059,-3.7976,-3.9616,-4.1111,0.0,0.0,-4.6822,-4.9681,-5.1537,-5.2879,-5.4048,-5.4983,-5.5545,-5.5269,-5.5198,-5.5132,-5.4923,-5.6059,-5.7113,-5.7387,-5.9104,-6.051,-6.0792,-6.1323,-6.1719,-6.1719,-6.1718,0.0,0.0,0.0,0.0,-6.1654,-6.1627,-6.1603,-6.1607,-6.1578,-6.1495,-6.1486,-6.1419,-6.1376,-6.1322,-6.1281,-6.1208,-6.1191,-6.1212,-6.1212,-6.1212,-6.1208,-6.1203,-6.1259,-6.1291,-6.1306,-6.1268,-6.0996,-6.0871,-6.0823,-6.0009,-5.9697,-5.9604,-5.8782,-5.8265,-5.778,0.0,0.0,0.0,0.0,0.0,0.0,0.0,0.0,0.0,0.0,0.0,0.0,0.0,0.0,0.0,0.0,0.0,0.0,0.0,0.0,-2.7525,-2.9791,-3.1193,-3.2841,-3.4925,-3.4943,-3.5796,-3.7583,-3.76,-3.7924,-3.8514,-3.9317,-3.9699,-3.9737,-4.0615,-4.0996,-4.1011,-4.0219,-3.9906,-3.9877,-3.8507,-3.7238,-3.6045,-3.5008,-3.3388,0.0,0.0,0.0,0.0,0.0,0.0,-3.1255,-3.3305,-3.4817,-3.6416,-3.9296,-4.1179,-4.2966,-4.6134,-4.7845,-4.9391,-5.2008,-5.3515,-5.4515,-5.5061,-5.5645,-5.5771,-5.4911,-5.4489,-5.4228,-5.4021,-5.465,-5.5513,-5.645,-5.8207,-5.969,-6.031,-6.1157,-6.1716,-6.1719,-6.1719,0.0,0.0,0.0,0.0,-6.1705,-6.1654,-6.1634,-6.1642,-6.1625,-6.1588,-6.1557,-6.1447,-6.146,-6.146,-6.1366,-6.1322,-6.1345,-6.1345,-6.1516,-6.1803,-6.1779,-6.1988,-6.2288,-6.2005,-6.1914,-6.1875,-6.1576,-6.1433,-6.1429,-6.0905,-6.0692,-6.0594,-5.9793,-5.949,-5.9248,0.0,0.0,0.0,0.0,0.0,0.0,0.0,0.0,0.0,0.0,0.0,0.0,0.0,0.0,0.0,0.0,0.0,0.0,0.0,0.0,0.0,-2.7228,-2.8085,-2.9655,-3.2188,-3.2226,-3.3113,-3.495,-3.495,-3.4928,-3.4961,-3.584,-3.626,-3.6337,-3.7139,-3.7594,-3.7627,-3.6757,-3.6458,-3.6411,-3.557,-3.4237,-3.2699,-3.2774,0.0,0.0,0.0,0.0,0.0,0.0,0.0,0.0,0.0,-3.5591,-3.8704,-4.05,-4.285,-4.5414,-4.8017,-4.9964,-5.1882,-5.444,-5.5142,-5.5217,-5.5217,-5.5139,-5.4827,-5.3954,-5.3078,-5.2746,0.0,0.0,-5.3444,-5.5942,-5.7113,-5.8324,-6.0037,-6.1056,-6.1658,0.0,0.0,0.0,0.0,0.0,0.0,-6.1915,0.0,-6.1816,-6.1816,-6.1729,-6.1655,-6.1646,-6.1557,-6.1523,-6.1523,-6.146,-6.1421,-6.1394,-6.1433,-6.1913,-6.2731,-6.277,-6.3249,-6.4064,-6.3242,-6.2863,-6.2746,-6.1909,-6.1586,-6.1603,-6.1603,-6.1612,-6.1502,-6.0761,-6.0464,-6.023,0.0,0.0,0.0,0.0,0.0,0.0,0.0,0.0,0.0,0.0,0.0,0.0,0.0,0.0,0.0,0.0,0.0,0.0,0.0,0.0,0.0,0.0,0.0,0.0,0.0,0.0,0.0,0.0,0.0,-3.1416,-3.1484,-3.2363,-3.3089,-3.3684,-3.4541,-3.5299,-3.5844,-3.4381,-3.3796,-3.3722,0.0,-3.1044,-3.0083,0.0,0.0,0.0,0.0,0.0,0.0,0.0,0.0,0.0,0.0,-3.6988,-3.9761,-4.2131,-4.4171,-4.6385,-4.9648,-5.1325,-5.266,-5.4596,-5.5142,-5.5217,-5.5217,-5.4203,-5.3042,-5.2129,-5.1323,-5.06,0.0,0.0,0.0,-5.2624,-5.5083,0.0,-5.8324,-5.9768,0.0,0.0,0.0,-6.3008,-6.3867,-6.3984,0.0,0.0,-6.3633,-6.3623,-6.3572,-6.2974,-6.2609,-6.2555,-6.1907,-6.1568,-6.1588,-6.1495,-6.1472,-6.1499,-6.2145,-6.2558,-6.2791,-6.3497,-6.3955,-6.415,-6.3943,-6.3483,-6.2843,-6.2617,-6.2196,-6.1666,-6.1666,-6.1666,-6.1641,-6.1427,-6.1362,-6.1206,0.0,0.0,0.0,0.0,0.0,0.0,0.0,0.0,0.0,0.0,0.0,0.0,0.0,0.0,0.0,0.0,0.0,0.0,0.0,0.0,0.0,0.0,0.0,0.0,0.0,0.0,0.0,0.0,0.0,0.0,0.0,-2.8886,-2.9726,-3.0529,-3.1408,-3.2263,-3.2981,-3.1684,0.0,0.0,0.0,0.0,0.0,0.0,0.0,0.0,0.0,0.0,0.0,0.0,0.0,-3.4051,-3.6164,-3.8355,-4.0731,-4.3733,0.0,-4.7822,-5.0891,-5.2647,-5.3973,-5.5335,-5.5414,-5.5022,-5.4242,-5.2723,-5.1125,-4.9893,-4.8665,0.0,0.0,0.0,0.0,0.0,0.0,0.0,-5.7582,-5.93,-6.1061,0.0,-6.3004,0.0,-6.4765,-6.4883,-6.5038,0.0,0.0,-6.4297,-6.4247,-6.3779,-6.3344,-6.2974,-6.2446,-6.2002,-6.1603,-6.1578,-6.1559,-6.1559,-6.2435,-6.302,-6.3448,-6.438,-6.4965,-6.5316,0.0,-6.4482,-6.4006,-6.365,-6.3008,-6.2279,-6.2279,-6.2045,-6.1697,-6.1717,-6.1717,-6.1633,0.0,0.0,0.0,0.0,0.0,0.0,0.0,0.0,0.0,0.0,0.0,0.0,0.0,0.0,0.0,0.0,0.0,0.0,0.0,0.0,0.0,0.0,0.0,0.0,0.0,0.0,0.0,0.0,0.0,0.0,0.0,0.0,0.0,0.0,0.0,0.0,0.0,0.0,0.0,0.0,0.0,0.0,0.0,0.0,0.0,0.0,0.0,0.0,0.0,0.0,-3.23,-3.4874,-3.7598,-3.9635,-4.1651,-4.517,-4.7317,-4.9182,-5.1863,-5.3736,-5.5141,-5.5997,-5.5531,-5.439,-5.2645,-5.0735,-4.8865,-4.7306,0.0,-4.461,-4.5362,0.0,-4.6718,-4.9068,0.0,-5.4381,-5.6957,-5.8909,-6.0783,-6.2774,-6.3115,-6.3866,-6.5586,-6.5781,-6.6093,-6.6836,-6.5495,-6.4653,-6.4653,-6.4492,-6.3979,-6.3032,-6.2935,-6.2499,-6.1602,-6.1602,-6.1673,-6.179,-6.2687,-6.3545,-6.4404,-6.5269,-6.6081,-6.6775,0.0,0.0,-6.5445,-6.4747,-6.3943,-6.3164,-6.3163,-6.2656,-6.1874,-6.1874,-6.1785,-6.171,0.0,0.0,0.0,0.0,0.0,0.0,0.0,0.0,0.0,0.0,-1.1863,-1.1916,0.0,0.0,0.0,0.0,0.0,0.0,0.0,0.0,0.0,0.0,0.0,0.0,0.0,0.0,0.0,0.0,0.0,0.0,0.0,0.0,0.0,0.0,0.0,0.0,0.0,0.0,0.0,0.0,0.0,0.0,0.0,0.0,0.0,0.0,0.0,0.0,0.0,0.0,-3.23,-3.499,-3.8334,-4.0527,-4.2554,-4.6064,-4.7784,-4.9299,-5.2601,-5.3751,-5.4214,-5.5102,-5.4188,-5.2581,-5.0844,-4.8047,0.0,0.0,0.0,-4.1797,-4.1958,-4.3183,0.0,-4.5703,0.0,0.0,0.0,0.0,-5.9417,0.0,0.0,0.0,0.0,0.0,0.0,0.0,0.0,0.0,-6.6429,-6.575,-6.4648,-6.3042,-6.3003,-6.2574,-6.1671,-6.1687,-6.2024,-6.2694,-6.3592,-6.4489,-6.5308,-6.6232,-6.6751,-6.6868,0.0,0.0,-6.5583,-6.5429,-6.4843,-6.4055,-6.4083,-6.3529,-6.2783,-6.2774,-6.2329,-6.1693,0.0,0.0,0.0,0.0,0.0,0.0,0.0,-1.1344,-1.1962,-1.2826,-1.33,-1.3402,-1.3025,-1.3342,-1.3772,0.0,0.0,0.0,0.0,0.0,0.0,0.0,0.0,0.0,0.0,0.0,0.0,0.0,0.0,0.0,0.0,0.0,0.0,0.0,0.0,0.0,0.0,0.0,0.0,0.0,0.0,0.0,0.0,0.0,0.0,0.0,0.0,0.0,0.0,0.0,-3.1913,-3.5029,-3.8489,-4.107,-4.3369,-4.6402,-4.825,-4.9804,-5.2329,-5.3402,-5.3902,-5.4313,-5.3176,-5.149,-4.9753,0.0,0.0,0.0,-4.0259,-3.9062,-3.9068,0.0,0.0,0.0,0.0,0.0,0.0,0.0,0.0,0.0,0.0,0.0,0.0,0.0,0.0,0.0,0.0,0.0,0.0,-6.6081,-6.5212,-6.4392,-6.3923,-6.3494,-6.3064,-6.3056,-6.3247,-6.3638,-6.4536,-6.516,-6.559,-6.6468,-6.6865,-6.6906,0.0,0.0,-6.6285,-6.6281,-6.5723,-6.4921,-6.4911,-6.4398,-6.3605,-6.3637,-6.3084,-6.2304,0.0,0.0,0.0,0.0,0.0,0.0,0.0,-1.1937,-1.2845,-1.3884,-1.4546,-1.4726,-1.4139,-1.3933,-1.4092,0.0,0.0,0.0,0.0,0.0,0.0,0.0,0.0,0.0,0.0,0.0,0.0,0.0,0.0,0.0,0.0,0.0,0.0,0.0,0.0,0.0,0.0,0.0,0.0,0.0,0.0,0.0,0.0,0.0,0.0,0.0,0.0,0.0,0.0,0.0,-3.1333,-3.4399,-3.7704,-4.0787,-4.3629,-4.6247,-4.825,-4.9998,-5.1668,-5.2819,-5.3464,-5.3302,-5.196,-5.0196,-4.8156,-4.5,0.0,0.0,-3.7603,-3.6401,-3.6377,0.0,0.0,0.0,0.0,0.0,0.0,0.0,0.0,0.0,0.0,0.0,0.0,0.0,0.0,0.0,0.0,0.0,0.0,-6.6248,-6.5773,-6.5617,-6.4955,-6.4487,-6.4291,-6.4291,-6.4371,-6.4608,-6.5272,-6.5702,-6.5896,-6.6523,-6.6835,-6.6912,0.0,0.0,0.0,-6.6873,-6.6421,-6.5783,-6.5783,-6.523,-6.4474,-6.4466,-6.392,-6.3132,0.0,0.0,0.0,0.0,0.0,0.0,0.0,-1.2836,-1.3922,-1.5481,-1.5741,-1.5763,-1.5695,-1.5102,-1.4719,0.0,0.0,0.0,0.0,0.0,0.0,0.0,0.0,0.0,0.0,0.0,0.0,0.0,0.0,0.0,0.0,0.0,0.0,0.0,0.0,0.0,0.0,0.0,0.0,0.0,0.0,0.0,0.0,0.0,0.0,0.0,0.0,0.0,0.0,0.0,0.0,-3.2493,-3.5204,-3.8877,-4.2737,-4.5332,0.0,0.0,-5.0853,-5.1901,-5.2341,-5.1636,-5.0179,-4.8106,-4.4814,0.0,0.0,-3.6629,-3.4915,-3.3751,-3.3751,-3.5076,0.0,0.0,0.0,0.0,0.0,0.0,0.0,0.0,0.0,0.0,0.0,0.0,0.0,0.0,0.0,0.0,0.0,0.0,-6.6406,-6.5625,-6.5508,-6.5117,-6.4297,-6.4297,-6.4685,-6.5477,-6.5555,-6.5996,-6.6789,-6.6867,-6.6898,-6.6917,0.0,0.0,0.0,-6.6822,-6.6775,-6.6666,-6.6666,-6.6112,-6.5307,-6.528,-6.4754,-6.3865,0.0,0.0,0.0,0.0,0.0,0.0,-1.2067,-1.2947,-1.3884,-1.5035,-1.5184,-1.5168,-1.5163,-1.4942,-1.4822,-1.4804,0.0,0.0,0.0,0.0,0.0,0.0,0.0,0.0,0.0,0.0,0.0,0.0,0.0,0.0,0.0,0.0,0.0,0.0,0.0,0.0,0.0,0.0,0.0,0.0,0.0,0.0,0.0,0.0,0.0,0.0,0.0,0.0,0.0,0.0,0.0,0.0,-3.2851,-3.5989,0.0,0.0,-4.5287,-4.7317,-4.8522,-4.9454,-4.9932,-4.9109,-4.7602,-4.5715,-4.3374,0.0,0.0,-3.5499,-3.3785,-3.262,-3.262,-3.3161,-3.4335,0.0,0.0,0.0,0.0,0.0,0.0,0.0,0.0,0.0,0.0,0.0,0.0,0.0,0.0,0.0,0.0,0.0,-6.6747,-6.6402,-6.6363,-6.6207,-6.5855,-6.5855,-6.6047,-6.6387,-6.6375,-6.6566,-6.6887,-6.6878,-6.6829,-6.6856,0.0,0.0,0.0,-6.6822,-6.6759,-6.6741,-6.6741,-6.6488,-6.6135,-6.6124,-6.5555,-6.4765,0.0,0.0,0.0,0.0,0.0,-1.1245,-1.2067,-1.2901,-1.3847,-1.4924,-1.5035,-1.5046,-1.504,-1.5109,-1.5064,-1.4822,-1.4804,0.0,0.0,0.0,0.0,0.0,0.0,0.0,0.0,0.0,0.0,-1.5017,0.0,0.0,0.0,0.0,0.0,0.0,0.0,0.0,0.0,0.0,0.0,0.0,0.0,0.0,0.0,0.0,0.0,0.0,0.0,0.0,0.0,0.0,0.0,0.0,0.0,0.0,0.0,0.0,-4.3063,-4.5375,-4.5997,-4.7007,-4.7639,-4.6844,-4.5337,-4.3519,0.0,0.0,0.0,-3.3896,-3.2343,-3.133,-3.133,-3.1525,-3.2538,-3.5109,0.0,-4.0822,0.0,0.0,0.0,0.0,0.0,0.0,0.0,0.0,0.0,0.0,0.0,0.0,0.0,0.0,-6.6873,-6.6856,-6.6898,-6.6898,-6.6898,-6.6898,-6.6895,-6.6852,-6.6873,-6.6862,-6.6862,-6.6805,-6.6798,0.0,0.0,0.0,0.0,-6.6759,-6.6732,-6.6691,-6.6691,-6.6657,-6.6607,-6.6594,-6.6153,-6.5595,0.0,0.0,0.0,0.0,0.0,0.0,-1.2067,-1.2882,-1.4013,-1.5666,-1.5889,-1.5889,-1.5889,-1.5945,-1.5652,-1.4877,-1.4794,0.0,0.0,0.0,0.0,0.0,0.0,0.0,0.0,0.0,-1.5017,-1.5017,-1.5864,-1.6306,0.0,0.0,0.0,0.0,0.0,0.0,0.0,0.0,0.0,0.0,0.0,0.0,0.0,0.0,0.0,0.0,0.0,0.0,0.0,0.0,0.0,0.0,0.0,0.0,0.0,0.0,-4.0791,-4.3549,-4.3549,-4.4753,-4.5841,-4.5025,-4.353,-4.1565,0.0,0.0,0.0,-3.1348,-3.0151,-2.9533,-2.9533,-3.0234,-3.1641,-3.4213,-3.6824,-3.9708,-4.3137,0.0,0.0,0.0,0.0,0.0,0.0,0.0,0.0,0.0,0.0,0.0,0.0,0.0,-6.6805,-6.6795,-6.6873,-6.6912,-6.6912,-6.6912,-6.6862,-6.6805,-6.6805,-6.6798,-6.6783,-6.6783,0.0,0.0,0.0,0.0,0.0,-6.668,-6.6657,-6.6581,-6.6581,-6.6607,-6.6606,-6.6524,-6.6439,-6.629,0.0,0.0,0.0,0.0,0.0,0.0,0.0,-1.2512,-1.3605,-1.4181,-1.4738,-1.5072,-1.5072,-1.5136,-1.5102,-1.484,-1.4794,0.0,0.0,0.0,0.0,0.0,0.0,0.0,0.0,0.0,-1.5814,-1.5814,-1.67,-1.7136,-1.7136,-1.7178,-1.6926,0.0,0.0,0.0,0.0,0.0,0.0,0.0,0.0,0.0,0.0,0.0,0.0,0.0,0.0,0.0,0.0,0.0,0.0,0.0,0.0,0.0,0.0,-3.249,0.0,0.0,-4.0014,-4.1257,-4.2306,-4.1529,-4.0023,-3.8361,-3.6931,0.0,0.0,-3.0959,-2.964,-2.8788,-2.9377,-2.9727,-3.0745,-3.3356,-3.5421,-3.8344,0.0,0.0,0.0,0.0,0.0,0.0,0.0,0.0,0.0,0.0,0.0,0.0,0.0,0.0,0.0,-6.6805,-6.6805,-6.6844,-6.6844,-6.6844,-6.6837,-6.6791,-6.6791,-6.6791,-6.6783,-6.675,0.0,0.0,0.0,0.0,0.0,-6.6645,-6.662,-6.6581,-6.6553,-6.6485,-6.6477,-6.6445,-6.6411,-6.6355,0.0,0.0,0.0,0.0,0.0,0.0,0.0,-1.18,-1.2632,-1.2947,-1.3439,-1.3884,-1.4219,-1.4268,-1.4457,-1.4765,-1.4794,0.0,0.0,0.0,0.0,0.0,0.0,0.0,-1.4963,-1.5767,-1.6193,-1.6193,-1.7385,-1.7974,-1.7974,-1.8056,-1.7805,-1.7309,-1.6697,0.0,0.0,0.0,0.0,0.0,0.0,0.0,-2.0304,0.0,0.0,0.0,0.0,0.0,0.0,0.0,0.0,0.0,0.0,0.0,0.0,0.0,-3.1678,0.0,0.0,-3.7916,-3.8848,-3.8343,-3.7178,0.0,0.0,0.0,0.0,-2.993,-2.8963,-2.8384,-2.8905,-2.9567,-3.0857,-3.3434,-3.5577,-3.8461,0.0,0.0,0.0,0.0,0.0,0.0,0.0,0.0,0.0,0.0,0.0,0.0,0.0,0.0,0.0,-6.6759,-6.6775,-6.6783,-6.6783,-6.6783,-6.6775,-6.6767,-6.6759,-6.675,-6.6741,0.0,0.0,0.0,0.0,0.0,0.0,-6.6607,-6.6567,-6.6524,-6.6493,-6.6461,-6.6411,-6.6376,-6.634,-6.6322,0.0,0.0,0.0,0.0,0.0,0.0,0.0,-1.0904,-1.1253,-1.203,-1.2159,-1.2511,-1.3328,-1.3402,-1.3775,-1.4653,0.0,0.0,0.0,0.0,0.0,0.0,0.0,0.0,-1.5005,-1.5834,-1.6307,-1.6383,-1.8099,-1.8964,-1.8964,-1.9048,-1.9028,-1.8913,-1.7309,-1.6521,0.0,0.0,0.0,0.0,0.0,0.0,0.0,0.0,0.0,0.0,0.0,0.0,0.0,0.0,0.0,0.0,0.0,0.0,0.0,0.0,0.0,0.0,0.0,-3.4769,0.0,0.0,0.0,0.0,0.0,0.0,0.0,0.0,0.0,-2.8212,-2.8267,-2.9674,-3.1626,-3.4169,-3.6779,-3.9701,0.0,0.0,0.0,0.0,0.0,0.0,0.0,0.0,0.0,0.0,0.0,0.0,0.0,0.0,0.0,0.0,-6.675,-6.6775,-6.6775,-6.6775,-6.6767,-6.6702,-6.6673,-6.6691,-6.6708,0.0,0.0,0.0,0.0,0.0,0.0,-6.6592,-6.6508,-6.6406,-6.6389,-6.6373,-6.6376,-6.6322,-6.6264,-6.6165,0.0,0.0,0.0,0.0,0.0,0.0,0.0,0.0,0.0,0.0,-1.1817,-1.227,-1.2474,-1.2546,-1.2916,0.0,0.0,0.0,0.0,0.0,0.0,0.0,0.0,0.0,-1.5875,-1.6734,-1.7511,-1.8117,-1.9865,-2.0722,-2.0716,-2.0736,-2.0413,-1.9792,-1.8761,-1.76,0.0,0.0,0.0,0.0,0.0,0.0,0.0,0.0,0.0,0.0,-2.0373,-2.0379,0.0,0.0,0.0,0.0,0.0,0.0,0.0,0.0,-2.5958,-2.6948,-2.9052,0.0,-3.2897,-3.2897,-3.2749,-3.2555,0.0,0.0,0.0,0.0,0.0,0.0,0.0,-3.0047,-3.1565,-3.4179,-3.6748,-3.9863,0.0,0.0,0.0,0.0,0.0,0.0,0.0,0.0,0.0,0.0,0.0,0.0,0.0,0.0,0.0,0.0,-6.6618,-6.668,-6.6702,-6.668,-6.663,-6.6618,-6.6606,-6.6606,-6.6633,0.0,0.0,0.0,0.0,0.0,-6.6439,-6.6445,-6.6411,-6.6394,-6.6358,-6.634,-6.6322,-6.6185,-6.6123,-6.6102,0.0,0.0,0.0,0.0,0.0,0.0,0.0,0.0,0.0,0.0,0.0,0.0,0.0,0.0,0.0,0.0,0.0,0.0,0.0,0.0,0.0,0.0,0.0,-1.5328,-1.6168,-1.7037,-1.8069,-1.9282,-2.0652,-2.1521,-2.1885,-2.1907,-2.1481,-2.0633,-1.9448,-1.7983,0.0,0.0,0.0,0.0,0.0,0.0,0.0,0.0,0.0,0.0,-2.0373,-2.0379,0.0,-2.0379,-2.0695,-2.1082,0.0,0.0,0.0,0.0,-2.4367,-2.5195,-2.61,-2.8236,-3.0295,-3.0729,-3.0807,-3.0923,-3.1312,0.0,0.0,0.0,0.0,0.0,0.0,0.0,0.0,0.0,-3.8836,0.0,0.0,0.0,0.0,0.0,0.0,0.0,0.0,0.0,0.0,0.0,0.0,0.0,0.0,0.0,0.0,0.0,0.0,-6.662,-6.6645,-6.6633,-6.6581,-6.6581,-6.6607,-6.6594,-6.6528,0.0,0.0,0.0,0.0,0.0,-6.6954,-6.6937,-6.7172,-6.7464,-6.7019,-6.6825,-6.6727,-6.6256,-6.6036,-6.6052,0.0,0.0,0.0,0.0,0.0,0.0,0.0,0.0,0.0,0.0,0.0,0.0,0.0,0.0,0.0,0.0,0.0,0.0,0.0,0.0,0.0,0.0,-1.4981,-1.5508,-1.6347,-1.7368,-1.8638,-2.0202,-2.1172,-2.2042,-2.2761,-2.2783,-2.2282,-2.133,-1.9648,-1.8059,0.0,0.0,0.0,0.0,-1.7702,0.0,0.0,0.0,0.0,0.0,0.0,0.0,0.0,-2.0379,-2.0379,-2.0379,-2.0379,0.0,0.0,0.0,0.0,0.0,-2.4269,-2.6061,-2.812,-2.8981,-2.9292,-2.9641,-3.0496,0.0,0.0,0.0,0.0,0.0,0.0,0.0,0.0,0.0,0.0,0.0,0.0,0.0,0.0,0.0,0.0,0.0,0.0,0.0,0.0,0.0,0.0,0.0,0.0,0.0,0.0,0.0,0.0,0.0,-6.6555,-6.6555,-6.6555,-6.6555,-6.6567,-6.6524,-6.6493,-6.6406,0.0,0.0,0.0,0.0,-6.7599,-6.7599,-6.8065,-6.8702,-6.781,-6.7459,-6.7277,-6.6322,-6.6005,-6.5996,0.0,0.0,0.0,0.0,0.0,0.0,0.0,0.0,0.0,0.0,0.0,0.0,0.0,0.0,0.0,0.0,0.0,0.0,0.0,0.0,0.0,-1.4813,-1.5527,-1.6318,-1.7178,-1.8747,-2.0017,-2.1036,-2.2552,-2.3423,-2.3636,-2.3598,-2.2833,-2.133,-1.9648,-1.8365,-1.7439,-1.6711,-1.6893,-1.7702,-1.7702,0.0,0.0,0.0,0.0,0.0,0.0,0.0,0.0,-2.0379,-2.0379,-2.0379,-2.0379,0.0,0.0,0.0,0.0,0.0,-2.4102,-2.5622,-2.722,-2.8081,-2.8864,-2.9641,-3.0496,0.0,0.0,0.0,0.0,0.0,0.0,0.0,0.0,0.0,0.0,0.0,0.0,0.0,0.0,0.0,0.0,0.0,0.0,0.0,0.0,0.0,0.0,0.0,0.0,0.0,0.0,0.0,0.0,0.0,0.0,-6.6439,-6.6439,-6.6439,-6.6428,-6.645,-6.6411,-6.6394,-6.6394,0.0,0.0,-6.6786,-6.7581,-6.7541,-6.7982,-6.8635,-6.7785,-6.7393,-6.7209,-6.6352,-6.602,-6.5996,0.0,0.0,0.0,0.0,0.0,0.0,0.0,0.0,0.0,0.0,0.0,0.0,0.0,0.0,0.0,0.0,0.0,0.0,0.0,0.0,-1.4363,-1.4776,-1.6091,-1.6997,-1.7404,-1.9039,-2.0547,-2.1907,-2.312,-2.3993,-2.4473,-2.3595,-2.2751,-2.197,-2.0289,-1.8854,-1.7669,-1.7286,-1.7085,-1.7042,0.0,0.0,0.0,0.0,0.0,0.0,0.0,0.0,0.0,0.0,-1.9993,-2.0379,-2.0379,0.0,0.0,0.0,0.0,0.0,-2.3508,-2.5176,-2.7122,-2.8456,-2.944,-3.0341,-3.1195,0.0,0.0,0.0,0.0,0.0,0.0,0.0,0.0,0.0,0.0,0.0,0.0,0.0,0.0,0.0,0.0,0.0,0.0,0.0,0.0,0.0,0.0,0.0,0.0,0.0,0.0,0.0,0.0,0.0,0.0,-6.589,-6.564,-6.5713,-6.5696,-6.5661,-6.5643,-6.5643,-6.5857,0.0,0.0,-6.6668,-6.7497,-6.7917,-6.859,-6.9262,-6.8328,-6.7995,-6.7754,-6.6384,-6.5872,-6.5781,0.0,0.0,0.0,0.0,0.0,0.0,0.0,0.0,0.0,0.0,0.0,0.0,0.0,0.0,0.0,0.0,0.0,0.0,0.0,0.0,-1.3867,-1.4485,-1.6364,-1.7411,-1.7404,-1.9428,-2.1152,-2.2514,-2.3499,-2.4372,-2.5044,-2.3389,-2.2581,-2.2543,-2.0862,-1.9313,-1.7976,-1.7784,-1.7346,-1.6772,0.0,0.0,0.0,0.0,0.0,0.0,0.0,0.0,0.0,0.0,0.0,0.0,0.0,0.0,0.0,-2.0398,-2.1604,-2.2966,-2.2985,-2.5001,-2.7489,-2.9024,-3.0055,-3.1033,-3.2322,-3.3254,0.0,0.0,0.0,0.0,0.0,0.0,0.0,0.0,0.0,0.0,0.0,0.0,0.0,0.0,0.0,0.0,0.0,0.0,0.0,0.0,0.0,0.0,0.0,0.0,0.0,0.0,0.0,0.0,0.0,-6.5353,-6.5043,-6.5079,-6.4868,-6.4715,-6.4677,-6.4677,-6.5082,-6.581,-6.581,-6.6367,-6.7325,-6.8019,-6.8791,-6.9461,-6.8564,-6.8052,-6.7654,-6.6281,-6.5674,-6.558,0.0,0.0,0.0,0.0,0.0,0.0,0.0,0.0,0.0,0.0,0.0,0.0,0.0,0.0,0.0,0.0,0.0,0.0,0.0,0.0,-1.3613,-1.3668,-1.6063,-1.7411,-1.7404,-2.0561,-2.2325,-2.2514,-2.4106,-2.498,-2.5044,-2.3389,-2.2581,-2.2543,-2.0862,-1.9619,-1.8743,-1.8014,-1.7653,-1.7542,-1.6811,0.0,0.0,0.0,0.0,0.0,0.0,0.0,0.0,0.0,0.0,0.0,0.0,0.0,-2.0379,-2.0386,-2.1585,-2.2907,-2.2966,-2.5452,-2.8241,-2.9156,-3.0064,0.0,-3.3759,-3.5002,0.0,-3.6712,0.0,0.0,0.0,0.0,0.0,0.0,0.0,0.0,0.0,0.0,0.0,0.0,0.0,0.0,0.0,0.0,0.0,0.0,0.0,0.0,0.0,0.0,0.0,0.0,0.0,0.0,0.0,-6.5025,-6.4987,-6.5004,-6.4115,-6.3727,-6.3727,-6.3626,-6.4067,-6.4916,-6.4916,-6.5804,-6.7286,-6.7363,-6.788,-6.85,-6.7564,-6.6627,-6.5789,-6.5646,-6.5552,-6.5494,0.0,0.0,0.0,0.0,0.0,0.0,0.0,0.0,0.0,0.0,0.0,0.0,0.0,0.0,0.0,0.0,0.0,0.0,0.0,-1.2157,-1.3042,-1.3593,-1.6045,-1.7394,-1.7414,-2.0675,-2.2439,-2.2514,-2.4233,-2.5095,-2.5044,-2.3389,-2.2581,-2.2543,-2.0862,-1.9657,-1.8858,-1.8053,-1.7423,-1.6888,-1.6042,-1.5888,0.0,0.0,0.0,0.0,0.0,0.0,0.0,0.0,-1.8208,-1.9148,0.0,-1.9954,-2.0379,-2.0379,-2.1585,-2.3023,-2.3603,-2.5855,-2.8496,-3.0488,-3.1969,0.0,0.0,-3.682,-3.846,-3.9276,-4.0402,0.0,0.0,0.0,0.0,0.0,0.0,0.0,0.0,0.0,0.0,0.0,0.0,0.0,0.0,0.0,0.0,0.0,0.0,0.0,0.0,0.0,0.0,0.0,0.0,0.0,0.0,-6.3593,-6.3302,-6.3263,-6.2934,-6.2759,-6.2738,-6.2716,-6.3136,-6.3962,-6.4502,-6.5072,-6.5653,-6.6692,-6.7256,-6.7472,-6.7138,-6.6403,-6.5552,-6.5552,-6.5494,-6.5405,0.0,0.0,0.0,0.0,0.0,0.0,0.0,0.0,0.0,0.0,0.0,0.0,0.0,0.0,0.0,0.0,0.0,0.0,-1.0632,-1.17,-1.2584,-1.3171,-1.564,-1.714,-1.7367,-2.0195,-2.1921,-2.2514,-2.4258,-2.4968,-2.4664,-2.3274,-2.2467,-2.2161,-2.0747,-1.981,-1.9271,-1.8436,-1.7615,-1.6804,-1.5958,-1.5465,0.0,0.0,0.0,0.0,0.0,0.0,0.0,0.0,0.0,0.0,0.0,0.0,0.0,0.0,-2.1585,-2.3093,-2.3944,-2.6265,-2.9021,-3.1622,0.0,0.0,-3.7065,-3.8772,-4.0393,-4.149,-4.2617,0.0,0.0,0.0,0.0,0.0,0.0,0.0,0.0,0.0,0.0,0.0,0.0,0.0,0.0,0.0,0.0,0.0,0.0,0.0,0.0,0.0,0.0,0.0,0.0,0.0,0.0,-6.2565,-6.212,-6.1786,-6.1829,-6.1829,-6.1786,-6.1742,-6.2159,-6.2998,-6.3575,-6.4039,-6.4576,-6.5728,-6.6288,-6.6461,-6.6461,-6.6059,-6.5435,-6.5435,-6.5375,-6.5321,0.0,0.0,0.0,0.0,0.0,0.0,0.0,0.0,0.0,0.0,0.0,0.0,0.0,0.0,0.0,0.0,0.0,0.0,-0.9791,-1.1356,-1.2277,-1.2293,-1.4811,-1.6574,-1.7377,-1.912,-2.0808,-2.2514,-2.422,-2.4626,-2.3788,-2.2969,-2.2161,-2.1369,-2.048,-2.0145,-2.0134,-1.9271,-1.8413,-1.7629,-1.6804,-1.5965,-1.5189,0.0,0.0,0.0,0.0,0.0,0.0,0.0,-1.6474,0.0,0.0,0.0,0.0,0.0,-2.1585,-2.3093,-2.3983,-2.6691,0.0,0.0,0.0,0.0,0.0,-4.0865,-4.1412,-4.3189,0.0,0.0,0.0,0.0,0.0,0.0,0.0,0.0,0.0,0.0,0.0,0.0,0.0,0.0,0.0,0.0,0.0,0.0,0.0,0.0,0.0,0.0,0.0,0.0,0.0,0.0,0.0,-6.2193,-6.1747,-6.0911,-6.0911,-6.0911,-6.0911,-6.0757,-6.1146,-6.1991,-6.1914,-6.2847,-6.4381,-6.4381,-6.4824,-6.5456,-6.5494,-6.5405,-6.529,-6.529,-6.5264,-6.5199,0.0,0.0,0.0,0.0,0.0,0.0,0.0,0.0,0.0,0.0,0.0,0.0,0.0,0.0,0.0,0.0,0.0,0.0,-0.9811,-1.0833,-1.1715,-1.2354,-1.4246,-1.5668,-1.6536,-1.8817,-2.082,-2.2512,-2.3091,-2.3191,-2.2947,-2.2151,-2.1636,-2.1369,-2.048,-2.0145,-2.0096,-1.8658,-1.7915,-1.7591,-1.6144,-1.5426,-1.5189,0.0,0.0,0.0,0.0,0.0,0.0,0.0,0.0,0.0,0.0,0.0,0.0,-2.0076,-2.1557,-2.3195,-2.4656,0.0,0.0,0.0,0.0,0.0,0.0,-4.221,0.0,0.0,0.0,0.0,0.0,0.0,0.0,0.0,0.0,0.0,0.0,0.0,0.0,0.0,0.0,0.0,0.0,0.0,0.0,0.0,0.0,0.0,0.0,0.0,0.0,0.0,0.0,0.0,0.0,0.0,-6.1119,-6.0757,-6.0757,-6.0757,-6.0757,-6.071,-6.0814,-6.1032,-6.162,-6.213,-6.2536,-6.3035,-6.3397,-6.3634,-6.4176,-6.4343,-6.4394,-6.5003,-6.5232,-6.5199,0.0,0.0,0.0,0.0,0.0,0.0,0.0,0.0,0.0,0.0,-0.9684,-0.9706,0.0,0.0,0.0,0.0,0.0,0.0,0.0,-1.0602,-1.1483,-1.2316,-1.368,-1.4997,-1.6186,-1.8022,-1.9503,-2.0532,-2.1923,-2.2429,-2.2081,-2.1616,-2.1216,-2.0862,-2.0327,-2.0098,-2.0078,-1.8726,-1.7984,-1.7577,-1.626,-1.5503,-1.5189,0.0,0.0,0.0,0.0,0.0,0.0,0.0,0.0,0.0,0.0,0.0,0.0,-1.9561,-2.1273,-2.3288,0.0,0.0,0.0,0.0,0.0,0.0,0.0,0.0,0.0,0.0,0.0,0.0,0.0,0.0,0.0,0.0,0.0,0.0,0.0,0.0,0.0,0.0,0.0,0.0,0.0,0.0,0.0,0.0,0.0,0.0,0.0,0.0,0.0,0.0,0.0,0.0,0.0,0.0,0.0,-6.0685,-6.066,-6.0635,-6.061,-6.061,-6.0585,-6.0609,-6.1398,-6.1687,-6.164,-6.2429,-6.278,-6.2818,-6.3251,-6.341,-6.3416,-6.3949,-6.4296,-6.4567,0.0,0.0,0.0,0.0,0.0,0.0,0.0,0.0,0.0,0.0,-0.9713,-0.9699,0.0,0.0,0.0,0.0,0.0,0.0,0.0,0.0,-1.1334,-1.2151,-1.3153,-1.4417,-1.5927,-1.6904,-1.7378,-1.7403,-2.0678,-2.1858,-2.1079,-2.1234,-2.0862,-2.0088,-2.0088,-2.005,-1.9945,-1.9148,-1.8321,-1.7516,-1.6714,-1.5926,-1.5189,-1.5189,0.0,0.0,0.0,0.0,0.0,0.0,0.0,0.0,0.0,0.0,0.0,-1.8821,-2.0911,-2.3273,0.0,0.0,0.0,0.0,0.0,0.0,0.0,0.0,0.0,0.0,0.0,0.0,0.0,0.0,0.0,0.0,0.0,0.0,0.0,0.0,0.0,0.0,0.0,0.0,0.0,0.0,0.0,0.0,0.0,0.0,0.0,0.0,0.0,0.0,0.0,0.0,0.0,0.0,0.0,0.0,-6.061,-6.0571,-6.048,-6.0518,-6.048,-6.0529,-6.1115,-6.134,-6.1355,-6.2116,-6.2459,-6.2459,-6.2535,-6.2471,-6.2373,-6.2449,-6.2876,-6.3451,0.0,0.0,0.0,0.0,0.0,0.0,0.0,0.0,0.0,0.0,0.0,0.0,0.0,0.0,0.0,0.0,0.0,0.0,0.0,0.0,-1.0473,-1.1333,-1.2859,-1.3879,-1.4221,-1.57,-1.6523,-1.6573,-1.8621,-1.9555,-1.9439,-2.0098,-2.0289,-2.0088,-2.0088,-1.9754,-1.9104,-1.8305,-1.7478,-1.6603,-1.5792,-1.5388,-1.5189,-1.5189,-1.5189,0.0,0.0,0.0,0.0,0.0,0.0,0.0,-1.624,-1.7055,-1.7902,-1.8756,-2.0843,0.0,0.0,0.0,0.0,0.0,0.0,0.0,0.0,0.0,0.0,0.0,0.0,0.0,0.0,0.0,0.0,0.0,0.0,0.0,0.0,0.0,0.0,0.0,0.0,0.0,0.0,0.0,0.0,0.0,0.0,0.0,0.0,0.0,0.0,0.0,0.0,0.0,-6.071,-6.0635,-6.0585,0.0,-6.0506,-6.0518,-6.0398,-6.0491,-6.0464,-6.0323,-6.0387,-6.0365,-6.0403,-6.0532,-6.0577,-6.0653,-6.1136,-6.1334,-6.1376,-6.1949,-6.2291,-6.2518,0.0,0.0,0.0,0.0,0.0,0.0,0.0,0.0,0.0,0.0,0.0,0.0,0.0,0.0,0.0,0.0,0.0,0.0,0.0,0.0,-1.0231,-1.1098,-1.2383,-1.3092,-1.3114,-1.4373,-1.5033,-1.5118,-1.6793,-1.8039,-1.8913,-1.9334,-1.9716,-2.0088,-2.0088,-1.9639,-1.8846,-1.8037,-1.7209,-1.6335,-1.5523,-1.5189,-1.5189,-1.5189,-1.5189,-1.5189,-1.5189,0.0,0.0,0.0,0.0,0.0,0.0,0.0,-1.7779,-1.8241,-2.0481,0.0,0.0,0.0,0.0,0.0,0.0,0.0,0.0,0.0,0.0,0.0,0.0,0.0,0.0,0.0,0.0,0.0,0.0,0.0,0.0,0.0,0.0,0.0,0.0,0.0,0.0,0.0,0.0,0.0,0.0,0.0,0.0,0.0,0.0,0.0,0.0,0.0,-6.0635,-6.0559,-6.0506,-6.048,-6.0436,-6.0151,-5.9684,-5.9731,-5.9512,-5.8957,-5.8889,-5.9057,-5.9305,-5.9311,-5.9474,-5.9857,-6.0172,-6.0327,-6.0402,-6.0748,-6.1163,-6.1653,0.0,0.0,0.0,0.0,0.0,0.0,0.0,0.0,0.0,0.0,0.0,0.0,0.0,0.0,0.0,0.0,0.0,0.0,0.0,0.0,0.0,-1.0936,-1.1755,-1.2229,-1.228,-1.3083,-1.3591,-1.3816,-1.5194,-1.6818,-1.8693,-1.8837,-1.9334,-2.0088,-2.0088,-1.9639,-1.8846,-1.8037,-1.7209,-1.6335,-1.5523,-1.5189,-1.5189,-1.5189,-1.5189,-1.5189,-1.5189,-1.5189,-1.5189,-1.5189,0.0,0.0,0.0,0.0,-1.7503,-1.7664,-1.9927,-2.2782,0.0,0.0,0.0,0.0,0.0,0.0,0.0,0.0,0.0,0.0,0.0,0.0,0.0,0.0,0.0,0.0,0.0,0.0,0.0,0.0,0.0,0.0,0.0,0.0,0.0,0.0,0.0,0.0,0.0,0.0,0.0,0.0,0.0,0.0,0.0,-6.0635,-6.0559,-6.0545,-6.0491,-6.0491,-6.0323,-5.9701,-5.8661,-5.8682,-5.8272,-5.7476,-5.7476,-5.7763,-5.8278,-5.8278,-5.8703,-5.9389,-5.9354,-5.943,-5.9581,-5.9581,-6.0033,-6.075,0.0,0.0,0.0,0.0,0.0,0.0,0.0,0.0,0.0,0.0,0.0,0.0,0.0,0.0,0.0,0.0,0.0,0.0,0.0,0.0,0.0,-1.0062,-1.0917,-1.1352,-1.1371,-1.2218,-1.3035,-1.3816,-1.4021,-1.5376,-1.7775,-1.854,-1.9334,-2.0088,-2.0088,-1.9639,-1.8846,-1.8037,-1.7209,-1.6335,-1.5523,-1.5189,-1.5189,-1.5189,-1.5189,-1.5189,-1.5189,-1.5189,-1.5189,-1.5189,-1.5189,0.0,0.0,0.0,-1.6811,-1.751,-1.9081,0.0,0.0,0.0,0.0,0.0,0.0,0.0,0.0,0.0,0.0,0.0,0.0,0.0,0.0,0.0,0.0,0.0,0.0,0.0,0.0,0.0,0.0,0.0,0.0,0.0,0.0,0.0,0.0,0.0,0.0,0.0,0.0,0.0,-6.0685,-6.0649,-6.0533,0.0,-6.0506,-6.0464,-6.038,-6.0323,-6.0197,-5.9269,-5.7688,-5.7666,-5.7529,-5.7384,-5.7359,-5.73,-5.731,-5.731,-5.7767,-5.8559,-5.8452,-5.8869,-5.9474,-5.9401,-5.9402,-5.9628,0.0,0.0,0.0,0.0,0.0,0.0,0.0,0.0,0.0,0.0,0.0,0.0,0.0,0.0,0.0,0.0,0.0,0.0,0.0,0.0,0.0,-0.9912,-1.0281,-1.0531,-1.0537,-1.1389,-1.2243,-1.3062,-1.3563,-1.5109,0.0,-1.8005,-1.8875,-2.0088,-2.0088,-1.9639,-1.8846,-1.7991,-1.7164,-1.6373,-1.6016,-1.5882,-1.5965,-1.6426,-1.6619,-1.6619,-1.6619,-1.6619,-1.6542,-1.608,-1.5926,-1.5849,-1.5343,0.0,0.0,0.0,-1.8581,0.0,0.0,0.0,0.0,0.0,0.0,0.0,0.0,0.0,0.0,0.0,0.0,0.0,0.0,0.0,0.0,0.0,0.0,0.0,0.0,0.0,0.0,0.0,0.0,0.0,0.0,0.0,0.0,0.0,0.0,0.0,0.0,-5.9254,-6.0112,-6.0533,-6.0545,0.0,-6.0425,-6.038,-6.0294,-6.0106,-5.9619,-5.8684,-5.7384,-5.6829,-5.6374,-5.5958,-5.5864,-5.6031,-5.638,-5.638,-5.7099,-5.8196,-5.8051,-5.8577,-5.929,-5.9178,-5.914,-5.9289,0.0,0.0,0.0,0.0,0.0,0.0,0.0,0.0,0.0,0.0,0.0,0.0,0.0,0.0,0.0,0.0,0.0,0.0,0.0,0.0,0.0,-0.9912,-0.9946,-1.0006,-1.0006,-1.0635,-1.1451,-1.2503,-1.3157,-1.4811,-1.7317,-1.7508,-1.8387,-1.9792,-2.0012,-1.9754,-1.9143,-1.8281,-1.7577,-1.7025,-1.6816,-1.6759,-1.6888,-1.7741,-1.8042,-1.8042,-1.8049,-1.8049,-1.7895,-1.708,-1.6811,-1.6657,-1.5766,-1.5958,0.0,0.0,0.0,0.0,0.0,0.0,0.0,0.0,0.0,0.0,0.0,0.0,0.0,0.0,0.0,0.0,0.0,0.0,0.0,0.0,0.0,0.0,0.0,0.0,0.0,0.0,0.0,0.0,0.0,0.0,0.0,0.0,0.0,0.0,-5.7723,-5.8527,-5.9345,-6.0081,-6.0119,-6.0168,-6.0313,-6.0264,-6.0061,-5.9671,-5.9033,-5.8104,-5.6954,-5.6279,-5.5492,-5.4736,-5.4673,-5.4948,-5.545,-5.5416,-5.6246,-5.7452,-5.7529,-5.8091,-5.8839,-5.8949,-5.8984,-5.9097,0.0,0.0,0.0,0.0,0.0,0.0,0.0,0.0,0.0,0.0,0.0,0.0,-0.9684,-0.9691,-0.9735,-0.9801,-0.9805,-0.9844,-0.9882,-0.99,-0.9912,-0.9912,-0.9946,0.0,-1.0006,-1.0033,-1.0853,-1.2503,-1.2597,0.0,-1.6468,-1.724,-1.8081,-1.899,-1.9754,-2.0088,-1.9983,-1.9198,-1.8803,-1.8712,-1.7922,-1.7644,-1.7741,-1.8588,-1.8927,-1.8919,-1.8934,-1.8934,-1.8819,-1.7933,-1.7626,-1.7503,-1.6606,-1.6369,-1.6407,0.0,0.0,0.0,0.0,0.0,0.0,0.0,0.0,0.0,0.0,0.0,0.0,0.0,0.0,0.0,0.0,0.0,0.0,0.0,0.0,0.0,0.0,0.0,0.0,0.0,0.0,0.0,0.0,0.0,0.0,0.0,0.0,0.0,-5.6792,-5.7609,-5.8398,-5.9035,-5.9073,-5.9426,-6.0099,-6.0076,-5.9633,-5.8874,-5.864,-5.7635,-5.6084,-5.5885,-5.5329,-5.4538,-5.4505,-5.451,-5.4484,-5.438,-5.487,-5.5694,-5.637,-5.7154,-5.7977,-5.8723,-5.8984,-5.8984,0.0,0.0,0.0,0.0,0.0,0.0,0.0,0.0,0.0,0.0,0.0,0.0,0.0,-1.0822,-1.0505,-1.0558,-1.0154,-0.9863,-0.99,-0.9906,-0.9918,-0.9967,-0.999,-1.0006,-1.0006,-0.9995,-1.0586,-1.1729,-1.2324,-1.3641,-1.5589,-1.643,-1.727,-1.8119,-1.9486,-2.0088,-2.005,-1.9228,-1.8909,0.0,-1.9219,-1.9319,-1.9504,-2.0889,-2.1427,0.0,0.0,0.0,0.0,-2.0427,-1.9765,-1.9143,-1.8328,-1.7315,-1.638,-1.6412,-1.7071,-1.8198,0.0,0.0,0.0,0.0,0.0,0.0,0.0,0.0,0.0,0.0,0.0,0.0,0.0,0.0,0.0,0.0,0.0,0.0,0.0,0.0,0.0,0.0,0.0,0.0,0.0,0.0,0.0,0.0,0.0,0.0,-5.6561,-5.6866,-5.7347,-5.8072,-5.8072,-5.8196,-5.841,-5.8349,-5.8173,-5.7845,-5.7149,-5.6517,-5.5847,-5.5216,-5.474,-5.4375,-5.4375,-5.434,-5.4306,-5.4308,-5.4722,-5.536,-5.5623,-5.6479,-5.7672,-5.7968,-5.8375,-5.8821,0.0,0.0,0.0,0.0,0.0,0.0,0.0,0.0,-1.229,-1.2054,0.0,0.0,0.0,0.0,-1.1245,-1.1065,-1.0579,-1.0169,-0.9912,-0.9912,-0.9923,-0.9978,-0.9995,-1.0006,-1.0006,-0.9995,-1.0429,-1.1304,-1.1866,-1.3029,-1.4672,-1.5551,-1.6392,-1.7278,-1.8654,-1.941,0.0,0.0,0.0,-1.9402,0.0,-2.0856,-2.1312,-2.3004,0.0,0.0,0.0,0.0,0.0,0.0,-2.194,-2.124,-1.9841,-1.8022,-1.639,-1.6397,-1.6405,-1.6833,-1.8812,0.0,0.0,0.0,0.0,0.0,0.0,0.0,0.0,0.0,0.0,0.0,0.0,0.0,0.0,0.0,0.0,0.0,0.0,0.0,0.0,0.0,0.0,0.0,0.0,0.0,0.0,0.0,0.0,0.0,-5.6022,-5.6033,-5.6387,-5.7139,-5.7384,-5.7476,-5.7415,-5.7352,-5.7138,-5.6846,-5.6182,-5.5701,-5.5333,-5.4702,-5.4375,-5.4308,-5.4235,-5.4235,-5.4235,-5.4237,-5.4464,-5.4876,-5.5062,-5.5992,-5.7181,-5.7438,-5.8029,-5.8698,0.0,0.0,0.0,0.0,0.0,0.0,0.0,0.0,-1.2972,-1.218,0.0,0.0,0.0,0.0,0.0,-1.1199,-1.1147,-1.0801,-0.9987,-0.9949,-0.9961,-0.9978,-0.9995,-1.0006,-1.0006,-0.9995,-1.0391,-1.1266,-1.1299,-1.2112,-1.3762,-1.4634,-1.5475,-1.6353,-1.7171,-1.8013,-1.8884,0.0,-2.0152,-2.0255,0.0,-2.2064,-2.3004,0.0,0.0,0.0,-2.6659,-2.6659,0.0,-2.4735,0.0,-2.3602,-2.0995,-1.851,-1.6506,-1.646,-1.6429,-1.6627,0.0,0.0,0.0,0.0,0.0,0.0,0.0,0.0,0.0,0.0,0.0,0.0,0.0,0.0,0.0,0.0,0.0,0.0,0.0,0.0,0.0,0.0,0.0,0.0,0.0,0.0,0.0,0.0,0.0,-5.5145,-5.5145,-5.5102,-5.5465,-5.6215,-5.6898,-5.7219,-5.7219,-5.7083,-5.6635,-5.588,-5.5781,-5.5296,-5.4505,-5.434,-5.4308,-5.4308,-5.4127,-5.4091,-5.4091,-5.4019,-5.3982,-5.4056,-5.4724,-5.5503,-5.6357,-5.7175,-5.7992,-5.8661,0.0,0.0,0.0,0.0,0.0,-1.4234,-1.4077,-1.4053,-1.4015,0.0,0.0,0.0,-1.3924,-1.3466,-1.2807,-1.2058,-1.203,-1.1692,-1.0898,-1.0829,-1.0571,-1.0033,-1.0001,-1.0006,-1.0006,-0.9995,-1.0124,-1.0353,-1.0994,-1.1539,-1.1998,-1.2876,-1.3762,-1.4616,-1.5419,-1.6268,-1.7202,-1.862,0.0,0.0,-2.1585,-2.293,0.0,0.0,0.0,0.0,0.0,-2.8395,-2.8318,0.0,-2.6431,-2.4328,-2.1111,-1.9639,-1.8837,-1.7622,-1.7286,-1.7447,-1.8343,0.0,0.0,0.0,0.0,0.0,0.0,0.0,0.0,0.0,0.0,0.0,0.0,0.0,0.0,0.0,0.0,0.0,0.0,0.0,0.0,0.0,0.0,0.0,0.0,0.0,0.0,0.0,0.0,-5.4291,-5.421,-5.4638,-5.5004,-5.5201,-5.5334,-5.5422,-5.5422,-5.5319,-5.5103,-5.4877,-5.4848,-5.4634,-5.434,-5.4343,-5.4237,-5.4055,-5.4055,-5.3982,-5.387,-5.3982,-5.3944,-5.3869,-5.4054,-5.4648,-5.5466,-5.632,-5.7138,-5.7918,0.0,0.0,0.0,0.0,0.0,-1.4922,-1.5324,-1.54,-1.5439,0.0,0.0,0.0,-1.5575,-1.5269,-1.4586,-1.3393,-1.3371,-1.2933,-1.1772,-1.1697,-1.1333,-1.0537,-1.0499,-1.0347,-1.0017,-1.0,-1.0015,-0.9982,-1.0541,-1.0971,-1.131,-1.1812,-1.2506,-1.3397,0.0,0.0,0.0,0.0,0.0,0.0,-2.1778,0.0,0.0,-2.6787,-2.8617,0.0,0.0,0.0,-3.0586,-3.0228,-2.8121,0.0,0.0,-2.1512,-2.0365,-1.9028,-1.8425,-1.8234,-1.8748,-1.8901,-1.9216,-2.0564,0.0,0.0,0.0,0.0,0.0,0.0,0.0,0.0,0.0,0.0,0.0,0.0,0.0,0.0,0.0,0.0,0.0,0.0,0.0,0.0,0.0,0.0,0.0,0.0,-5.2894,-5.346,-5.3661,-5.4035,-5.4358,-5.4736,-5.4673,-5.4641,-5.4641,-5.4505,-5.4439,-5.4443,-5.4375,-5.4306,-5.42,-5.4164,-5.4092,-5.3982,-5.3944,-5.3869,-5.3754,-5.3831,-5.3831,-5.3754,-5.3754,-5.4237,-5.4976,-5.5788,-5.664,-5.7497,0.0,0.0,-1.454,-1.5288,-1.5546,-1.5914,-1.6682,-1.682,-1.6812,0.0,-1.6982,-1.7059,-1.7112,-1.7238,-1.6713,-1.5248,-1.5084,-1.439,-1.2783,-1.2678,-1.2284,-1.1364,-1.1333,-1.0998,-1.0293,-1.0195,-1.0134,-1.0149,-1.0125,-1.0474,-1.1157,-1.1172,-1.1637,-1.2517,0.0,0.0,0.0,0.0,0.0,-1.9204,-2.1778,-2.3852,0.0,0.0,-3.0126,0.0,-3.2656,-3.2924,-3.2771,-3.1708,-2.9333,0.0,0.0,0.0,0.0,-2.0786,-1.9945,-1.9295,-1.9295,-1.9257,-1.9334,-2.006,-2.0843,0.0,-2.336,-2.452,0.0,0.0,0.0,0.0,0.0,0.0,0.0,0.0,0.0,0.0,0.0,0.0,0.0,0.0,0.0,0.0,0.0,0.0,0.0,-5.1116,-5.1874,-5.2637,-5.3293,-5.3308,-5.3616,-5.4371,-5.435,-5.4322,-5.4322,-5.4368,-5.434,-5.4308,-5.4308,-5.42,-5.4091,-5.4019,-5.3982,-5.3982,-5.3869,-5.3754,-5.3714,-5.3674,-5.3674,-5.3674,-5.3674,-5.4041,-5.4663,-5.5475,-5.6325,-5.7174,0.0,-1.4706,-1.5238,-1.5438,-1.6045,-1.6544,-1.6783,-1.6798,-1.6826,-1.6895,-1.7514,-1.796,-1.7973,-1.8092,-1.8018,-1.772,-1.7143,-1.6146,-1.4521,-1.4396,-1.3742,-1.2222,-1.2236,-1.218,-1.2003,-1.1375,-1.1049,-1.106,-1.0393,-1.0173,-1.0326,-1.0326,-1.0804,-1.1671,-1.2483,0.0,0.0,0.0,0.0,-1.9235,-2.1778,0.0,-2.6462,-2.83,-3.0483,-3.2666,-3.347,-3.3776,-3.3432,0.0,-3.0008,-2.9077,0.0,0.0,0.0,-2.3422,-2.2543,-2.1894,-2.1894,-2.1407,-2.0948,-2.1101,-2.1254,0.0,-2.1837,-2.3635,0.0,0.0,0.0,0.0,0.0,0.0,0.0,0.0,0.0,0.0,0.0,0.0,0.0,0.0,0.0,0.0,0.0,0.0,-4.8604,-4.9252,-5.0523,-5.1622,-5.2402,-5.2416,-5.2429,-5.258,-5.3057,-5.329,-5.329,-5.3861,-5.4163,-5.4127,-5.4127,-5.4128,-5.4019,-5.3982,-5.3944,-5.3832,-5.3754,-5.3714,-5.3714,-5.3598,-5.3558,-5.3558,-5.3558,-5.3632,-5.3813,-5.4626,-5.5438,-5.6288,-1.4203,-1.4864,-1.554,-1.603,-1.6784,-1.7451,-1.7927,-1.8,-1.8176,-1.8617,-1.9479,-2.0055,-2.0055,-2.0173,-2.0094,-1.9673,-1.8927,-1.8001,-1.6805,-1.6356,-1.5394,-1.372,-1.3713,-1.3356,-1.2534,-1.2091,-1.1691,-1.1288,-1.0884,-1.0474,-1.0096,-1.0096,-1.0565,-1.1388,-1.2237,0.0,0.0,0.0,-1.8682,-2.0352,-2.2048,0.0,-2.6718,-2.8811,-3.0901,-3.289,-3.4152,-3.4611,-3.4343,-3.2645,-3.1522,0.0,0.0,-2.7434,-2.6288,0.0,-2.453,-2.3804,0.0,-2.262,-2.2018,-2.2018,0.0,0.0,0.0,-2.3012,0.0,0.0,0.0,0.0,0.0,0.0,0.0,0.0,0.0,0.0,0.0,0.0,0.0,0.0,0.0,0.0,0.0,0.0,-4.7276,-4.801,-4.906,-5.0032,-5.087,-5.123,-5.1581,-5.1931,-5.224,-5.2398,-5.233,-5.3118,-5.3493,-5.3384,-5.3832,-5.4019,-5.3907,-5.3869,-5.3793,-5.3754,-5.3637,-5.3558,-5.3518,-5.344,-5.3359,-5.3355,-5.3359,-5.3359,-5.3465,-5.4239,-5.5049,-5.5859,-1.4203,-1.4972,-1.5865,-1.6552,-1.7509,-1.8358,-1.9093,-1.9328,-1.9762,-2.0649,-2.1705,-2.2362,-2.2362,-2.2609,-2.2539,-2.189,-2.0984,-2.0088,-1.9362,-1.8418,-1.7195,-1.5677,-1.5523,-1.4752,-1.3256,-1.308,-1.2605,-1.1784,-1.1457,-1.0971,-1.0326,-1.0326,-1.0675,-1.1374,-1.2566,0.0,0.0,0.0,0.0,-2.1503,0.0,-2.4602,-2.7012,-2.9511,-3.1408,-3.2921,-3.4617,-3.519,-3.5076,-3.4273,0.0,-3.1828,-3.0949,-2.965,0.0,0.0,0.0,0.0,0.0,0.0,0.0,0.0,0.0,-2.2811,0.0,0.0,0.0,0.0,0.0,0.0,0.0,0.0,0.0,0.0,0.0,0.0,0.0,0.0,0.0,0.0,0.0,0.0,0.0,0.0,-4.5862,-4.6717,-4.741,-4.8219,-4.9055,-4.9784,-5.0478,-5.105,-5.1353,-5.1507,-5.1439,-5.2225,-5.2638,-5.2679,-5.3386,-5.372,-5.3793,-5.3676,-5.3674,-5.3637,-5.3518,-5.34,-5.3318,-5.3277,-5.3272,-5.3225,-5.3235,-5.3272,-5.3298,-5.3922,-5.4766,-5.5684,-1.4203,-1.5404,-1.6514,-1.666,-1.798,-1.9012,-1.9202,-1.9802,-2.0602,-2.1547,-2.3049,-2.4025,-2.4025,-2.4799,-2.5296,-2.5252,-2.3864,-2.266,-2.1929,-2.0389,-1.9134,-1.8224,-1.75,-1.6744,-1.5877,-1.5095,-1.4311,-1.3532,-1.2024,-1.1239,-1.1177,-1.1177,-1.122,-1.1503,-1.3798,0.0,0.0,0.0,-2.0479,0.0,-2.3979,-2.5994,0.0,-3.0376,-3.1904,-3.2921,-3.4617,-3.519,-3.5076,0.0,-3.3853,-3.3547,0.0,-3.1752,-3.0835,-2.9994,0.0,0.0,0.0,0.0,0.0,0.0,-2.4301,0.0,0.0,0.0,0.0,0.0,0.0,0.0,0.0,0.0,0.0,0.0,0.0,0.0,0.0,0.0,0.0,0.0,0.0,0.0,0.0,0.0,0.0,-4.4783,-4.5697,-4.6468,-4.7147,-4.7941,-4.8396,-4.8408,-4.9765,-5.0477,-5.0443,-5.1191,-5.1936,-5.2605,-5.2604,-5.2973,-5.3714,-5.3598,-5.3521,-5.3518,-5.34,-5.3318,-5.3318,-5.323,-5.3225,-5.3225,-5.3225,-5.3225,-5.3225,-5.3298,-5.4289,-5.5611,-1.437,-1.5512,-1.6622,-1.6697,-1.8052,-1.912,-1.9202,-2.0363,-2.1696,-2.3015,-2.4247,-2.5374,-2.6354,-2.6822,-2.7307,-2.7848,0.0,-2.5361,0.0,0.0,-2.1593,-2.0778,-1.9518,-1.8493,-1.7719,-1.6438,-1.5323,-1.4501,-1.3303,-1.2521,-1.2041,-1.2041,-1.2315,-1.2861,-1.4424,0.0,-1.7439,0.0,0.0,0.0,0.0,0.0,0.0,-3.0873,-3.2592,-3.4235,-3.4961,-3.519,-3.5152,0.0,-3.4388,0.0,0.0,0.0,0.0,0.0,0.0,0.0,0.0,0.0,0.0,0.0,0.0,0.0,-2.4354,0.0,-2.4319,0.0,0.0,0.0,0.0,0.0,0.0,0.0,0.0,0.0,0.0,0.0,0.0,0.0,0.0,0.0,0.0,0.0,0.0,0.0,0.0,-4.413,-4.5357,-4.6188,-4.6987,-4.7863,-4.8505,-4.9068,-4.9445,-5.0229,-5.0749,-5.112,-5.1934,-5.2562,-5.2932,-5.3219,-5.34,-5.3359,-5.3277,-5.323,-5.323,-5.3188,-5.3225,-5.3225,-5.3225,-5.3225,-5.3225,-5.3225,-5.4216,-5.5574,-1.5038,-1.5965,-1.6946,-1.7022,-1.8197,-1.9265,-1.9785,-2.1331,-2.2942,-2.4337,-2.5685,-2.6962,-2.8202,-2.8804,0.0,0.0,-2.878,-2.7998,0.0,0.0,-2.4234,-2.3685,-2.1871,-2.055,-1.9719,-1.8127,-1.6797,-1.5703,-1.4661,-1.3729,-1.2941,-1.2947,-1.3373,-1.422,0.0,-1.7079,-1.9295,0.0,0.0,-2.5344,-2.6823,-2.8962,-3.1293,-3.1904,-3.3394,-3.5229,-3.5458,-3.5572,-3.5611,-3.5802,-3.5496,0.0,-3.4999,0.0,0.0,0.0,0.0,0.0,-3.2325,0.0,0.0,0.0,0.0,0.0,0.0,0.0,0.0,0.0,0.0,0.0,0.0,0.0,-2.4977,-2.3878,0.0,0.0,0.0,0.0,0.0,0.0,0.0,0.0,0.0,0.0,0.0,0.0,-4.049,0.0,-4.3539,-4.4595,-4.5736,-4.7057,-4.7508,-4.7995,-4.8558,-4.9231,-4.975,-4.9973,-5.1043,-5.1817,-5.2259,-5.2729,-5.3056,-5.3277,-5.323,-5.3225,-5.3225,-5.3146,-5.3146,-5.3146,-5.3103,-5.3103,-5.3146,-5.3182,-5.4069,-5.528,-1.6427,-1.7172,-1.7776,-1.7855,0.0,-1.9628,-2.1279,-2.2959,0.0,0.0,0.0,0.0,0.0,0.0,0.0,0.0,0.0,-3.0553,-3.0692,0.0,-2.6984,0.0,0.0,-2.3105,-2.2287,-2.0695,-1.9068,-1.7434,-1.5833,-1.4599,-1.3761,-1.3749,-1.422,-1.5131,0.0,-1.8455,-2.0203,-2.2734,-2.4339,-2.5497,-2.8771,-3.1599,-3.3891,0.0,-3.4464,-3.5305,-3.6184,0.0,0.0,-3.7368,-3.7597,0.0,0.0,0.0,0.0,0.0,0.0,0.0,0.0,0.0,0.0,-3.1752,0.0,0.0,0.0,0.0,-2.8432,0.0,0.0,0.0,0.0,-2.6129,-2.5622,-2.3954,-2.3727,0.0,0.0,0.0,0.0,0.0,0.0,0.0,0.0,0.0,0.0,0.0,-3.7866,0.0,-4.1679,-4.3357,-4.46,-4.5361,-4.6854,-4.7601,-4.7638,-4.8308,-4.9085,-4.9899,-4.9823,-5.0593,-5.2066,-5.2059,-5.2454,-5.3188,-5.3225,-5.3225,-5.3225,-5.306,-5.3017,-5.298,-5.285,-5.2893,-5.3017,-5.3146,-5.3739,-5.4546,-1.8198,-1.8752,-1.902,0.0,0.0,0.0,0.0,-2.3707,0.0,0.0,0.0,0.0,0.0,0.0,-3.382,0.0,0.0,-3.3701,-3.3209,-3.142,0.0,0.0,0.0,-2.5627,0.0,-2.2716,-2.0797,-1.9143,-1.7481,-1.6244,-1.543,-1.4919,-1.5124,-1.6048,0.0,-1.9381,0.0,0.0,0.0,0.0,0.0,-3.3547,-3.4732,0.0,0.0,-3.6107,-3.6413,-3.6833,0.0,-3.7597,-3.7712,-3.7712,-3.7712,-3.7712,-3.7636,-3.7368,-3.7292,0.0,0.0,0.0,-3.5496,-3.4923,0.0,0.0,0.0,0.0,0.0,0.0,0.0,0.0,0.0,-2.7403,-2.6508,-2.4826,-2.3613,-2.2628,0.0,0.0,0.0,0.0,0.0,0.0,0.0,0.0,0.0,-3.3537,-3.489,-3.6671,0.0,-4.0803,-4.25,-4.43,-4.5897,-4.6974,-4.7457,-4.82,-4.8679,-4.8974,-4.9413,-4.9926,-5.0478,-5.154,-5.2082,-5.2291,-5.284,-5.3017,-5.293,-5.2893,-5.285,-5.285,-5.2806,-5.2806,-5.2893,-5.3017,-5.3616,-5.4583,-1.9772,0.0,0.0,0.0,0.0,0.0,0.0,0.0,0.0,0.0,-3.0221,0.0,-3.4186,0.0,-3.544,0.0,-3.6247,-3.5777,-3.5291,-3.4031,0.0,-3.2214,-3.0133,0.0,0.0,-2.4978,-2.2767,-2.0846,-1.9209,-1.7671,-1.629,-1.6086,-1.6292,-1.6911,0.0,0.0,0.0,0.0,-2.7052,0.0,0.0,-3.4907,0.0,0.0,-3.5993,-3.6986,0.0,-3.7712,-3.8209,-3.8514,-3.8629,-3.8629,-3.8629,-3.8629,-3.8667,-3.8973,-3.9049,-3.9049,-3.9049,-3.8667,0.0,-3.7941,-3.7371,0.0,-3.5796,0.0,0.0,0.0,0.0,0.0,0.0,-2.9374,-2.8048,-2.5787,-2.4257,-2.2817,0.0,-2.113,0.0,0.0,0.0,0.0,0.0,0.0,-2.8727,-3.091,-3.2545,-3.4647,0.0,0.0,-4.0993,-4.3415,-4.4683,-4.5835,-4.6945,-4.7647,-4.8125,-4.8419,-4.8893,-4.9258,-4.9551,-5.0574,-5.1261,-5.1725,-5.2279,-5.2638,-5.2806,-5.2761,-5.2717,-5.2717,-5.2672,-5.2717,-5.2761,-5.2937,-5.3616,-5.4583,0.0,0.0,0.0,0.0,-2.2343,0.0,0.0,0.0,-2.9223,0.0,-3.2438,-3.4281,-3.5174,-3.6122,-3.6758,-3.6832,-3.6875,0.0,-3.6919,-3.6285,0.0,0.0,-3.3156,-3.1562,-2.9907,0.0,-2.5059,-2.259,-2.0922,-1.8878,-1.6485,-1.725,-1.7619,-1.7733,-1.9402,0.0,-2.39,-2.5628,-2.7885,-3.0563,-3.3925,-3.5772,-3.6611,-3.7427,0.0,-3.798,-3.8744,-3.9049,-3.924,-4.0081,-4.0387,-4.0425,-4.0425,-4.0425,-4.0578,-4.1342,-4.1571,-4.1571,-4.1571,-4.1571,-4.1457,-4.0692,0.0,0.0,0.0,0.0,-3.8495,0.0,0.0,0.0,0.0,0.0,-3.0246,-2.6948,-2.5556,-2.4025,-2.1569,-2.1179,-2.0815,0.0,0.0,0.0,0.0,-2.4575,-2.587,-2.8947,-3.0788,0.0,0.0,0.0,0.0,-4.2458,-4.3221,-4.4407,-4.6027,-4.6691,-4.7424,-4.8233,-4.8153,-4.8553,-4.9358,-4.9236,-5.0034,-5.1493,-5.1566,-5.204,-5.2725,-5.2635,-5.259,-5.259,-5.2526,-5.2536,-5.2635,-5.2893,-5.3616,-5.4509,-2.2852,-2.3419,-2.4203,0.0,-2.4548,-2.4614,0.0,0.0,0.0,0.0,-3.3927,-3.5523,-3.7632,-3.8124,-3.8839,-4.0155,-4.0317,0.0,0.0,0.0,0.0,-3.6419,-3.4824,-3.3477,-3.2445,-3.0094,-2.7619,-2.5135,-2.2956,-2.0907,-1.903,-1.8013,-1.788,-1.8574,0.0,0.0,-2.3953,-2.63,-2.9421,-3.3037,-3.5186,-3.6918,0.0,0.0,-3.9413,-4.0387,-3.9355,-3.9814,-4.0883,-4.1113,-4.1609,-4.2144,-4.2144,-4.2144,-4.2183,-4.2412,-4.245,-4.245,-4.245,-4.2908,-4.3309,-4.3039,-4.3416,-4.377,0.0,0.0,0.0,0.0,0.0,0.0,0.0,0.0,-3.2351,-3.0213,-2.7009,-2.4369,-2.306,-2.2342,0.0,-2.1573,0.0,0.0,0.0,-2.3465,-2.4849,-2.5707,-2.8363,0.0,0.0,0.0,0.0,-4.0603,-4.2566,-4.4078,-4.5038,-4.5773,-4.6542,-4.7348,-4.7195,-4.7594,-4.836,-4.894,-4.9409,-4.9798,-5.0998,-5.1609,-5.1737,-5.2272,-5.2526,-5.2526,-5.248,-5.2536,-5.2635,-5.2893,-5.3529,-5.4305,-2.4492,0.0,0.0,-2.7975,0.0,0.0,-2.9424,0.0,0.0,-3.4447,-3.5747,0.0,-3.9081,-3.9651,-4.0302,-4.1317,-4.1519,0.0,-4.0328,0.0,0.0,-3.8065,-3.7154,-3.5837,-3.3966,-3.1901,0.0,-2.6616,0.0,-2.1971,-1.9996,-1.902,-1.8659,-1.8897,0.0,-2.2737,0.0,-2.8563,-3.183,-3.4469,-3.654,0.0,0.0,-3.9814,-4.0786,-4.1874,-4.092,-4.1227,-4.2068,-4.2068,-4.2374,-4.2794,-4.2794,-4.2794,-4.287,-4.3214,-4.3596,-4.3978,-4.4281,-4.4968,-4.5595,-4.5529,-4.5826,-4.6159,-4.6111,-4.5304,-4.4497,0.0,0.0,0.0,0.0,0.0,0.0,-3.2108,-2.8697,-2.6107,-2.5264,0.0,0.0,0.0,-2.2234,0.0,0.0,0.0,-2.331,0.0,0.0,0.0,0.0,0.0,0.0,-3.9399,-4.1135,-4.2687,-4.4158,-4.4894,-4.5663,-4.6468,-4.6679,-4.6964,-4.7438,-4.8198,-4.8738,-4.9053,-4.996,-5.0714,-5.1321,-5.1792,-5.219,-5.248,-5.248,-5.2526,-5.2581,-5.2761,-5.3186,-5.3749,0.0,0.0,0.0,0.0,0.0,0.0,0.0,-3.3089,0.0,-3.6103,0.0,-3.9182,-4.012,-4.0882,-4.142,-4.1594,0.0,-4.1779,-4.1728,-4.1816,-4.1203,-3.9703,-3.95,-3.8078,-3.5296,-3.346,-3.1017,0.0,-2.537,-2.2842,-2.0456,-2.0262,-1.9779,0.0,0.0,0.0,0.0,-3.1362,-3.4226,0.0,-3.7925,-3.9426,-4.0262,-4.114,-4.1998,-4.2759,-4.2759,-4.2845,-4.2927,-4.2927,-4.3079,-4.327,-4.327,-4.3367,-4.3596,-4.4263,-4.5027,-4.5753,-4.6374,-4.719,-4.7876,-4.7919,-4.7984,-4.8011,-4.8099,-4.7922,-4.7529,-4.6809,-4.5824,-4.4383,0.0,0.0,-3.7406,-3.3563,-3.079,0.0,0.0,0.0,0.0,0.0,0.0,0.0,0.0,0.0,0.0,0.0,0.0,0.0,0.0,0.0,0.0,0.0,-3.9381,0.0,-4.3314,0.0,-4.4821,-4.5589,-4.6236,-4.6553,-4.6699,-4.7379,-4.8098,-4.8749,-4.8858,-4.9764,-5.114,-5.1249,-5.1756,-5.248,-5.248,-5.248,-5.248,-5.2581,-5.2761,-5.3047,0.0,0.0,0.0,0.0,0.0,-3.5159,-3.6591,-3.6612,-3.6812,-3.7854,-3.9447,0.0,-4.1809,-4.2059,-4.2456,-4.3118,-4.3356,0.0,0.0,0.0,0.0,-4.1315,-4.0087,-3.9114,-3.854,-3.5732,-3.3313,-3.1356,-2.824,-2.5437,-2.2943,-2.163,-2.0922,0.0,0.0,0.0,-2.8313,-3.2103,0.0,-3.6196,-3.8698,-4.0257,-4.1174,-4.1993,-4.2813,-4.358,-4.358,-4.3602,-4.3602,-4.3602,-4.4636,-4.5862,-4.5862,-4.6342,-4.6937,-4.7045,-4.7137,-4.7289,-4.7372,-4.8057,-4.8833,-4.9442,-5.01,-5.0795,-5.1385,-5.0448,-4.9424,-4.9273,-4.7491,-4.5571,-4.4386,0.0,0.0,0.0,0.0,0.0,0.0,0.0,0.0,0.0,0.0,0.0,0.0,0.0,0.0,0.0,0.0,0.0,0.0,0.0,0.0,0.0,0.0,0.0,0.0,0.0,0.0,-4.4562,-4.5207,-4.5892,-4.6581,-4.7337,-4.7772,-4.7953,-4.8641,-4.9438,-5.0343,-5.1031,-5.1756,-5.248,-5.248,-5.248,-5.248,-5.2526,-5.2581,-5.2717,0.0,0.0,0.0,0.0,0.0,0.0,0.0,-3.9082,0.0,-3.9607,-4.0696,-4.1711,-4.2249,-4.2687,-4.3125,-4.3563,-4.3771,-4.3721,-4.3341,-4.3429,-4.3118,-4.2352,-4.1624,0.0,-3.9451,-3.7113,-3.4701,-3.2202,-2.9358,-2.666,-2.42,-2.298,-2.2212,0.0,0.0,-2.7138,0.0,0.0,0.0,-3.8281,-3.9911,-4.1374,-4.2648,-4.3445,-4.4303,-4.5086,-4.5504,-4.5656,-4.5618,-4.527,-4.6001,-4.7091,-4.7091,-4.7381,-4.7686,-4.7662,-4.7967,-4.8324,-4.8237,-4.9163,-5.0202,-5.054,-5.1261,-5.1954,-5.2305,-5.1746,-5.0998,-5.0544,-4.9153,-4.7359,-4.5141,-4.231,0.0,0.0,0.0,0.0,0.0,0.0,0.0,0.0,0.0,0.0,0.0,0.0,0.0,0.0,0.0,0.0,0.0,0.0,0.0,0.0,0.0,0.0,0.0,0.0,0.0,-4.4304,-4.495,-4.5707,-4.654,-4.7337,-4.7699,-4.7735,-4.8134,-4.8749,-4.9582,-5.0778,-5.1756,-5.248,-5.248,-5.248,-5.248,-5.248,-5.2526,-5.2536,0.0,-3.4938,0.0,0.0,-3.7972,0.0,0.0,-4.1322,-4.2086,-4.1139,-4.1756,-4.2337,-4.2509,-4.313,-4.3532,-4.36,-4.3671,-4.3771,-4.3865,-4.3923,-4.3732,-4.315,-4.3029,-4.2025,-3.9933,-3.8377,-3.6047,0.0,-3.049,-2.8043,-2.5552,-2.4601,-2.3874,0.0,0.0,0.0,0.0,0.0,-3.7978,-4.0003,-4.1427,-4.2791,-4.4042,-4.5066,-4.5862,-4.6544,-4.715,-4.7529,-4.7593,-4.7086,-4.7324,-4.7857,-4.7857,-4.7971,-4.8147,-4.8123,-4.858,-4.9163,-4.9302,-5.0263,-5.1337,-5.1623,-5.2163,-5.2693,-5.2853,-5.271,-5.2273,-5.1441,-5.0287,-4.8607,-4.5968,-4.403,0.0,0.0,0.0,0.0,0.0,0.0,0.0,0.0,0.0,0.0,0.0,0.0,0.0,0.0,0.0,-2.4025,-2.6465,-2.8741,0.0,0.0,0.0,-3.9264,-4.0839,0.0,-4.3504,0.0,-4.495,-4.5707,-4.654,-4.7337,-4.7657,-4.7657,-4.7657,-4.8127,-4.8996,-5.0633,-5.1647,-5.2263,-5.2408,-5.248,-5.248,-5.248,-5.248,-5.248,0.0,0.0,0.0,0.0,0.0,0.0,0.0,-4.37,-4.4072,-4.2087,-4.2523,-4.3141,-4.3284,-4.3426,-4.3497,-4.3532,-4.36,-4.3664,-4.3795,-4.3886,-4.3912,-4.3912,-4.3252,-4.2454,-4.1501,-3.996,-3.7941,0.0,0.0,-3.0584,-2.8139,-2.6591,0.0,0.0,0.0,0.0,0.0,-3.7068,-3.9001,-4.0154,-4.3322,-4.4649,-4.4952,-4.6544,-4.7226,-4.7302,-4.7378,-4.7908,-4.8553,-4.8503,-4.8593,-4.872,-4.872,-4.9239,-4.9835,-4.9784,-4.9834,-5.0062,-5.0778,-5.1092,-5.1519,-5.2937,-5.3361,-5.3596,-5.4321,-5.3874,-5.305,-5.2258,-5.0124,-4.8332,-4.8031,-4.6544,-4.5097,0.0,0.0,0.0,0.0,0.0,0.0,0.0,0.0,0.0,0.0,0.0,0.0,0.0,0.0,-2.4043,-2.6465,-2.8205,-3.0564,-3.3707,0.0,-3.9199,-4.0704,-4.2305,0.0,-4.4152,-4.491,-4.5707,-4.654,-4.7337,-4.7615,-4.7529,-4.7529,-4.7962,-4.8828,-5.0588,-5.1321,-5.1466,-5.2226,-5.248,-5.248,-5.248,-5.248,-5.248,0.0,0.0,0.0,0.0,0.0,0.0,0.0,-4.4633,-4.4827,-4.4044,-4.4304,-4.4453,-4.4163,-4.4126,-4.3979,-4.3534,-4.3569,-4.3637,-4.3664,-4.3795,-4.3892,-4.3961,-4.3751,-4.3282,-4.2441,-4.0914,-3.9163,0.0,0.0,-3.2572,-3.0622,-2.9662,0.0,0.0,0.0,-3.4131,-3.678,-3.9169,-4.1215,-4.2986,-4.4865,-4.5899,-4.6414,-4.7548,-4.8002,-4.8077,-4.8569,-4.8985,-4.9287,-4.9287,-4.937,-4.9478,-4.9478,-5.0047,-5.0757,-5.073,-5.1044,-5.1499,-5.1755,-5.2218,-5.2748,-5.3301,-5.383,-5.4289,-5.4629,-5.4377,-5.3855,-5.3031,-5.1199,-4.9439,-4.8423,-4.768,-4.6907,0.0,0.0,0.0,0.0,0.0,0.0,0.0,0.0,-3.4179,0.0,0.0,0.0,0.0,0.0,0.0,-2.5706,-2.7748,-3.0355,-3.3542,0.0,-3.9137,-4.0669,-4.2704,-4.408,-4.4838,-4.5635,-4.6432,-4.7228,-4.747,-4.7529,-4.7363,-4.7363,-4.7875,-4.8756,-4.945,-5.0371,-5.1321,-5.1647,-5.2082,-5.248,-5.248,-5.248,-5.248,-4.2711,0.0,-4.3017,0.0,-4.4043,-4.4449,-4.5186,-4.5564,-4.5833,-4.5915,-4.6074,-4.5833,-4.5003,-4.493,-4.4638,-4.3936,-4.3897,-4.3823,-4.3597,-4.3767,-4.3902,-4.3897,-4.4023,0.0,-4.2895,-4.1828,-4.0466,-3.8876,-3.6657,0.0,-3.351,0.0,0.0,0.0,-3.4658,-3.6604,-3.9422,-4.1373,-4.3188,-4.4903,-4.6225,-4.7106,-4.7692,-4.8749,-4.9164,-4.9239,-5.0107,-5.0447,-5.0447,-5.0447,-5.0496,-5.0544,-5.0306,-5.0647,-5.1216,-5.1443,-5.1907,-5.237,-5.2575,-5.3029,-5.3527,-5.366,-5.4188,-5.4641,-5.4608,-5.4543,-5.4171,-5.3118,-5.17,-5.0278,-4.8852,-4.8521,-4.8227,-4.7342,0.0,0.0,0.0,0.0,0.0,0.0,-3.8359,-3.6313,-3.3845,0.0,0.0,0.0,0.0,0.0,-2.6264,-2.8117,0.0,0.0,0.0,0.0,0.0,-4.2956,-4.4512,-4.5309,-4.6106,-4.6897,-4.7615,-4.7486,-4.7363,-4.7276,-4.7276,-4.7643,-4.8307,-4.8568,-4.9414,-5.0588,-5.1104,-5.1647,-5.219,-5.2408,-5.248,-5.248,-4.4243,-4.4378,-4.4511,-4.4563,-4.5249,-4.5829,-4.5996,-4.6693,-4.7327,-4.745,-4.7578,-4.713,-4.5729,-4.5698,-4.548,-4.4775,-4.4665,-4.4404,-4.3631,-4.3734,-4.3837,0.0,0.0,-4.3615,-4.2835,-4.2858,-4.2069,-4.0458,0.0,0.0,-3.6929,0.0,-3.5571,-3.719,-3.8026,-3.9368,-4.1127,-4.3617,-4.4674,-4.4938,-4.7391,-4.8372,-4.856,-5.0258,-5.09,-5.0983,-5.1881,-5.2183,-5.2183,-5.2183,-5.2183,-5.2032,-5.1252,-5.0979,-5.1168,-5.2038,-5.2243,-5.2371,-5.3164,-5.339,-5.3547,-5.4312,-5.4468,-5.4472,-5.4443,-5.4409,-5.3921,-5.2268,-5.1255,-5.0429,-4.964,-4.939,-4.9027,-4.8241,0.0,0.0,0.0,0.0,0.0,0.0,-3.9999,-3.8016,-3.552,0.0,0.0,0.0,0.0,0.0,0.0,0.0,0.0,-3.46,-3.7035,0.0,-4.0492,-4.2882,-4.4512,-4.5309,-4.6106,-4.6819,-4.7529,-4.7312,-4.7178,-4.7178,-4.7178,-4.7214,-4.7331,-4.8307,-4.872,-4.8901,-5.0624,-5.1285,-5.1393,-5.219,-5.248,-5.248,-4.728,-4.7391,-4.7394,-4.7002,-4.7201,-4.7293,-4.6892,-4.7088,-4.7363,-4.745,-4.7615,-4.756,-4.7215,-4.6746,-4.6207,0.0,-4.548,-4.5405,0.0,-4.5291,-4.5397,-4.5463,-4.5008,-4.4665,-4.4506,-4.3423,-4.2597,-4.2143,0.0,0.0,0.0,-3.8477,-3.8539,-3.9677,-4.0013,-4.1393,-4.354,-4.4987,-4.6194,-4.7307,-4.9265,-5.0026,-5.0108,-5.1168,-5.1581,-5.1619,-5.1882,-5.1995,-5.1995,-5.1995,-5.2059,-5.2128,-5.246,-5.2598,-5.2666,-5.2968,-5.3459,-5.3956,-5.4118,-5.4124,-5.4199,-5.4364,-5.4405,-5.4443,-5.4409,-5.4409,-5.4108,-5.3019,-5.2086,-5.1228,-5.0408,-4.9669,-4.9155,-4.8828,-4.824,0.0,0.0,0.0,0.0,0.0,-4.1348,-3.9852,0.0,-3.6168,0.0,0.0,0.0,0.0,0.0,0.0,0.0,0.0,-3.7519,0.0,-4.0492,-4.3425,-4.5055,-4.5309,-4.6566,-4.7234,-4.7312,-4.7223,-4.7133,-4.7043,-4.7043,-4.7133,-4.7214,-4.7607,-4.8127,-4.8828,-5.0009,-5.0814,-5.1393,-5.219,-5.248,-5.248,-4.8675,-4.8826,-4.8799,-4.8435,-4.8259,-4.8043,-4.767,-4.7402,-4.7276,-4.7407,-4.7572,-4.7657,-4.7819,-4.7461,0.0,-4.6321,-4.6323,-4.6214,-4.592,-4.6028,-4.6136,-4.617,-4.5756,-4.5597,-4.57,0.0,0.0,-4.4234,-4.3431,-4.2464,-4.1338,-4.0637,-4.1001,-4.2205,-4.2232,-4.3461,-4.5566,-4.645,-4.7391,-4.8415,-5.0108,-5.0754,-5.0804,-5.1968,-5.2348,-5.2353,-5.2653,-5.2765,-5.2731,-5.2731,-5.2799,-5.2977,-5.3503,-5.372,-5.3785,-5.3817,-5.4194,-5.4576,-5.4472,-5.4472,-5.4439,-5.4409,-5.4409,-5.4409,-5.4375,-5.434,-5.4043,-5.3256,-5.236,-5.1503,-5.0646,-4.9758,-4.9131,-4.9101,-4.8584,-4.7917,-4.707,0.0,0.0,0.0,0.0,0.0,0.0,-3.8426,0.0,0.0,0.0,0.0,0.0,0.0,0.0,-3.5892,-3.8464,0.0,-4.0963,-4.3785,-4.5192,-4.5228,-4.6693,-4.7312,-4.7178,-4.7133,-4.7088,-4.6998,-4.6998,-4.7043,-4.7133,-4.7187,-4.7607,-4.8279,-4.9242,-5.0081,-5.0923,-5.1756,-5.2226,-5.2552,-4.8851,-4.8968,0.0,0.0,-4.8722,0.0,-4.8175,-4.7706,-4.7295,-4.7276,-4.7407,-4.7572,-4.7657,-4.7808,-4.7643,-4.7124,0.0,0.0,0.0,-4.6176,-4.6248,-4.6248,-4.635,-4.6379,-4.6379,-4.6446,-4.6513,-4.6513,-4.4978,-4.3476,-4.2137,-4.2155,-4.3062,-4.4655,-4.4684,-4.5585,-4.7124,-4.7875,-4.8213,-4.8438,-5.0091,-5.0767,-5.0954,-5.2644,-5.3178,-5.3184,-5.4008,-5.42,-5.4091,-5.4091,-5.42,-5.4308,-5.4308,-5.4306,-5.4409,-5.4472,-5.4439,-5.4409,-5.4375,-5.4375,-5.4375,-5.4375,-5.4375,-5.4375,-5.4308,-5.42,-5.3867,-5.3157,-5.2298,-5.1439,-5.0617,-4.9765,-4.9176,-4.9101,-4.8962,-4.863,-4.7813,0.0,0.0,0.0,0.0,0.0,0.0,-4.0602,-3.9703,0.0,0.0,0.0,0.0,0.0,-3.6979,-3.8246,-3.9767,-4.0963,-4.1759,-4.3996,-4.5106,-4.5251,-4.655,-4.7178,-4.7178,-4.7043,-4.6998,-4.6998,-4.6998,-4.6998,-4.6998,-4.7133,-4.7267,-4.7392,-4.8351,-4.9234,-5.0162,-5.0995,-5.1792,-5.2625,0.0,0.0,-5.0452,-4.9953,-4.982,-4.9434,-4.8354,-4.8136,-4.7823,-4.7295,-4.7363,-4.7493,-4.7536,-4.7693,-4.7747,-4.7656,-4.7858,-4.7826,-4.7677,-4.7717,-4.7831,-4.7942,-4.7389,-4.7165,-4.7305,-4.6672,-4.6409,-4.6513,-4.57,-4.5356,-4.5482,-4.514,-4.5455,-4.6285,-4.6382,-4.6974,-4.7913,-4.8101,-4.8589,-4.934,-5.0954,-5.163,-5.178,-5.344,-5.4008,-5.4008,-5.4125,-5.4127,-5.4091,-5.4091,-5.4127,-5.4127,-5.4127,-5.4163,-5.4198,-5.4306,-5.4343,-5.4271,-5.4198,-5.4163,-5.4163,-5.4163,-5.4163,-5.4163,-5.4127,-5.4127,-5.4054,-5.3867,-5.3048,-5.2192,-5.1372,-5.0482,-4.9668,-4.9073,-4.8892,-4.8526,-4.7747,-4.7529,0.0,0.0,-4.5657,-4.5072,-4.3973,-4.3611,-4.3066,0.0,0.0,0.0,0.0,-4.2013,-4.1216,-3.9188,-4.0565,-4.172,-4.2513,-4.4201,-4.5594,-4.6729,-4.7044,-4.7133,-4.7043,-4.6998,-4.6998,-4.6998,-4.6998,-4.6998,-4.6998,-4.7133,-4.7223,-4.7295,-4.8219,-4.9145,-5.0028,-5.0823,-5.1746,-5.2625,-5.14,-5.1227,-5.0982,-5.0628,-5.0394,-5.0062,-4.9256,-4.865,-4.8136,-4.7751,-4.7527,-4.7399,-4.7493,-4.7578,-4.7627,-4.7824,-4.7947,-4.8108,-4.8153,-4.8229,-4.8304,-4.8419,-4.8052,-4.7905,-4.8015,-4.764,-4.7302,-4.7033,-4.6739,-4.662,-4.6605,-4.6376,-4.6663,-4.7355,-4.7423,-4.7934,-4.8677,-4.8677,-4.9008,-4.964,-5.1255,-5.186,-5.2053,-5.3671,-5.4237,-5.4128,-5.4092,-5.4018,-5.3944,-5.3944,-5.3981,-5.4018,-5.4018,-5.4055,-5.4091,-5.4128,-5.4164,-5.42,-5.4127,-5.4091,-5.4091,-5.4091,-5.4055,-5.4018,-5.4018,-5.3981,-5.3944,-5.3944,-5.3237,-5.2382,-5.1527,-5.0637,-4.9785,-4.8896,-4.8714,-4.853,-4.8123,-4.7978,0.0,-4.6727,-4.6911,-4.6765,-4.5847,-4.6029,-4.5915,-4.5362,0.0,0.0,-4.5091,-4.5526,-4.4476,-4.1615,-4.2587,-4.3415,-4.3884,-4.491,-4.6004,-4.7088,-4.7088,-4.7088,-4.6998,-4.6998,-4.6998,-4.6998,-4.6998,-4.6998,-4.6998,-4.7088,-4.7133,-4.725,-4.8093,-4.8974,-4.9892,-5.0685,-5.1777,-5.3026,-5.1976,-5.156,-5.121,-5.1123,-5.0732,-5.0388,-5.0282,-4.9185,-4.8329,-4.8279,-4.7644,-4.7267,-4.7443,-4.7464,-4.7548,-4.7663,-4.7772,-4.7938,-4.8153,-4.819,-4.8226,-4.8267,-4.8419,-4.8457,-4.8494,-4.8679,-4.8489,-4.7853,-4.7887,-4.7549,-4.6945,-4.6978,-4.7383,-4.8156,-4.8189,-4.8595,-4.9257,-4.9257,-4.9433,-4.9796,-5.126,-5.1907,-5.2139,-5.3674,-5.4166,-5.3982,-5.3982,-5.3907,-5.3794,-5.3794,-5.3907,-5.3982,-5.3982,-5.4019,-5.4018,-5.3982,-5.4019,-5.4018,-5.3905,-5.3868,-5.3869,-5.3981,-5.3982,-5.3907,-5.3907,-5.3831,-5.3756,-5.3756,-5.3236,-5.2456,-5.1528,-5.0713,-4.9861,-4.8938,-4.8679,-4.8605,-4.8605,0.0,-4.8383,-4.7684,-4.8234,-4.8339,-4.7563,-4.7995,-4.8275,-4.8193,-4.8104,-4.8061,0.0,-4.8061,-4.712,-4.5015,-4.5188,-4.5251,-4.5209,-4.5832,-4.6409,-4.6998,-4.6998,-4.6998,-4.6998,-4.6998,-4.6998,-4.6998,-4.6998,-4.6998,-4.6998,-4.6998,-4.716,-4.7429,-4.8074,-4.8908,-4.9898,-5.0617,-5.1922,-5.3446,-5.1948,-5.1815,-5.17,-5.1175,-5.107,-5.0805,-5.0201,-4.9465,-4.8745,-4.814,-4.7543,-4.7178,-4.7223,-4.7378,-4.7512,-4.7512,-4.7663,-4.7814,-4.797,-4.8141,-4.8187,-4.8226,-4.8267,-4.8344,-4.8494,-4.8679,-4.8713,-4.8637,-4.8707,-4.8667,-4.8553,-4.8658,-4.8803,-4.8949,-4.8978,-4.9085,-4.923,-4.923,-4.9604,-5.0314,-5.1249,-5.2071,-5.2821,-5.372,-5.4019,-5.3982,-5.3869,-5.3794,-5.3794,-5.3794,-5.3794,-5.3832,-5.3832,-5.3832,-5.3832,-5.3791,-5.3753,-5.3606,-5.3014,-5.2716,-5.2826,-5.3452,-5.3561,-5.3561,-5.3561,-5.3561,-5.3521,-5.3521,-5.3447,-5.3114,-5.2301,-5.1488,-5.0637,-4.975,-4.9011,-4.8532,-4.8532,0.0,-4.9297,-4.9069,-4.9764,-5.0163,-4.993,-4.9877,-4.9828,-4.9828,-4.9778,-4.9727,-4.9727,-4.9727,-4.9502,-4.9009,-4.7083,-4.5904,-4.5694,-4.6472,-4.6936,-4.6998,-4.6998,-4.6998,-4.6998,-4.6998,-4.6998,-4.6998,-4.6998,-4.6998,-4.6998,-4.6998,-4.7436,-4.8043,-4.8186,-4.9173,-5.0558,-5.0701,-5.179,-5.3396,-5.3044,-5.2481,-5.1891,-5.1595,-5.1316,-5.0982,-5.0682,-5.0095,-4.938,-4.8697,-4.8045,-4.7543,-4.725,-4.7267,-4.7363,-4.7512,-4.7536,-4.7644,-4.7772,-4.7975,-4.8101,-4.8187,-4.8226,-4.8343,-4.8494,-4.8569,-4.8679,-4.8787,-4.8822,-4.8855,-4.889,-4.8962,-4.8996,-4.8996,-4.903,-4.9321,-4.9803,-4.9803,-5.0284,-5.114,-5.1962,-5.2524,-5.2863,-5.3721,-5.3944,-5.3907,-5.3793,-5.3754,-5.3716,-5.3639,-5.3639,-5.3639,-5.3639,-5.3639,-5.36,-5.3598,-5.3598,-5.3524,-5.3156,-5.3045,-5.304,-5.3407,-5.3481,-5.3481,-5.3481,-5.3481,-5.3481,-5.3481,-5.3481,-5.3222,-5.233,-5.1888,-5.1332,-5.0483,-5.0,0.0,0.0,-4.9918,-5.0057,-4.9971,-5.0665,-5.1098,-5.0969,-5.1645,-5.2109,-5.21,-5.249,-5.2697,-5.2697,-5.2568,-5.2257,-5.1766,-4.9287,-4.7716,-4.7105,-4.7461,-4.7426,-4.6998,-4.6998,-4.6998,-4.6998,-4.6998,-4.6998,-4.6998,-4.6998,-4.6998,-4.7033,-4.7461,-4.7854,-4.8247,-4.9103,-4.9901,-5.07,-5.1558,-5.2645,-5.3877,-5.4032,-5.3054,-5.2151,-5.2032,-5.1509,-5.1034,-5.1034,-5.047,-4.9811,-4.9132,-4.8435,-4.7749,-4.716,-4.716,-4.725,-4.7414,-4.7486,-4.7522,-4.7651,-4.7766,-4.7933,-4.8105,-4.8184,-4.8265,-4.8457,-4.8457,-4.8569,-4.8715,-4.8787,-4.8822,-4.8892,-4.889,-4.889,-4.8927,-4.9113,-4.9594,-5.0296,-5.0482,-5.1039,-5.1892,-5.2563,-5.2864,-5.3014,-5.3684,-5.3869,-5.3717,-5.3676,-5.3637,-5.3637,-5.3521,-5.3481,-5.3481,-5.3481,-5.3481,-5.3481,-5.344,-5.344,-5.34,-5.344,-5.333,-5.3219,-5.3363,-5.3437,-5.3437,-5.3437,-5.3437,-5.3437,-5.3437,-5.3437,-5.3175,-5.2467,-5.2132,-5.1761,-5.1087,0.0,0.0,0.0,-5.0707,-5.0775,-5.0648,-5.1522,-5.2061,-5.1964,-5.3235,-5.4023,-5.3965,-5.4544,-5.4907,-5.4907,-5.4724,-5.4251,-5.3526,-5.1047,-4.9341,-4.8461,-4.8282,-4.7854,-4.7283,-4.7069,-4.6998,-4.6998,-4.6998,-4.6998,-4.6998,-4.6998,-4.7105,-4.7273,-4.7879,-4.8342,-4.8758,-4.9933,-5.0539,-5.0859,-5.2248,-5.3298,-5.4189,-5.3922,-5.33,-5.2669,-5.2081,-5.14,-5.0873,-5.0873,-5.0365,-4.9607,-4.8831,-4.8289,-4.7702,-4.6931,-4.7043,-4.7205,-4.7231,-4.7407,-4.75,-4.7507,-4.7644,-4.7772,-4.7922,-4.8101,-4.8226,-4.8306,-4.8457,-4.8494,-4.8494,-4.8715,-4.8787,-4.8822,-4.8892,-4.889,-4.8927,-4.967,-5.0042,-5.0153,-5.0971,-5.1788,-5.2531,-5.2568,-5.305,-5.3602,-5.3676,-5.3637,-5.3521,-5.3521,-5.3481,-5.3481,-5.3481,-5.3481,-5.3481,-5.3481,-5.3481,-5.3481,-5.3359,-5.3272,-5.323,-5.3277,-5.2766,-5.2357,-5.3046,-5.3225,-5.3225,-5.3225,-5.3225,-5.3225,-5.3225,-5.3146,-5.3023,-5.295,-5.2242,-5.1609,-5.1572,0.0,0.0,-5.0435,-5.1055,-5.1486,-5.1318,-5.2699,-5.3598,-5.3577,-5.4291,-5.4834,-5.4798,-5.487,-5.4907,-5.4907,-5.4724,-5.4453,-5.4128,-5.1736,-5.0031,-4.9246,-4.8532,-4.8139,-4.8068,-4.7354,-4.6998,-4.6998,-4.6998,-4.6998,-4.6998,-4.6998,-4.738,-4.7915,-4.7986,-4.8791,-4.9953,-5.0059,-5.0555,-5.135,-5.2113,-5.3034,-5.4029,-5.446,-5.3624,-5.2822,-5.2599,-5.166,-5.0873,-5.0873,-5.0681,-5.0066,-4.8851,-4.8529,-4.8006,-4.692,-4.6906,-4.6998,-4.7205,-4.7259,-4.7356,-4.7493,-4.7542,-4.7699,-4.788,-4.8101,-4.8226,-4.8265,-4.8343,-4.8419,-4.8494,-4.8569,-4.8642,-4.8752,-4.8714,-4.9047,-4.9639,-4.9824,-5.0491,-5.149,-5.1823,-5.2712,-5.3933,-5.3933,-5.4374,-5.5073,-5.5073,-5.4741,-5.4256,-5.4137,-5.3806,-5.3359,-5.3355,-5.3314,-5.3314,-5.3314,-5.3272,-5.3151,-5.3023,-5.298,-5.2974,-5.298,-5.2846,-5.27,-5.2864,-5.2974,-5.2974,-5.2974,-5.2974,-5.2974,-5.2974,-5.2893,-5.285,-5.285,-5.2594,-5.2331,-5.2331,0.0,-5.185,-5.1806,-5.2453,-5.2917,-5.2862,-5.3795,-5.4484,-5.4436,-5.5124,-5.5595,-5.5595,-5.6029,-5.6269,-5.6219,-5.5965,-5.5506,-5.483,-5.3885,-5.2564,-5.0816,-5.0031,-4.9388,-4.8889,-4.8568,-4.8378,-4.8283,-4.8283,-4.8235,-4.8187,-4.8187,-4.8316,-4.8586,-4.9082,-4.9649,-5.0165,-5.0661,-5.1298,-5.2077,-5.2856,-5.367,-5.4717,-5.478,-5.3714,-5.2811,-5.2927,-5.178,-5.0819,-5.0873,-5.0873,-5.047,-4.9151,-4.9027,-4.8564,-4.7204,-4.7122,-4.7155,-4.7079,-4.716,-4.725,-4.7407,-4.7464,-4.7621,-4.7892,-4.8024,-4.8108,-4.8187,-4.8265,-4.8306,-4.8457,-4.8457,-4.8569,-4.8643,-4.8864,-4.9381,-5.0083,-5.0452,-5.1228,-5.2336,-5.2853,-5.3702,-5.4695,-5.4995,-5.5397,-5.5871,-5.5871,-5.5502,-5.4981,-5.4816,-5.4259,-5.3561,-5.3469,-5.328,-5.306,-5.306,-5.3017,-5.2893,-5.2806,-5.2806,-5.2806,-5.2761,-5.2988,-5.3178,-5.2878,-5.2806,-5.2806,-5.2806,-5.2806,-5.2806,-5.2806,-5.2761,-5.2761,-5.2761,-5.2717,-5.2708,-5.2708,-5.289,-5.3072,-5.2944,-5.3634,-5.4132,-5.4074,-5.4762,-5.5233,-5.5184,-5.5871,-5.6342,-5.6255,-5.6798,-5.6984,-5.6881,-5.6707,-5.6295,-5.5598,-5.5348,-5.442,-5.2814,-5.153,-5.041,-4.9626,-4.9328,-4.9172,-4.9025,-4.9025,-4.8976,-4.8876,-4.8876,-4.9018,-4.925,-4.978,-5.0169,-5.0399,-5.0981,-5.1599,-5.2376,-5.3152,-5.402,-5.5101,-5.4717,-5.3567,-5.2577,-5.2869,-5.1633,-5.0675,-5.0873,-5.0873,-5.0592,-4.9785,-4.9785,-4.9325,-4.7773,-4.7842,-4.7702,-4.6884,-4.7043,-4.7205,-4.7186,-4.7383,-4.7615,-4.7907,-4.7902,-4.7984,-4.8187,-4.8187,-4.8226,-4.8306,-4.8419,-4.8494,-4.8531,-4.938,-4.9935,-5.0157,-5.1634,-5.2299,-5.241,-5.4035,-5.4695,-5.4769,-5.5623,-5.5871,-5.5822,-5.5822,-5.5735,-5.5611,-5.544,-5.4883,-5.418,-5.4045,-5.3498,-5.2842,-5.2806,-5.2806,-5.2806,-5.2806,-5.2806,-5.2761,-5.2635,-5.3208,-5.3608,-5.298,-5.2842,-5.2842,-5.2842,-5.2842,-5.2842,-5.2842,-5.2717,-5.259,-5.259,-5.2572,-5.2516,-5.2516,-5.3168,-5.3711,-5.3711,-5.4399,-5.4907,-5.4907,-5.5558,-5.5944,-5.5794,-5.6515,-5.6933,-5.6776,-5.6812,-5.676,-5.66,-5.66,-5.6546,-5.6383,-5.5633,-5.5205,-5.5205,-5.2886,-5.1265,-5.0297,-4.9515,-4.9061,-4.8912,-4.8912,-4.8912,-4.8912,-4.8912,-4.9286,-4.9924,-4.9924,-5.0277,-5.0908,-5.0908,-5.1365,-5.2102,-5.2909,-5.3795,-5.4931,-5.4367,-5.3349,-5.2552,-5.2612,-5.1521,-5.0585,-5.0675,-5.0819,-5.0592,-4.9785,-4.9732,-4.9398,-4.8463,-4.8063,-4.7819,-4.7666,-4.7273,-4.7088,-4.7169,-4.7356,-4.7572,-4.7621,-4.7819,-4.7902,-4.7984,-4.8108,-4.8226,-4.8226,-4.8343,-4.8675,-4.9263,-4.9522,-5.0296,-5.1474,-5.1915,-5.2684,-5.3787,-5.4265,-5.5147,-5.6176,-5.6434,-5.6875,-5.7344,-5.7344,-5.6887,-5.6283,-5.6237,-5.5679,-5.4894,-5.4848,-5.4702,-5.4374,-5.3736,-5.3508,-5.3399,-5.2763,-5.2925,-5.3266,-5.3218,-5.3749,-5.4097,-5.3435,-5.3664,-5.4014,-5.3917,-5.3917,-5.3773,-5.3279,-5.3123,-5.3087,-5.3087,-5.3075,-5.3207,-5.3747,-5.4035,-5.4215,-5.4215,-5.4864,-5.5368,-5.5368,-5.6052,-5.6557,-5.6505,-5.6721,-5.6829,-5.6776,-5.6707,-5.6653,-5.66,-5.6492,-5.6437,-5.6383,-5.6059,-5.5612,-5.5079,-5.3833,-5.2998,-5.2785,-5.1863,-5.1317,-5.1211,-5.0682,-5.0382,-5.0277,-5.0277,-5.0365,-5.0433,-5.0433,-5.0465,-5.0579,-5.1102,-5.18,-5.2567,-5.3486,-5.4338,-5.5308,-5.4175,-5.3163,-5.2373,-5.2493,-5.1384,-5.0509,-5.0585,-5.0729,-5.0643,-5.0206,-5.0171,-4.9908,-4.9151,-4.8847,-4.8523,-4.8351,-4.7832,-4.7365,-4.7214,-4.7312,-4.7443,-4.7529,-4.7657,-4.7819,-4.7902,-4.8024,-4.8251,-4.8583,-4.8703,-4.9072,-4.9768,-5.0244,-5.1128,-5.238,-5.2663,-5.3353,-5.4305,-5.4928,-5.577,-5.6685,-5.7015,-5.7418,-5.7857,-5.7857,-5.7481,-5.6985,-5.6937,-5.6379,-5.5593,-5.5509,-5.5327,-5.4953,-5.4302,-5.4157,-5.4001,-5.3388,-5.3544,-5.3855,-5.3855,-5.4381,-5.4799,-5.4331,-5.4381,-5.4489,-5.4439,-5.4389,-5.4245,-5.3828,-5.3756,-5.3756,-5.3756,-5.3756,-5.39,-5.4317,-5.464,-5.4907,-5.4907,-5.559,-5.6057,-5.6057,-5.6489,-5.6812,-5.676,-5.6707,-5.6707,-5.66,-5.6492,-5.6383,-5.6328,-5.6558,-5.668,-5.668,-5.6887,-5.6794,-5.6298,-5.5461,-5.452,-5.3599,-5.3085,-5.2729,-5.2619,-5.2107,-5.1896,-5.1786,-5.1731,-5.164,-5.1494,-5.1472,-5.1359,-5.1372,-5.1824,-5.2486,-5.3217,-5.3729,-5.4451,-5.5383,-5.411,-5.3072,-5.22,-5.2433,-5.128,-5.0354,-5.0564,-5.0585,-5.0675,-5.0819,-5.0873,-5.0592,-4.989,-4.9872,-4.9658,-4.9018,-4.8567,-4.8043,-4.7465,-4.7393,-4.7483,-4.7666,-4.7666,-4.7832,-4.8078,-4.8047,-4.8416,-4.919,-4.9387,-4.972,-5.0154,-5.1328,-5.2285,-5.303,-5.3807,-5.4155,-5.4292,-5.5796,-5.6452,-5.6598,-5.7328,-5.7583,-5.7583,-5.7583,-5.7583,-5.7534,-5.7437,-5.6915,-5.6249,-5.6151,-5.5667,-5.5039,-5.4783,-5.4697,-5.4661,-5.4475,-5.4424,-5.4496,-5.4496,-5.5071,-5.5594,-5.5472,-5.4988,-5.4553,-5.4553,-5.4553,-5.4517,-5.4445,-5.4445,-5.4445,-5.4445,-5.4445,-5.4481,-5.4517,-5.5127,-5.5646,-5.5646,-5.6293,-5.6724,-5.6724,-5.6724,-5.6707,-5.6546,-5.6546,-5.6437,-5.6197,-5.6268,-5.6212,-5.6007,-5.6786,-5.7211,-5.7211,-5.7919,-5.8308,-5.8308,-5.7388,-5.5883,-5.3732,-5.3591,-5.3408,-5.3296,-5.3225,-5.319,-5.3155,-5.2984,-5.2927,-5.2869,-5.2695,-5.2671,-5.2671,-5.274,-5.3192,-5.3783,-5.3853,-5.4339,-5.5201,-5.3783,-5.3293,-5.2722,-5.22,-5.1519,-5.0922,-5.0389,-5.0397,-5.0509,-5.0675,-5.0675,-5.0659,-5.0627,-5.0172,-4.9818,-4.9694,-4.9238,-4.89,-4.8817,-4.8912,-4.9005,-4.9052,-4.9144,-4.928,-4.945,-4.9053,-4.8914,-4.9119,-4.984,-5.0587,-5.128,-5.2193,-5.2996,-5.3799,-5.4592,-5.5285,-5.5905,-5.627,-5.6781,-5.7364,-5.7546,-5.7583,-5.7583,-5.7583,-5.7534,-5.7437,-5.7388,-5.7229,-5.6985,-5.6834,-5.6675,-5.6407,-5.5656,-5.5389,-5.5281,-5.4619,-5.4768,-5.5167,-5.5062,-5.5526,-5.6023,-5.5821,-5.5715,-5.5628,-5.5774,-5.5719,-5.5395,-5.4827,-5.4721,-5.4721,-5.4721,-5.4721,-5.4898,-5.5466,-5.5715,-5.5821,-5.5821,-5.5964,-5.607,-5.607,-5.607,-5.607,-5.6014,-5.6014,-5.6049,-5.5993,-5.656,-5.6914,-5.6821,-5.76,-5.8025,-5.8025,-5.8083,-5.8094,-5.8094,-5.7736,-5.7103,-5.6129,-5.4781,-5.4068,-5.4033,-5.3436,-5.3098,-5.2984,-5.2927,-5.2811,-5.2577,-5.2552,-5.2493,-5.2347,-5.303,-5.3376,-5.3583,-5.4295,-5.4703,-5.505,-5.3717,-5.3236,-5.2677,-5.2111,-5.1443,-5.0863,-5.031,-5.0228,-5.0341,-5.0509,-5.053,-5.064,-5.0729,-5.054,-5.0259,-4.9924,-4.9756,-4.9564,-4.9256,-4.9317,-4.9412,-4.9496,-4.959,-4.9672,-4.979,-4.9911,-5.0045,-5.0162,-5.0664,-5.1515,-5.2644,-5.3081,-5.3736,-5.4537,-5.5254,-5.5825,-5.6225,-5.6625,-5.7024,-5.7388,-5.7388,-5.7388,-5.7388,-5.7388,-5.7338,-5.7289,-5.7289,-5.7188,-5.7087,-5.6933,-5.6881,-5.6809,-5.6257,-5.606,-5.5989,-5.5436,-5.5509,-5.5776,-5.5577,-5.5786,-5.6049,-5.5936,-5.5822,-5.5764,-5.5993,-5.5993,-5.5794,-5.5405,-5.5334,-5.544,-5.583,-5.5901,-5.6148,-5.6927,-5.7034,-5.7034,-5.7034,-5.7034,-5.7034,-5.7034,-5.6975,-5.6858,-5.6799,-5.674,-5.6799,-5.6799,-5.7187,-5.7434,-5.7434,-5.821,-5.8633,-5.8633,-5.8888,-5.9003,-5.9003,-5.8815,-5.8577,-5.8281,-5.6701,-5.5904,-5.5809,-5.5424,-5.5189,-5.5009,-5.4887,-5.4765,-5.4641,-5.4614,-5.4247,-5.3873,-5.4287,-5.4253,-5.4011,-5.4897,-5.5657,-5.6383,-5.3651,-5.3207,-5.2592,-5.2021,-5.1363,-5.0763,-5.0195,-5.0114,-5.0171,-5.0341,-5.0453,-5.053,-5.0585,-5.0819,-5.0681,-5.0171,-5.0307,-5.0175,-4.9501,-4.9564,-4.9745,-4.9841,-4.9889,-4.9961,-5.0068,-5.0856,-5.1369,-5.1493,-5.1692,-5.2581,-5.3961,-5.4106,-5.4506,-5.5196,-5.5897,-5.621,-5.6197,-5.6848,-5.7138,-5.7138,-5.7138,-5.7138,-5.7138,-5.7138,-5.7138,-5.7138,-5.7138,-5.7036,-5.6969,-5.6776,-5.676,-5.676,-5.66,-5.6546,-5.6492,-5.6217,-5.6141,-5.6141,-5.5936,-5.5879,-5.5786,-5.5786,-5.559,-5.5507,-5.5706,-5.5729,-5.5729,-5.5729,-5.5835,-5.6117,-5.6788,-5.7035,-5.7317,-5.8023,-5.8129,-5.8129,-5.8129,-5.8129,-5.8129,-5.8129,-5.7973,-5.7816,-5.7631,-5.7631,-5.7666,-5.7728,-5.7868,-5.7938,-5.7938,-5.871,-5.9137,-5.9278,-5.9838,-6.0288,-6.0428,-6.0233,-6.0167,-6.0167,-5.9004,-5.8269,-5.7828,-5.7828,-5.7799,-5.7607,-5.7339,-5.7205,-5.714,-5.6905,-5.6426,-5.5805,-5.5805,-5.5426,-5.4977,-5.5533,-5.6636,-5.7842,-5.3484,-5.3516,-5.3105,-5.1809,-5.156,-5.1138,-4.9973,-4.9767,-4.9884,-5.0171,-5.0228,-5.0341,-5.0585,-5.0819,-5.0892,-5.0947,-5.0999,-5.0981,-5.098,-5.1134,-5.1185,-5.1236,-5.1337,-5.1486,-5.162,-5.2373,-5.2615,-5.2174,-5.2906,-5.3725,-5.4762,-5.5426,-5.5789,-5.5934,-5.6681,-5.6993,-5.6891,-5.7,-5.6933,-5.6829,-5.6829,-5.6829,-5.6829,-5.6829,-5.6829,-5.6829,-5.6829,-5.6829,-5.6812,-5.6707,-5.6653,-5.66,-5.6364,-5.6253,-5.6253,-5.5993,-5.5936,-5.5936,-5.5764,-5.5648,-5.5472,-5.5319,-5.5139,-5.5053,-5.5113,-5.5113,-5.5113,-5.5113,-5.5637,-5.6125,-5.623,-5.6788,-5.7311,-5.7416,-5.7416,-5.7416,-5.7416,-5.7416,-5.7416,-5.7416,-5.7416,-5.7352,-5.7352,-5.7352,-5.7352,-5.7352,-5.798,-5.8328,-5.8328,-5.9095,-5.9826,-6.0488,-6.0593,-6.0976,-6.1673,-6.1605,-6.1605,-6.1605,-6.1464,-6.056,-5.9238,-5.9238,-5.9172,-5.8972,-5.8314,-5.7971,-5.7702,-5.7047,-5.6736,-5.6633,-5.6633,-5.6598,-5.6495,-5.64,-5.6883,-5.7604,-5.3348,-5.3484,-5.3143,-5.1745,-5.1537,-5.1151,-4.977,-4.9649,-4.9767,-4.9884,-5.0057,-5.0228,-5.0341,-5.0564,-5.0729,-5.0784,-5.0981,-5.1123,-5.1193,-5.1298,-5.1402,-5.1402,-5.1932,-5.2284,-5.2335,-5.3187,-5.3754,-5.4036,-5.4008,-5.4431,-5.5274,-5.5649,-5.6046,-5.6479,-5.684,-5.6933,-5.6881,-5.6881,-5.6829,-5.6812,-5.6812,-5.6812,-5.6812,-5.6812,-5.6812,-5.6812,-5.6707,-5.6707,-5.6653,-5.6437,-5.6418,-5.6328,-5.6106,-5.6049,-5.5993,-5.5822,-5.5764,-5.5648,-5.5472,-5.5354,-5.5174,-5.5113,-5.4992,-5.4904,-5.4904,-5.4683,-5.462,-5.493,-5.5583,-5.6245,-5.6697,-5.7393,-5.8055,-5.8507,-5.8577,-5.8577,-5.8577,-5.8511,-5.8314,-5.8079,-5.8459,-5.8736,-5.8736,-5.9115,-5.946,-5.9663,-6.0043,-6.0217,-6.0386,-6.07,-6.1048,-6.1396,-6.1396,-6.157,-6.1918,-6.2196,-6.2543,-6.2993,-6.3338,-6.2472,-6.0635,-6.0635,-6.0566,-6.0428,-6.0082,-5.9875,-5.9771,-5.9461,-5.9081,-5.8702,-5.8702,-5.8358,-5.7809,-5.7227,-5.7467,-5.8186]}]]